<?xml version="1.0" encoding="UTF-8" standalone="no" ?>
<gpx xmlns="http://www.topografix.com/GPX/1/1" xmlns:xsi="http://www.w3.org/2001/XMLSchema-instance" xsi:schemaLocation="http://www.topografix.com/GPX/1/1 http://www.topografix.com/GPX/1/1/gpx.xsd" version="1.1" creator="VisuGPX - https://www.visugpx.com">
  <metadata>
    <name>Sault lac de Monieux</name>
    <desc><![CDATA[Long glissant pas très technique paysage sympa
  ]]></desc>
  </metadata>
  <trk>
    <name><![CDATA[ACTIVE LOG 002]]></name>
    <trkseg>
      <trkpt lat="44.09077" lon="5.4161">
        <ele>802.3574219</ele>
        <time>2015-11-01T07:28:18Z</time>
      </trkpt>
      <trkpt lat="44.0908" lon="5.41613">
        <ele>799.4736328</ele>
        <time>2015-11-01T07:28:45Z</time>
      </trkpt>
      <trkpt lat="44.0908" lon="5.41622">
        <ele>790.8215332</ele>
        <time>2015-11-01T07:32:46Z</time>
      </trkpt>
      <trkpt lat="44.09076" lon="5.41627">
        <ele>790.8215332</ele>
        <time>2015-11-01T07:32:50Z</time>
      </trkpt>
      <trkpt lat="44.09061" lon="5.41643">
        <ele>791.782959</ele>
        <time>2015-11-01T07:32:56Z</time>
      </trkpt>
      <trkpt lat="44.0906" lon="5.41651">
        <ele>791.782959</ele>
        <time>2015-11-01T07:32:58Z</time>
      </trkpt>
      <trkpt lat="44.09061" lon="5.41659">
        <ele>791.3022461</ele>
        <time>2015-11-01T07:33:01Z</time>
      </trkpt>
      <trkpt lat="44.0906" lon="5.41689">
        <ele>790.3410645</ele>
        <time>2015-11-01T07:33:11Z</time>
      </trkpt>
      <trkpt lat="44.09056" lon="5.41712">
        <ele>788.418457</ele>
        <time>2015-11-01T07:33:24Z</time>
      </trkpt>
      <trkpt lat="44.09056" lon="5.41729">
        <ele>787.4570313</ele>
        <time>2015-11-01T07:34:05Z</time>
      </trkpt>
      <trkpt lat="44.09058" lon="5.41782">
        <ele>784.5732422</ele>
        <time>2015-11-01T07:34:17Z</time>
      </trkpt>
      <trkpt lat="44.09061" lon="5.41865">
        <ele>788.8991699</ele>
        <time>2015-11-01T07:34:33Z</time>
      </trkpt>
      <trkpt lat="44.09058" lon="5.41944">
        <ele>790.3410645</ele>
        <time>2015-11-01T07:34:48Z</time>
      </trkpt>
      <trkpt lat="44.09048" lon="5.42013">
        <ele>791.782959</ele>
        <time>2015-11-01T07:35:02Z</time>
      </trkpt>
      <trkpt lat="44.0903" lon="5.42074">
        <ele>791.3022461</ele>
        <time>2015-11-01T07:35:15Z</time>
      </trkpt>
      <trkpt lat="44.09027" lon="5.42083">
        <ele>790.8215332</ele>
        <time>2015-11-01T07:35:17Z</time>
      </trkpt>
      <trkpt lat="44.08985" lon="5.42116">
        <ele>792.2636719</ele>
        <time>2015-11-01T07:35:27Z</time>
      </trkpt>
      <trkpt lat="44.08906" lon="5.42169">
        <ele>789.8603516</ele>
        <time>2015-11-01T07:35:45Z</time>
      </trkpt>
      <trkpt lat="44.08851" lon="5.42214">
        <ele>788.8991699</ele>
        <time>2015-11-01T07:35:56Z</time>
      </trkpt>
      <trkpt lat="44.0882" lon="5.42261">
        <ele>785.5344238</ele>
        <time>2015-11-01T07:36:05Z</time>
      </trkpt>
      <trkpt lat="44.08801" lon="5.42272">
        <ele>783.1311035</ele>
        <time>2015-11-01T07:36:09Z</time>
      </trkpt>
      <trkpt lat="44.08718" lon="5.42272">
        <ele>775.4404297</ele>
        <time>2015-11-01T07:36:21Z</time>
      </trkpt>
      <trkpt lat="44.08706" lon="5.4227">
        <ele>773.5180664</ele>
        <time>2015-11-01T07:36:23Z</time>
      </trkpt>
      <trkpt lat="44.08697" lon="5.42285">
        <ele>771.5952148</ele>
        <time>2015-11-01T07:36:28Z</time>
      </trkpt>
      <trkpt lat="44.08709" lon="5.42297">
        <ele>769.6728516</ele>
        <time>2015-11-01T07:36:31Z</time>
      </trkpt>
      <trkpt lat="44.08719" lon="5.42308">
        <ele>769.1921387</ele>
        <time>2015-11-01T07:36:33Z</time>
      </trkpt>
      <trkpt lat="44.08746" lon="5.42351">
        <ele>764.385498</ele>
        <time>2015-11-01T07:36:39Z</time>
      </trkpt>
      <trkpt lat="44.08749" lon="5.42392">
        <ele>759.5788574</ele>
        <time>2015-11-01T07:36:44Z</time>
      </trkpt>
      <trkpt lat="44.08745" lon="5.42411">
        <ele>758.1369629</ele>
        <time>2015-11-01T07:36:46Z</time>
      </trkpt>
      <trkpt lat="44.08727" lon="5.42438">
        <ele>755.7336426</ele>
        <time>2015-11-01T07:36:50Z</time>
      </trkpt>
      <trkpt lat="44.08707" lon="5.42451">
        <ele>753.8110352</ele>
        <time>2015-11-01T07:36:53Z</time>
      </trkpt>
      <trkpt lat="44.08699" lon="5.42492">
        <ele>750.927002</ele>
        <time>2015-11-01T07:36:59Z</time>
      </trkpt>
      <trkpt lat="44.08704" lon="5.42505">
        <ele>749.9658203</ele>
        <time>2015-11-01T07:37:01Z</time>
      </trkpt>
      <trkpt lat="44.08711" lon="5.42518">
        <ele>748.5236816</ele>
        <time>2015-11-01T07:37:04Z</time>
      </trkpt>
      <trkpt lat="44.08702" lon="5.42527">
        <ele>748.5236816</ele>
        <time>2015-11-01T07:37:10Z</time>
      </trkpt>
      <trkpt lat="44.08698" lon="5.42525">
        <ele>748.5236816</ele>
        <time>2015-11-01T07:37:11Z</time>
      </trkpt>
      <trkpt lat="44.08674" lon="5.42506">
        <ele>747.5622559</ele>
        <time>2015-11-01T07:37:17Z</time>
      </trkpt>
      <trkpt lat="44.08655" lon="5.42478">
        <ele>745.1589355</ele>
        <time>2015-11-01T07:37:22Z</time>
      </trkpt>
      <trkpt lat="44.08646" lon="5.42475">
        <ele>743.2363281</ele>
        <time>2015-11-01T07:37:28Z</time>
      </trkpt>
      <trkpt lat="44.08647" lon="5.4248">
        <ele>743.2363281</ele>
        <time>2015-11-01T07:37:29Z</time>
      </trkpt>
      <trkpt lat="44.08649" lon="5.42517">
        <ele>739.3911133</ele>
        <time>2015-11-01T07:37:34Z</time>
      </trkpt>
      <trkpt lat="44.08658" lon="5.42552">
        <ele>736.5073242</ele>
        <time>2015-11-01T07:37:39Z</time>
      </trkpt>
      <trkpt lat="44.08667" lon="5.4257">
        <ele>734.5847168</ele>
        <time>2015-11-01T07:37:43Z</time>
      </trkpt>
      <trkpt lat="44.08655" lon="5.42577">
        <ele>732.1813965</ele>
        <time>2015-11-01T07:37:49Z</time>
      </trkpt>
      <trkpt lat="44.08646" lon="5.42572">
        <ele>732.1813965</ele>
        <time>2015-11-01T07:37:51Z</time>
      </trkpt>
      <trkpt lat="44.08563" lon="5.42537">
        <ele>727.8552246</ele>
        <time>2015-11-01T07:38:04Z</time>
      </trkpt>
      <trkpt lat="44.08539" lon="5.42538">
        <ele>723.529541</ele>
        <time>2015-11-01T07:38:08Z</time>
      </trkpt>
      <trkpt lat="44.08531" lon="5.42542">
        <ele>724.0100098</ele>
        <time>2015-11-01T07:38:10Z</time>
      </trkpt>
      <trkpt lat="44.08522" lon="5.42566">
        <ele>725.4519043</ele>
        <time>2015-11-01T07:38:15Z</time>
      </trkpt>
      <trkpt lat="44.08527" lon="5.42655">
        <ele>724.9714355</ele>
        <time>2015-11-01T07:38:30Z</time>
      </trkpt>
      <trkpt lat="44.08526" lon="5.42726">
        <ele>721.6066895</ele>
        <time>2015-11-01T07:38:43Z</time>
      </trkpt>
      <trkpt lat="44.08507" lon="5.42757">
        <ele>721.6066895</ele>
        <time>2015-11-01T07:38:49Z</time>
      </trkpt>
      <trkpt lat="44.08471" lon="5.42781">
        <ele>724.0100098</ele>
        <time>2015-11-01T07:39:01Z</time>
      </trkpt>
      <trkpt lat="44.08445" lon="5.42804">
        <ele>729.777832</ele>
        <time>2015-11-01T07:39:16Z</time>
      </trkpt>
      <trkpt lat="44.08427" lon="5.42828">
        <ele>732.6621094</ele>
        <time>2015-11-01T07:39:29Z</time>
      </trkpt>
      <trkpt lat="44.08416" lon="5.42854">
        <ele>734.1040039</ele>
        <time>2015-11-01T07:39:42Z</time>
      </trkpt>
      <trkpt lat="44.08416" lon="5.42858">
        <ele>734.1040039</ele>
        <time>2015-11-01T07:39:44Z</time>
      </trkpt>
      <trkpt lat="44.08418" lon="5.4287">
        <ele>735.0654297</ele>
        <time>2015-11-01T07:39:49Z</time>
      </trkpt>
      <trkpt lat="44.08415" lon="5.42885">
        <ele>735.5458984</ele>
        <time>2015-11-01T07:39:57Z</time>
      </trkpt>
      <trkpt lat="44.08395" lon="5.42932">
        <ele>739.3911133</ele>
        <time>2015-11-01T07:40:20Z</time>
      </trkpt>
      <trkpt lat="44.08385" lon="5.42965">
        <ele>741.7944336</ele>
        <time>2015-11-01T07:40:36Z</time>
      </trkpt>
      <trkpt lat="44.08373" lon="5.43006">
        <ele>745.6396484</ele>
        <time>2015-11-01T07:40:56Z</time>
      </trkpt>
      <trkpt lat="44.08363" lon="5.43036">
        <ele>747.5622559</ele>
        <time>2015-11-01T07:41:12Z</time>
      </trkpt>
      <trkpt lat="44.08357" lon="5.43043">
        <ele>749.0043945</ele>
        <time>2015-11-01T07:41:17Z</time>
      </trkpt>
      <trkpt lat="44.0835" lon="5.43055">
        <ele>749.9658203</ele>
        <time>2015-11-01T07:41:25Z</time>
      </trkpt>
      <trkpt lat="44.08332" lon="5.43069">
        <ele>754.291748</ele>
        <time>2015-11-01T07:41:41Z</time>
      </trkpt>
      <trkpt lat="44.08306" lon="5.43059">
        <ele>763.4240723</ele>
        <time>2015-11-01T07:42:01Z</time>
      </trkpt>
      <trkpt lat="44.08288" lon="5.43047">
        <ele>764.8662109</ele>
        <time>2015-11-01T07:42:15Z</time>
      </trkpt>
      <trkpt lat="44.08266" lon="5.43012">
        <ele>766.7888184</ele>
        <time>2015-11-01T07:42:34Z</time>
      </trkpt>
      <trkpt lat="44.08248" lon="5.4298">
        <ele>770.1533203</ele>
        <time>2015-11-01T07:42:53Z</time>
      </trkpt>
      <trkpt lat="44.08233" lon="5.4295">
        <ele>773.5180664</ele>
        <time>2015-11-01T07:43:11Z</time>
      </trkpt>
      <trkpt lat="44.08221" lon="5.42932">
        <ele>776.4018555</ele>
        <time>2015-11-01T07:43:25Z</time>
      </trkpt>
      <trkpt lat="44.08211" lon="5.42916">
        <ele>779.7663574</ele>
        <time>2015-11-01T07:43:38Z</time>
      </trkpt>
      <trkpt lat="44.08204" lon="5.42902">
        <ele>782.6506348</ele>
        <time>2015-11-01T07:43:48Z</time>
      </trkpt>
      <trkpt lat="44.08198" lon="5.42894">
        <ele>784.5732422</ele>
        <time>2015-11-01T07:43:57Z</time>
      </trkpt>
      <trkpt lat="44.08188" lon="5.42878">
        <ele>786.0151367</ele>
        <time>2015-11-01T07:44:10Z</time>
      </trkpt>
      <trkpt lat="44.08176" lon="5.42861">
        <ele>789.3796387</ele>
        <time>2015-11-01T07:44:26Z</time>
      </trkpt>
      <trkpt lat="44.08173" lon="5.42856">
        <ele>789.3796387</ele>
        <time>2015-11-01T07:44:29Z</time>
      </trkpt>
      <trkpt lat="44.08173" lon="5.42852">
        <ele>789.8603516</ele>
        <time>2015-11-01T07:44:31Z</time>
      </trkpt>
      <trkpt lat="44.08174" lon="5.4285">
        <ele>788.418457</ele>
        <time>2015-11-01T07:44:39Z</time>
      </trkpt>
      <trkpt lat="44.0817" lon="5.42848">
        <ele>788.418457</ele>
        <time>2015-11-01T07:44:53Z</time>
      </trkpt>
      <trkpt lat="44.08167" lon="5.42845">
        <ele>787.9377441</ele>
        <time>2015-11-01T07:45:04Z</time>
      </trkpt>
      <trkpt lat="44.08152" lon="5.4283">
        <ele>791.782959</ele>
        <time>2015-11-01T07:45:15Z</time>
      </trkpt>
      <trkpt lat="44.08137" lon="5.42825">
        <ele>791.782959</ele>
        <time>2015-11-01T07:45:26Z</time>
      </trkpt>
      <trkpt lat="44.08104" lon="5.42828">
        <ele>793.2248535</ele>
        <time>2015-11-01T07:45:48Z</time>
      </trkpt>
      <trkpt lat="44.08079" lon="5.42831">
        <ele>796.1091309</ele>
        <time>2015-11-01T07:46:04Z</time>
      </trkpt>
      <trkpt lat="44.08051" lon="5.42836">
        <ele>798.512207</ele>
        <time>2015-11-01T07:46:22Z</time>
      </trkpt>
      <trkpt lat="44.08021" lon="5.42843">
        <ele>801.3962402</ele>
        <time>2015-11-01T07:46:40Z</time>
      </trkpt>
      <trkpt lat="44.07991" lon="5.42854">
        <ele>804.7607422</ele>
        <time>2015-11-01T07:46:54Z</time>
      </trkpt>
      <trkpt lat="44.07956" lon="5.42867">
        <ele>804.7607422</ele>
        <time>2015-11-01T07:47:11Z</time>
      </trkpt>
      <trkpt lat="44.07926" lon="5.42878">
        <ele>805.722168</ele>
        <time>2015-11-01T07:47:26Z</time>
      </trkpt>
      <trkpt lat="44.07886" lon="5.42891">
        <ele>805.2414551</ele>
        <time>2015-11-01T07:47:40Z</time>
      </trkpt>
      <trkpt lat="44.07849" lon="5.42908">
        <ele>806.2026367</ele>
        <time>2015-11-01T07:47:53Z</time>
      </trkpt>
      <trkpt lat="44.07817" lon="5.42915">
        <ele>807.1640625</ele>
        <time>2015-11-01T07:48:06Z</time>
      </trkpt>
      <trkpt lat="44.07773" lon="5.42906">
        <ele>806.6833496</ele>
        <time>2015-11-01T07:48:22Z</time>
      </trkpt>
      <trkpt lat="44.07733" lon="5.429">
        <ele>809.0866699</ele>
        <time>2015-11-01T07:48:37Z</time>
      </trkpt>
      <trkpt lat="44.077" lon="5.42901">
        <ele>813.8933105</ele>
        <time>2015-11-01T07:48:51Z</time>
      </trkpt>
      <trkpt lat="44.07667" lon="5.4291">
        <ele>817.7385254</ele>
        <time>2015-11-01T07:49:04Z</time>
      </trkpt>
      <trkpt lat="44.07623" lon="5.42917">
        <ele>821.5837402</ele>
        <time>2015-11-01T07:49:20Z</time>
      </trkpt>
      <trkpt lat="44.07574" lon="5.42923">
        <ele>821.1032715</ele>
        <time>2015-11-01T07:49:39Z</time>
      </trkpt>
      <trkpt lat="44.07534" lon="5.42931">
        <ele>821.1032715</ele>
        <time>2015-11-01T07:49:54Z</time>
      </trkpt>
      <trkpt lat="44.07524" lon="5.4293">
        <ele>821.1032715</ele>
        <time>2015-11-01T07:49:58Z</time>
      </trkpt>
      <trkpt lat="44.07529" lon="5.42915">
        <ele>821.1032715</ele>
        <time>2015-11-01T07:50:04Z</time>
      </trkpt>
      <trkpt lat="44.0753" lon="5.42914">
        <ele>820.6225586</ele>
        <time>2015-11-01T07:50:48Z</time>
      </trkpt>
      <trkpt lat="44.07543" lon="5.42889">
        <ele>818.6999512</ele>
        <time>2015-11-01T07:51:00Z</time>
      </trkpt>
      <trkpt lat="44.07574" lon="5.42834">
        <ele>816.2966309</ele>
        <time>2015-11-01T07:51:12Z</time>
      </trkpt>
      <trkpt lat="44.0759" lon="5.4278">
        <ele>814.8547363</ele>
        <time>2015-11-01T07:51:19Z</time>
      </trkpt>
      <trkpt lat="44.07593" lon="5.42766">
        <ele>815.3354492</ele>
        <time>2015-11-01T07:51:21Z</time>
      </trkpt>
      <trkpt lat="44.07606" lon="5.42747">
        <ele>815.3354492</ele>
        <time>2015-11-01T07:51:25Z</time>
      </trkpt>
      <trkpt lat="44.07647" lon="5.42707">
        <ele>812.451416</ele>
        <time>2015-11-01T07:51:34Z</time>
      </trkpt>
      <trkpt lat="44.07676" lon="5.4268">
        <ele>811.9707031</ele>
        <time>2015-11-01T07:51:41Z</time>
      </trkpt>
      <trkpt lat="44.07699" lon="5.42629">
        <ele>809.5673828</ele>
        <time>2015-11-01T07:51:51Z</time>
      </trkpt>
      <trkpt lat="44.07706" lon="5.42609">
        <ele>809.0866699</ele>
        <time>2015-11-01T07:51:54Z</time>
      </trkpt>
      <trkpt lat="44.07717" lon="5.4259">
        <ele>806.6833496</ele>
        <time>2015-11-01T07:51:57Z</time>
      </trkpt>
      <trkpt lat="44.07734" lon="5.42532">
        <ele>799.9543457</ele>
        <time>2015-11-01T07:52:04Z</time>
      </trkpt>
      <trkpt lat="44.07742" lon="5.42507">
        <ele>797.5510254</ele>
        <time>2015-11-01T07:52:07Z</time>
      </trkpt>
      <trkpt lat="44.07751" lon="5.42444">
        <ele>795.1474609</ele>
        <time>2015-11-01T07:52:16Z</time>
      </trkpt>
      <trkpt lat="44.07759" lon="5.42402">
        <ele>792.2636719</ele>
        <time>2015-11-01T07:52:22Z</time>
      </trkpt>
      <trkpt lat="44.07766" lon="5.42377">
        <ele>790.3410645</ele>
        <time>2015-11-01T07:52:25Z</time>
      </trkpt>
      <trkpt lat="44.0777" lon="5.42363">
        <ele>791.3022461</ele>
        <time>2015-11-01T07:52:27Z</time>
      </trkpt>
      <trkpt lat="44.07783" lon="5.42326">
        <ele>795.1474609</ele>
        <time>2015-11-01T07:52:36Z</time>
      </trkpt>
      <trkpt lat="44.07784" lon="5.42318">
        <ele>795.1474609</ele>
        <time>2015-11-01T07:52:44Z</time>
      </trkpt>
      <trkpt lat="44.07788" lon="5.42307">
        <ele>795.6281738</ele>
        <time>2015-11-01T07:52:54Z</time>
      </trkpt>
      <trkpt lat="44.07791" lon="5.42293">
        <ele>797.5510254</ele>
        <time>2015-11-01T07:53:01Z</time>
      </trkpt>
      <trkpt lat="44.07793" lon="5.42283">
        <ele>797.5510254</ele>
        <time>2015-11-01T07:53:12Z</time>
      </trkpt>
      <trkpt lat="44.07803" lon="5.42251">
        <ele>800.4350586</ele>
        <time>2015-11-01T07:53:22Z</time>
      </trkpt>
      <trkpt lat="44.07816" lon="5.42226">
        <ele>801.3962402</ele>
        <time>2015-11-01T07:53:30Z</time>
      </trkpt>
      <trkpt lat="44.07823" lon="5.42216">
        <ele>800.9155273</ele>
        <time>2015-11-01T07:53:34Z</time>
      </trkpt>
      <trkpt lat="44.07832" lon="5.4221">
        <ele>800.4350586</ele>
        <time>2015-11-01T07:53:37Z</time>
      </trkpt>
      <trkpt lat="44.07849" lon="5.42205">
        <ele>800.4350586</ele>
        <time>2015-11-01T07:53:41Z</time>
      </trkpt>
      <trkpt lat="44.07881" lon="5.42187">
        <ele>800.9155273</ele>
        <time>2015-11-01T07:53:49Z</time>
      </trkpt>
      <trkpt lat="44.07914" lon="5.42156">
        <ele>799.9543457</ele>
        <time>2015-11-01T07:53:57Z</time>
      </trkpt>
      <trkpt lat="44.07934" lon="5.42138">
        <ele>798.512207</ele>
        <time>2015-11-01T07:54:01Z</time>
      </trkpt>
      <trkpt lat="44.07957" lon="5.421">
        <ele>797.0703125</ele>
        <time>2015-11-01T07:54:08Z</time>
      </trkpt>
      <trkpt lat="44.07989" lon="5.4204">
        <ele>792.7443848</ele>
        <time>2015-11-01T07:54:16Z</time>
      </trkpt>
      <trkpt lat="44.08009" lon="5.42002">
        <ele>791.782959</ele>
        <time>2015-11-01T07:54:21Z</time>
      </trkpt>
      <trkpt lat="44.0804" lon="5.4194">
        <ele>790.3410645</ele>
        <time>2015-11-01T07:54:29Z</time>
      </trkpt>
      <trkpt lat="44.0806" lon="5.41903">
        <ele>790.3410645</ele>
        <time>2015-11-01T07:54:37Z</time>
      </trkpt>
      <trkpt lat="44.08092" lon="5.41866">
        <ele>787.9377441</ele>
        <time>2015-11-01T07:54:50Z</time>
      </trkpt>
      <trkpt lat="44.08119" lon="5.41832">
        <ele>790.3410645</ele>
        <time>2015-11-01T07:55:03Z</time>
      </trkpt>
      <trkpt lat="44.08145" lon="5.41808">
        <ele>793.7055664</ele>
        <time>2015-11-01T07:55:14Z</time>
      </trkpt>
      <trkpt lat="44.08177" lon="5.41785">
        <ele>794.1862793</ele>
        <time>2015-11-01T07:55:25Z</time>
      </trkpt>
      <trkpt lat="44.0822" lon="5.41754">
        <ele>797.0703125</ele>
        <time>2015-11-01T07:55:38Z</time>
      </trkpt>
      <trkpt lat="44.0825" lon="5.41734">
        <ele>792.2636719</ele>
        <time>2015-11-01T07:55:46Z</time>
      </trkpt>
      <trkpt lat="44.08274" lon="5.41716">
        <ele>791.782959</ele>
        <time>2015-11-01T07:55:52Z</time>
      </trkpt>
      <trkpt lat="44.08312" lon="5.41681">
        <ele>789.8603516</ele>
        <time>2015-11-01T07:56:02Z</time>
      </trkpt>
      <trkpt lat="44.08355" lon="5.41643">
        <ele>789.3796387</ele>
        <time>2015-11-01T07:56:13Z</time>
      </trkpt>
      <trkpt lat="44.08369" lon="5.41623">
        <ele>788.8991699</ele>
        <time>2015-11-01T07:56:18Z</time>
      </trkpt>
      <trkpt lat="44.08397" lon="5.41584">
        <ele>786.4958496</ele>
        <time>2015-11-01T07:56:26Z</time>
      </trkpt>
      <trkpt lat="44.08399" lon="5.4158">
        <ele>786.0151367</ele>
        <time>2015-11-01T07:56:27Z</time>
      </trkpt>
      <trkpt lat="44.08412" lon="5.41559">
        <ele>785.0539551</ele>
        <time>2015-11-01T07:56:31Z</time>
      </trkpt>
      <trkpt lat="44.0842" lon="5.41548">
        <ele>785.0539551</ele>
        <time>2015-11-01T07:56:33Z</time>
      </trkpt>
      <trkpt lat="44.08431" lon="5.41529">
        <ele>783.6118164</ele>
        <time>2015-11-01T07:56:36Z</time>
      </trkpt>
      <trkpt lat="44.08459" lon="5.41481">
        <ele>780.2473145</ele>
        <time>2015-11-01T07:56:43Z</time>
      </trkpt>
      <trkpt lat="44.08478" lon="5.41445">
        <ele>777.84375</ele>
        <time>2015-11-01T07:56:50Z</time>
      </trkpt>
      <trkpt lat="44.08477" lon="5.41438">
        <ele>776.8825684</ele>
        <time>2015-11-01T07:57:04Z</time>
      </trkpt>
      <trkpt lat="44.08474" lon="5.41438">
        <ele>776.8825684</ele>
        <time>2015-11-01T07:57:13Z</time>
      </trkpt>
      <trkpt lat="44.08472" lon="5.4144">
        <ele>776.8825684</ele>
        <time>2015-11-01T07:57:18Z</time>
      </trkpt>
      <trkpt lat="44.08455" lon="5.41443">
        <ele>780.7280273</ele>
        <time>2015-11-01T07:57:28Z</time>
      </trkpt>
      <trkpt lat="44.0844" lon="5.41445">
        <ele>782.6506348</ele>
        <time>2015-11-01T07:57:37Z</time>
      </trkpt>
      <trkpt lat="44.08439" lon="5.41446">
        <ele>783.6118164</ele>
        <time>2015-11-01T07:57:38Z</time>
      </trkpt>
      <trkpt lat="44.08435" lon="5.41447">
        <ele>783.6118164</ele>
        <time>2015-11-01T07:57:40Z</time>
      </trkpt>
      <trkpt lat="44.08424" lon="5.41453">
        <ele>784.0925293</ele>
        <time>2015-11-01T07:57:47Z</time>
      </trkpt>
      <trkpt lat="44.08406" lon="5.4146">
        <ele>786.0151367</ele>
        <time>2015-11-01T07:57:58Z</time>
      </trkpt>
      <trkpt lat="44.08387" lon="5.41469">
        <ele>787.4570313</ele>
        <time>2015-11-01T07:58:08Z</time>
      </trkpt>
      <trkpt lat="44.08369" lon="5.41476">
        <ele>787.4570313</ele>
        <time>2015-11-01T07:58:20Z</time>
      </trkpt>
      <trkpt lat="44.08352" lon="5.41483">
        <ele>787.9377441</ele>
        <time>2015-11-01T07:58:30Z</time>
      </trkpt>
      <trkpt lat="44.08334" lon="5.41493">
        <ele>791.3022461</ele>
        <time>2015-11-01T07:58:42Z</time>
      </trkpt>
      <trkpt lat="44.08314" lon="5.41501">
        <ele>791.782959</ele>
        <time>2015-11-01T07:58:53Z</time>
      </trkpt>
      <trkpt lat="44.08298" lon="5.41509">
        <ele>792.2636719</ele>
        <time>2015-11-01T07:59:02Z</time>
      </trkpt>
      <trkpt lat="44.08276" lon="5.41516">
        <ele>792.7443848</ele>
        <time>2015-11-01T07:59:13Z</time>
      </trkpt>
      <trkpt lat="44.08244" lon="5.41525">
        <ele>794.666748</ele>
        <time>2015-11-01T07:59:26Z</time>
      </trkpt>
      <trkpt lat="44.08185" lon="5.41537">
        <ele>790.8215332</ele>
        <time>2015-11-01T07:59:44Z</time>
      </trkpt>
      <trkpt lat="44.0815" lon="5.41539">
        <ele>791.3022461</ele>
        <time>2015-11-01T07:59:54Z</time>
      </trkpt>
      <trkpt lat="44.08153" lon="5.41524">
        <ele>790.3410645</ele>
        <time>2015-11-01T07:59:58Z</time>
      </trkpt>
      <trkpt lat="44.08159" lon="5.41517">
        <ele>790.8215332</ele>
        <time>2015-11-01T08:00:00Z</time>
      </trkpt>
      <trkpt lat="44.08182" lon="5.41484">
        <ele>791.3022461</ele>
        <time>2015-11-01T08:00:08Z</time>
      </trkpt>
      <trkpt lat="44.08193" lon="5.41471">
        <ele>790.8215332</ele>
        <time>2015-11-01T08:00:11Z</time>
      </trkpt>
      <trkpt lat="44.08244" lon="5.41386">
        <ele>786.0151367</ele>
        <time>2015-11-01T08:00:24Z</time>
      </trkpt>
      <trkpt lat="44.08276" lon="5.41273">
        <ele>783.1311035</ele>
        <time>2015-11-01T08:00:37Z</time>
      </trkpt>
      <trkpt lat="44.08309" lon="5.41197">
        <ele>778.8051758</ele>
        <time>2015-11-01T08:00:45Z</time>
      </trkpt>
      <trkpt lat="44.08314" lon="5.41189">
        <ele>777.84375</ele>
        <time>2015-11-01T08:00:46Z</time>
      </trkpt>
      <trkpt lat="44.08316" lon="5.41173">
        <ele>776.8825684</ele>
        <time>2015-11-01T08:00:51Z</time>
      </trkpt>
      <trkpt lat="44.08315" lon="5.41176">
        <ele>776.4018555</ele>
        <time>2015-11-01T08:01:04Z</time>
      </trkpt>
      <trkpt lat="44.08314" lon="5.41176">
        <ele>776.4018555</ele>
        <time>2015-11-01T08:01:16Z</time>
      </trkpt>
      <trkpt lat="44.08286" lon="5.41204">
        <ele>775.9211426</ele>
        <time>2015-11-01T08:01:30Z</time>
      </trkpt>
      <trkpt lat="44.08258" lon="5.41228">
        <ele>773.0373535</ele>
        <time>2015-11-01T08:01:39Z</time>
      </trkpt>
      <trkpt lat="44.08227" lon="5.4125">
        <ele>771.1147461</ele>
        <time>2015-11-01T08:01:48Z</time>
      </trkpt>
      <trkpt lat="44.0822" lon="5.41256">
        <ele>770.6340332</ele>
        <time>2015-11-01T08:01:50Z</time>
      </trkpt>
      <trkpt lat="44.08205" lon="5.41276">
        <ele>769.6728516</ele>
        <time>2015-11-01T08:01:55Z</time>
      </trkpt>
      <trkpt lat="44.08196" lon="5.41292">
        <ele>767.2695313</ele>
        <time>2015-11-01T08:01:58Z</time>
      </trkpt>
      <trkpt lat="44.08142" lon="5.41343">
        <ele>759.5788574</ele>
        <time>2015-11-01T08:02:10Z</time>
      </trkpt>
      <trkpt lat="44.08109" lon="5.4137">
        <ele>761.020752</ele>
        <time>2015-11-01T08:02:16Z</time>
      </trkpt>
      <trkpt lat="44.08081" lon="5.41389">
        <ele>763.4240723</ele>
        <time>2015-11-01T08:02:24Z</time>
      </trkpt>
      <trkpt lat="44.08068" lon="5.41394">
        <ele>762.4626465</ele>
        <time>2015-11-01T08:02:27Z</time>
      </trkpt>
      <trkpt lat="44.08011" lon="5.41435">
        <ele>760.0593262</ele>
        <time>2015-11-01T08:02:38Z</time>
      </trkpt>
      <trkpt lat="44.07966" lon="5.41462">
        <ele>754.291748</ele>
        <time>2015-11-01T08:02:48Z</time>
      </trkpt>
      <trkpt lat="44.07955" lon="5.41466">
        <ele>753.3303223</ele>
        <time>2015-11-01T08:02:50Z</time>
      </trkpt>
      <trkpt lat="44.07925" lon="5.41488">
        <ele>750.927002</ele>
        <time>2015-11-01T08:02:57Z</time>
      </trkpt>
      <trkpt lat="44.07895" lon="5.41508">
        <ele>745.6396484</ele>
        <time>2015-11-01T08:03:02Z</time>
      </trkpt>
      <trkpt lat="44.07876" lon="5.41509">
        <ele>743.717041</ele>
        <time>2015-11-01T08:03:06Z</time>
      </trkpt>
      <trkpt lat="44.07863" lon="5.41516">
        <ele>741.7944336</ele>
        <time>2015-11-01T08:03:10Z</time>
      </trkpt>
      <trkpt lat="44.07848" lon="5.4154">
        <ele>738.9106445</ele>
        <time>2015-11-01T08:03:17Z</time>
      </trkpt>
      <trkpt lat="44.07833" lon="5.41549">
        <ele>737.4685059</ele>
        <time>2015-11-01T08:03:21Z</time>
      </trkpt>
      <trkpt lat="44.07801" lon="5.41564">
        <ele>741.7944336</ele>
        <time>2015-11-01T08:03:30Z</time>
      </trkpt>
      <trkpt lat="44.07785" lon="5.41572">
        <ele>742.2751465</ele>
        <time>2015-11-01T08:03:38Z</time>
      </trkpt>
      <trkpt lat="44.0777" lon="5.41578">
        <ele>742.7558594</ele>
        <time>2015-11-01T08:03:44Z</time>
      </trkpt>
      <trkpt lat="44.0776" lon="5.41585">
        <ele>743.2363281</ele>
        <time>2015-11-01T08:03:48Z</time>
      </trkpt>
      <trkpt lat="44.07738" lon="5.41596">
        <ele>744.1977539</ele>
        <time>2015-11-01T08:03:56Z</time>
      </trkpt>
      <trkpt lat="44.07713" lon="5.41614">
        <ele>747.081543</ele>
        <time>2015-11-01T08:04:08Z</time>
      </trkpt>
      <trkpt lat="44.07697" lon="5.41624">
        <ele>746.1203613</ele>
        <time>2015-11-01T08:04:17Z</time>
      </trkpt>
      <trkpt lat="44.07688" lon="5.41637">
        <ele>744.1977539</ele>
        <time>2015-11-01T08:04:27Z</time>
      </trkpt>
      <trkpt lat="44.0768" lon="5.41655">
        <ele>743.717041</ele>
        <time>2015-11-01T08:04:37Z</time>
      </trkpt>
      <trkpt lat="44.07679" lon="5.41675">
        <ele>744.6782227</ele>
        <time>2015-11-01T08:04:44Z</time>
      </trkpt>
      <trkpt lat="44.07682" lon="5.41677">
        <ele>744.6782227</ele>
        <time>2015-11-01T08:04:54Z</time>
      </trkpt>
      <trkpt lat="44.07684" lon="5.41677">
        <ele>745.6396484</ele>
        <time>2015-11-01T08:05:04Z</time>
      </trkpt>
      <trkpt lat="44.07686" lon="5.41684">
        <ele>746.6010742</ele>
        <time>2015-11-01T08:05:15Z</time>
      </trkpt>
      <trkpt lat="44.07682" lon="5.41691">
        <ele>746.6010742</ele>
        <time>2015-11-01T08:05:19Z</time>
      </trkpt>
      <trkpt lat="44.07652" lon="5.41714">
        <ele>748.0432129</ele>
        <time>2015-11-01T08:05:34Z</time>
      </trkpt>
      <trkpt lat="44.07641" lon="5.41713">
        <ele>748.5236816</ele>
        <time>2015-11-01T08:05:39Z</time>
      </trkpt>
      <trkpt lat="44.07617" lon="5.41731">
        <ele>750.927002</ele>
        <time>2015-11-01T08:05:50Z</time>
      </trkpt>
      <trkpt lat="44.07616" lon="5.41733">
        <ele>750.4465332</ele>
        <time>2015-11-01T08:05:51Z</time>
      </trkpt>
      <trkpt lat="44.07604" lon="5.41742">
        <ele>749.9658203</ele>
        <time>2015-11-01T08:05:58Z</time>
      </trkpt>
      <trkpt lat="44.07604" lon="5.41749">
        <ele>749.9658203</ele>
        <time>2015-11-01T08:06:02Z</time>
      </trkpt>
      <trkpt lat="44.07609" lon="5.41755">
        <ele>749.4851074</ele>
        <time>2015-11-01T08:06:04Z</time>
      </trkpt>
      <trkpt lat="44.0761" lon="5.41764">
        <ele>749.4851074</ele>
        <time>2015-11-01T08:06:08Z</time>
      </trkpt>
      <trkpt lat="44.07601" lon="5.41771">
        <ele>749.0043945</ele>
        <time>2015-11-01T08:06:13Z</time>
      </trkpt>
      <trkpt lat="44.07597" lon="5.41771">
        <ele>749.4851074</ele>
        <time>2015-11-01T08:06:15Z</time>
      </trkpt>
      <trkpt lat="44.07585" lon="5.4178">
        <ele>749.9658203</ele>
        <time>2015-11-01T08:06:21Z</time>
      </trkpt>
      <trkpt lat="44.07585" lon="5.41786">
        <ele>749.4851074</ele>
        <time>2015-11-01T08:06:23Z</time>
      </trkpt>
      <trkpt lat="44.07581" lon="5.41798">
        <ele>749.9658203</ele>
        <time>2015-11-01T08:06:27Z</time>
      </trkpt>
      <trkpt lat="44.07572" lon="5.41806">
        <ele>751.4077148</ele>
        <time>2015-11-01T08:06:32Z</time>
      </trkpt>
      <trkpt lat="44.07561" lon="5.41819">
        <ele>751.8884277</ele>
        <time>2015-11-01T08:06:40Z</time>
      </trkpt>
      <trkpt lat="44.07551" lon="5.41814">
        <ele>752.3688965</ele>
        <time>2015-11-01T08:06:46Z</time>
      </trkpt>
      <trkpt lat="44.07547" lon="5.41818">
        <ele>751.8884277</ele>
        <time>2015-11-01T08:06:48Z</time>
      </trkpt>
      <trkpt lat="44.07527" lon="5.4182">
        <ele>752.8496094</ele>
        <time>2015-11-01T08:06:56Z</time>
      </trkpt>
      <trkpt lat="44.07507" lon="5.41831">
        <ele>754.7722168</ele>
        <time>2015-11-01T08:07:06Z</time>
      </trkpt>
      <trkpt lat="44.07505" lon="5.41832">
        <ele>754.7722168</ele>
        <time>2015-11-01T08:07:07Z</time>
      </trkpt>
      <trkpt lat="44.07499" lon="5.4184">
        <ele>754.7722168</ele>
        <time>2015-11-01T08:07:10Z</time>
      </trkpt>
      <trkpt lat="44.07498" lon="5.41848">
        <ele>755.7336426</ele>
        <time>2015-11-01T08:07:18Z</time>
      </trkpt>
      <trkpt lat="44.07495" lon="5.41853">
        <ele>756.2141113</ele>
        <time>2015-11-01T08:07:28Z</time>
      </trkpt>
      <trkpt lat="44.07495" lon="5.41863">
        <ele>756.6948242</ele>
        <time>2015-11-01T08:07:42Z</time>
      </trkpt>
      <trkpt lat="44.07495" lon="5.41871">
        <ele>757.65625</ele>
        <time>2015-11-01T08:07:53Z</time>
      </trkpt>
      <trkpt lat="44.07494" lon="5.41878">
        <ele>758.1369629</ele>
        <time>2015-11-01T08:08:04Z</time>
      </trkpt>
      <trkpt lat="44.07493" lon="5.41878">
        <ele>758.1369629</ele>
        <time>2015-11-01T08:08:06Z</time>
      </trkpt>
      <trkpt lat="44.0748" lon="5.41884">
        <ele>761.5014648</ele>
        <time>2015-11-01T08:08:22Z</time>
      </trkpt>
      <trkpt lat="44.07465" lon="5.41894">
        <ele>762.4626465</ele>
        <time>2015-11-01T08:08:31Z</time>
      </trkpt>
      <trkpt lat="44.07436" lon="5.41913">
        <ele>763.4240723</ele>
        <time>2015-11-01T08:08:43Z</time>
      </trkpt>
      <trkpt lat="44.07397" lon="5.41941">
        <ele>764.385498</ele>
        <time>2015-11-01T08:08:56Z</time>
      </trkpt>
      <trkpt lat="44.0734" lon="5.41982">
        <ele>764.385498</ele>
        <time>2015-11-01T08:09:14Z</time>
      </trkpt>
      <trkpt lat="44.07291" lon="5.4202">
        <ele>764.8662109</ele>
        <time>2015-11-01T08:09:30Z</time>
      </trkpt>
      <trkpt lat="44.07245" lon="5.42052">
        <ele>767.2695313</ele>
        <time>2015-11-01T08:09:47Z</time>
      </trkpt>
      <trkpt lat="44.07212" lon="5.42059">
        <ele>773.5180664</ele>
        <time>2015-11-01T08:10:00Z</time>
      </trkpt>
      <trkpt lat="44.07193" lon="5.42045">
        <ele>780.2473145</ele>
        <time>2015-11-01T08:10:13Z</time>
      </trkpt>
      <trkpt lat="44.07176" lon="5.42027">
        <ele>782.1699219</ele>
        <time>2015-11-01T08:10:26Z</time>
      </trkpt>
      <trkpt lat="44.07166" lon="5.42002">
        <ele>785.5344238</ele>
        <time>2015-11-01T08:10:42Z</time>
      </trkpt>
      <trkpt lat="44.07155" lon="5.41984">
        <ele>786.9763184</ele>
        <time>2015-11-01T08:10:55Z</time>
      </trkpt>
      <trkpt lat="44.07152" lon="5.41976">
        <ele>788.418457</ele>
        <time>2015-11-01T08:11:00Z</time>
      </trkpt>
      <trkpt lat="44.07146" lon="5.41958">
        <ele>792.2636719</ele>
        <time>2015-11-01T08:11:12Z</time>
      </trkpt>
      <trkpt lat="44.0714" lon="5.41942">
        <ele>794.1862793</ele>
        <time>2015-11-01T08:11:23Z</time>
      </trkpt>
      <trkpt lat="44.07136" lon="5.41932">
        <ele>794.666748</ele>
        <time>2015-11-01T08:11:41Z</time>
      </trkpt>
      <trkpt lat="44.07122" lon="5.41904">
        <ele>798.0317383</ele>
        <time>2015-11-01T08:11:57Z</time>
      </trkpt>
      <trkpt lat="44.0711" lon="5.4188">
        <ele>803.3188477</ele>
        <time>2015-11-01T08:12:13Z</time>
      </trkpt>
      <trkpt lat="44.07104" lon="5.41871">
        <ele>808.605957</ele>
        <time>2015-11-01T08:12:21Z</time>
      </trkpt>
      <trkpt lat="44.07093" lon="5.4184">
        <ele>810.0478516</ele>
        <time>2015-11-01T08:12:41Z</time>
      </trkpt>
      <trkpt lat="44.07084" lon="5.4182">
        <ele>813.8933105</ele>
        <time>2015-11-01T08:12:54Z</time>
      </trkpt>
      <trkpt lat="44.07082" lon="5.41818">
        <ele>814.8547363</ele>
        <time>2015-11-01T08:13:04Z</time>
      </trkpt>
      <trkpt lat="44.07081" lon="5.41816">
        <ele>814.8547363</ele>
        <time>2015-11-01T08:13:08Z</time>
      </trkpt>
      <trkpt lat="44.07078" lon="5.41812">
        <ele>814.8547363</ele>
        <time>2015-11-01T08:13:19Z</time>
      </trkpt>
      <trkpt lat="44.07075" lon="5.41794">
        <ele>817.7385254</ele>
        <time>2015-11-01T08:13:29Z</time>
      </trkpt>
      <trkpt lat="44.07066" lon="5.41765">
        <ele>823.5065918</ele>
        <time>2015-11-01T08:13:43Z</time>
      </trkpt>
      <trkpt lat="44.07066" lon="5.41764">
        <ele>823.9870605</ele>
        <time>2015-11-01T08:13:44Z</time>
      </trkpt>
      <trkpt lat="44.07059" lon="5.41739">
        <ele>830.2358398</ele>
        <time>2015-11-01T08:13:57Z</time>
      </trkpt>
      <trkpt lat="44.07056" lon="5.41729">
        <ele>832.1584473</ele>
        <time>2015-11-01T08:14:02Z</time>
      </trkpt>
      <trkpt lat="44.07053" lon="5.41721">
        <ele>835.0424805</ele>
        <time>2015-11-01T08:14:07Z</time>
      </trkpt>
      <trkpt lat="44.07048" lon="5.41703">
        <ele>842.2521973</ele>
        <time>2015-11-01T08:14:18Z</time>
      </trkpt>
      <trkpt lat="44.07046" lon="5.41696">
        <ele>843.6940918</ele>
        <time>2015-11-01T08:14:30Z</time>
      </trkpt>
      <trkpt lat="44.07037" lon="5.41667">
        <ele>847.5395508</ele>
        <time>2015-11-01T08:14:45Z</time>
      </trkpt>
      <trkpt lat="44.07036" lon="5.41664">
        <ele>847.0588379</ele>
        <time>2015-11-01T08:14:47Z</time>
      </trkpt>
      <trkpt lat="44.0703" lon="5.4164">
        <ele>849.9428711</ele>
        <time>2015-11-01T08:14:59Z</time>
      </trkpt>
      <trkpt lat="44.07029" lon="5.41628">
        <ele>849.9428711</ele>
        <time>2015-11-01T08:15:05Z</time>
      </trkpt>
      <trkpt lat="44.07026" lon="5.41595">
        <ele>849.4621582</ele>
        <time>2015-11-01T08:15:21Z</time>
      </trkpt>
      <trkpt lat="44.07018" lon="5.41562">
        <ele>850.423584</ele>
        <time>2015-11-01T08:15:36Z</time>
      </trkpt>
      <trkpt lat="44.07013" lon="5.41526">
        <ele>849.4621582</ele>
        <time>2015-11-01T08:15:53Z</time>
      </trkpt>
      <trkpt lat="44.07009" lon="5.41502">
        <ele>850.423584</ele>
        <time>2015-11-01T08:16:05Z</time>
      </trkpt>
      <trkpt lat="44.07006" lon="5.41485">
        <ele>850.9040527</ele>
        <time>2015-11-01T08:16:14Z</time>
      </trkpt>
      <trkpt lat="44.07001" lon="5.41463">
        <ele>849.9428711</ele>
        <time>2015-11-01T08:16:24Z</time>
      </trkpt>
      <trkpt lat="44.06989" lon="5.41438">
        <ele>851.3847656</ele>
        <time>2015-11-01T08:16:38Z</time>
      </trkpt>
      <trkpt lat="44.06974" lon="5.41429">
        <ele>852.8266602</ele>
        <time>2015-11-01T08:16:51Z</time>
      </trkpt>
      <trkpt lat="44.06952" lon="5.41421">
        <ele>856.671875</ele>
        <time>2015-11-01T08:17:08Z</time>
      </trkpt>
      <trkpt lat="44.06942" lon="5.41419">
        <ele>858.5944824</ele>
        <time>2015-11-01T08:17:22Z</time>
      </trkpt>
      <trkpt lat="44.06933" lon="5.41417">
        <ele>859.5559082</ele>
        <time>2015-11-01T08:17:34Z</time>
      </trkpt>
      <trkpt lat="44.06929" lon="5.41416">
        <ele>860.517334</ele>
        <time>2015-11-01T08:17:46Z</time>
      </trkpt>
      <trkpt lat="44.06913" lon="5.41409">
        <ele>864.3625488</ele>
        <time>2015-11-01T08:17:58Z</time>
      </trkpt>
      <trkpt lat="44.06897" lon="5.41401">
        <ele>868.6884766</ele>
        <time>2015-11-01T08:18:11Z</time>
      </trkpt>
      <trkpt lat="44.06881" lon="5.41381">
        <ele>867.7270508</ele>
        <time>2015-11-01T08:18:24Z</time>
      </trkpt>
      <trkpt lat="44.06874" lon="5.41373">
        <ele>866.7658691</ele>
        <time>2015-11-01T08:18:29Z</time>
      </trkpt>
      <trkpt lat="44.06855" lon="5.41356">
        <ele>865.8046875</ele>
        <time>2015-11-01T08:18:46Z</time>
      </trkpt>
      <trkpt lat="44.06841" lon="5.41347">
        <ele>866.2851563</ele>
        <time>2015-11-01T08:18:58Z</time>
      </trkpt>
      <trkpt lat="44.0684" lon="5.41346">
        <ele>866.7658691</ele>
        <time>2015-11-01T08:18:59Z</time>
      </trkpt>
      <trkpt lat="44.06838" lon="5.41345">
        <ele>866.7658691</ele>
        <time>2015-11-01T08:19:01Z</time>
      </trkpt>
      <trkpt lat="44.06822" lon="5.41335">
        <ele>868.6884766</ele>
        <time>2015-11-01T08:19:15Z</time>
      </trkpt>
      <trkpt lat="44.06806" lon="5.41321">
        <ele>868.6884766</ele>
        <time>2015-11-01T08:19:27Z</time>
      </trkpt>
      <trkpt lat="44.0679" lon="5.41305">
        <ele>869.1691895</ele>
        <time>2015-11-01T08:19:43Z</time>
      </trkpt>
      <trkpt lat="44.06786" lon="5.41301">
        <ele>870.1303711</ele>
        <time>2015-11-01T08:19:47Z</time>
      </trkpt>
      <trkpt lat="44.06767" lon="5.41279">
        <ele>868.6884766</ele>
        <time>2015-11-01T08:20:03Z</time>
      </trkpt>
      <trkpt lat="44.06759" lon="5.41264">
        <ele>868.2077637</ele>
        <time>2015-11-01T08:20:12Z</time>
      </trkpt>
      <trkpt lat="44.06759" lon="5.4126">
        <ele>865.8046875</ele>
        <time>2015-11-01T08:20:24Z</time>
      </trkpt>
      <trkpt lat="44.06758" lon="5.41259">
        <ele>864.8432617</ele>
        <time>2015-11-01T08:22:40Z</time>
      </trkpt>
      <trkpt lat="44.06767" lon="5.41251">
        <ele>866.2851563</ele>
        <time>2015-11-01T08:22:46Z</time>
      </trkpt>
      <trkpt lat="44.06795" lon="5.41251">
        <ele>866.2851563</ele>
        <time>2015-11-01T08:22:58Z</time>
      </trkpt>
      <trkpt lat="44.06831" lon="5.41268">
        <ele>868.6884766</ele>
        <time>2015-11-01T08:23:08Z</time>
      </trkpt>
      <trkpt lat="44.06868" lon="5.41279">
        <ele>875.4174805</ele>
        <time>2015-11-01T08:23:19Z</time>
      </trkpt>
      <trkpt lat="44.06912" lon="5.41267">
        <ele>878.7824707</ele>
        <time>2015-11-01T08:23:32Z</time>
      </trkpt>
      <trkpt lat="44.06933" lon="5.41247">
        <ele>873.9755859</ele>
        <time>2015-11-01T08:23:40Z</time>
      </trkpt>
      <trkpt lat="44.0696" lon="5.41212">
        <ele>873.0144043</ele>
        <time>2015-11-01T08:23:51Z</time>
      </trkpt>
      <trkpt lat="44.06979" lon="5.41193">
        <ele>872.0529785</ele>
        <time>2015-11-01T08:23:57Z</time>
      </trkpt>
      <trkpt lat="44.07008" lon="5.41159">
        <ele>871.5722656</ele>
        <time>2015-11-01T08:24:08Z</time>
      </trkpt>
      <trkpt lat="44.07023" lon="5.41144">
        <ele>873.0144043</ele>
        <time>2015-11-01T08:24:18Z</time>
      </trkpt>
      <trkpt lat="44.07043" lon="5.41118">
        <ele>874.4562988</ele>
        <time>2015-11-01T08:24:33Z</time>
      </trkpt>
      <trkpt lat="44.07053" lon="5.41103">
        <ele>874.9370117</ele>
        <time>2015-11-01T08:24:40Z</time>
      </trkpt>
      <trkpt lat="44.07037" lon="5.41068">
        <ele>876.8598633</ele>
        <time>2015-11-01T08:24:52Z</time>
      </trkpt>
      <trkpt lat="44.07012" lon="5.41053">
        <ele>878.7824707</ele>
        <time>2015-11-01T08:25:03Z</time>
      </trkpt>
      <trkpt lat="44.06996" lon="5.41049">
        <ele>879.7436523</ele>
        <time>2015-11-01T08:25:13Z</time>
      </trkpt>
      <trkpt lat="44.06978" lon="5.41045">
        <ele>879.7436523</ele>
        <time>2015-11-01T08:25:24Z</time>
      </trkpt>
      <trkpt lat="44.06952" lon="5.41037">
        <ele>876.8598633</ele>
        <time>2015-11-01T08:25:38Z</time>
      </trkpt>
      <trkpt lat="44.06936" lon="5.41028">
        <ele>873.4951172</ele>
        <time>2015-11-01T08:25:48Z</time>
      </trkpt>
      <trkpt lat="44.0692" lon="5.4102">
        <ele>874.4562988</ele>
        <time>2015-11-01T08:25:58Z</time>
      </trkpt>
      <trkpt lat="44.06905" lon="5.41009">
        <ele>878.3017578</ele>
        <time>2015-11-01T08:26:10Z</time>
      </trkpt>
      <trkpt lat="44.06892" lon="5.40998">
        <ele>882.6276855</ele>
        <time>2015-11-01T08:26:24Z</time>
      </trkpt>
      <trkpt lat="44.06885" lon="5.4099">
        <ele>885.9921875</ele>
        <time>2015-11-01T08:26:37Z</time>
      </trkpt>
      <trkpt lat="44.06878" lon="5.40985">
        <ele>886.4729004</ele>
        <time>2015-11-01T08:26:57Z</time>
      </trkpt>
      <trkpt lat="44.06868" lon="5.40977">
        <ele>885.5114746</ele>
        <time>2015-11-01T08:27:12Z</time>
      </trkpt>
      <trkpt lat="44.06856" lon="5.40969">
        <ele>888.3955078</ele>
        <time>2015-11-01T08:27:30Z</time>
      </trkpt>
      <trkpt lat="44.0685" lon="5.40964">
        <ele>894.1635742</ele>
        <time>2015-11-01T08:27:44Z</time>
      </trkpt>
      <trkpt lat="44.0684" lon="5.40957">
        <ele>896.5668945</ele>
        <time>2015-11-01T08:28:08Z</time>
      </trkpt>
      <trkpt lat="44.06834" lon="5.40954">
        <ele>897.5280762</ele>
        <time>2015-11-01T08:28:12Z</time>
      </trkpt>
      <trkpt lat="44.06817" lon="5.40949">
        <ele>897.5280762</ele>
        <time>2015-11-01T08:28:23Z</time>
      </trkpt>
      <trkpt lat="44.06809" lon="5.40948">
        <ele>898.0087891</ele>
        <time>2015-11-01T08:28:30Z</time>
      </trkpt>
      <trkpt lat="44.06807" lon="5.40948">
        <ele>898.0087891</ele>
        <time>2015-11-01T08:28:32Z</time>
      </trkpt>
      <trkpt lat="44.06791" lon="5.40944">
        <ele>897.5280762</ele>
        <time>2015-11-01T08:28:43Z</time>
      </trkpt>
      <trkpt lat="44.0679" lon="5.40944">
        <ele>897.5280762</ele>
        <time>2015-11-01T08:28:44Z</time>
      </trkpt>
      <trkpt lat="44.0677" lon="5.40941">
        <ele>896.5668945</ele>
        <time>2015-11-01T08:28:58Z</time>
      </trkpt>
      <trkpt lat="44.06768" lon="5.40941">
        <ele>896.0861816</ele>
        <time>2015-11-01T08:29:00Z</time>
      </trkpt>
      <trkpt lat="44.0676" lon="5.40945">
        <ele>897.0473633</ele>
        <time>2015-11-01T08:29:07Z</time>
      </trkpt>
      <trkpt lat="44.06742" lon="5.40942">
        <ele>898.9699707</ele>
        <time>2015-11-01T08:29:18Z</time>
      </trkpt>
      <trkpt lat="44.06723" lon="5.40937">
        <ele>900.4121094</ele>
        <time>2015-11-01T08:29:32Z</time>
      </trkpt>
      <trkpt lat="44.06709" lon="5.40933">
        <ele>903.2958984</ele>
        <time>2015-11-01T08:29:43Z</time>
      </trkpt>
      <trkpt lat="44.06692" lon="5.40923">
        <ele>905.2185059</ele>
        <time>2015-11-01T08:29:56Z</time>
      </trkpt>
      <trkpt lat="44.06667" lon="5.40915">
        <ele>911.4672852</ele>
        <time>2015-11-01T08:30:16Z</time>
      </trkpt>
      <trkpt lat="44.06665" lon="5.40914">
        <ele>911.947998</ele>
        <time>2015-11-01T08:30:18Z</time>
      </trkpt>
      <trkpt lat="44.06643" lon="5.40911">
        <ele>914.8317871</ele>
        <time>2015-11-01T08:30:34Z</time>
      </trkpt>
      <trkpt lat="44.06628" lon="5.40915">
        <ele>915.7932129</ele>
        <time>2015-11-01T08:30:45Z</time>
      </trkpt>
      <trkpt lat="44.06607" lon="5.4092">
        <ele>915.7932129</ele>
        <time>2015-11-01T08:31:01Z</time>
      </trkpt>
      <trkpt lat="44.06583" lon="5.40927">
        <ele>921.0803223</ele>
        <time>2015-11-01T08:31:18Z</time>
      </trkpt>
      <trkpt lat="44.06582" lon="5.40927">
        <ele>922.0415039</ele>
        <time>2015-11-01T08:31:19Z</time>
      </trkpt>
      <trkpt lat="44.06562" lon="5.40932">
        <ele>924.9257813</ele>
        <time>2015-11-01T08:31:32Z</time>
      </trkpt>
      <trkpt lat="44.06558" lon="5.40933">
        <ele>926.3676758</ele>
        <time>2015-11-01T08:31:36Z</time>
      </trkpt>
      <trkpt lat="44.06548" lon="5.40939">
        <ele>928.7709961</ele>
        <time>2015-11-01T08:31:44Z</time>
      </trkpt>
      <trkpt lat="44.06539" lon="5.40947">
        <ele>931.6547852</ele>
        <time>2015-11-01T08:31:53Z</time>
      </trkpt>
      <trkpt lat="44.06521" lon="5.40954">
        <ele>931.6547852</ele>
        <time>2015-11-01T08:32:06Z</time>
      </trkpt>
      <trkpt lat="44.06518" lon="5.40956">
        <ele>931.1743164</ele>
        <time>2015-11-01T08:32:09Z</time>
      </trkpt>
      <trkpt lat="44.0651" lon="5.40957">
        <ele>932.135498</ele>
        <time>2015-11-01T08:32:16Z</time>
      </trkpt>
      <trkpt lat="44.06505" lon="5.40957">
        <ele>930.6936035</ele>
        <time>2015-11-01T08:32:20Z</time>
      </trkpt>
      <trkpt lat="44.06499" lon="5.40956">
        <ele>929.7321777</ele>
        <time>2015-11-01T08:32:30Z</time>
      </trkpt>
      <trkpt lat="44.06498" lon="5.40957">
        <ele>930.2128906</ele>
        <time>2015-11-01T08:32:55Z</time>
      </trkpt>
      <trkpt lat="44.06496" lon="5.40958">
        <ele>930.6936035</ele>
        <time>2015-11-01T08:32:57Z</time>
      </trkpt>
      <trkpt lat="44.06485" lon="5.40955">
        <ele>931.1743164</ele>
        <time>2015-11-01T08:33:04Z</time>
      </trkpt>
      <trkpt lat="44.06478" lon="5.40953">
        <ele>934.5388184</ele>
        <time>2015-11-01T08:33:12Z</time>
      </trkpt>
      <trkpt lat="44.06463" lon="5.4095">
        <ele>935.0195313</ele>
        <time>2015-11-01T08:33:24Z</time>
      </trkpt>
      <trkpt lat="44.06452" lon="5.40945">
        <ele>935.9807129</ele>
        <time>2015-11-01T08:33:33Z</time>
      </trkpt>
      <trkpt lat="44.06438" lon="5.40948">
        <ele>939.3452148</ele>
        <time>2015-11-01T08:33:42Z</time>
      </trkpt>
      <trkpt lat="44.06426" lon="5.40947">
        <ele>940.7873535</ele>
        <time>2015-11-01T08:33:49Z</time>
      </trkpt>
      <trkpt lat="44.06407" lon="5.40951">
        <ele>945.5939941</ele>
        <time>2015-11-01T08:34:01Z</time>
      </trkpt>
      <trkpt lat="44.06384" lon="5.40956">
        <ele>946.074707</ele>
        <time>2015-11-01T08:34:15Z</time>
      </trkpt>
      <trkpt lat="44.06366" lon="5.40958">
        <ele>946.074707</ele>
        <time>2015-11-01T08:34:26Z</time>
      </trkpt>
      <trkpt lat="44.06353" lon="5.40969">
        <ele>946.5554199</ele>
        <time>2015-11-01T08:34:36Z</time>
      </trkpt>
      <trkpt lat="44.06344" lon="5.40988">
        <ele>947.5166016</ele>
        <time>2015-11-01T08:34:50Z</time>
      </trkpt>
      <trkpt lat="44.06344" lon="5.4099">
        <ele>947.5166016</ele>
        <time>2015-11-01T08:34:51Z</time>
      </trkpt>
      <trkpt lat="44.06335" lon="5.41003">
        <ele>946.5554199</ele>
        <time>2015-11-01T08:35:03Z</time>
      </trkpt>
      <trkpt lat="44.06331" lon="5.4102">
        <ele>949.439209</ele>
        <time>2015-11-01T08:35:17Z</time>
      </trkpt>
      <trkpt lat="44.06328" lon="5.41034">
        <ele>952.8037109</ele>
        <time>2015-11-01T08:35:30Z</time>
      </trkpt>
      <trkpt lat="44.06322" lon="5.41042">
        <ele>956.6491699</ele>
        <time>2015-11-01T08:35:44Z</time>
      </trkpt>
      <trkpt lat="44.06314" lon="5.41056">
        <ele>959.5332031</ele>
        <time>2015-11-01T08:36:01Z</time>
      </trkpt>
      <trkpt lat="44.06311" lon="5.41062">
        <ele>960.4943848</ele>
        <time>2015-11-01T08:36:06Z</time>
      </trkpt>
      <trkpt lat="44.06306" lon="5.41071">
        <ele>962.8977051</ele>
        <time>2015-11-01T08:36:14Z</time>
      </trkpt>
      <trkpt lat="44.06302" lon="5.41078">
        <ele>963.8588867</ele>
        <time>2015-11-01T08:36:20Z</time>
      </trkpt>
      <trkpt lat="44.06294" lon="5.41092">
        <ele>964.8203125</ele>
        <time>2015-11-01T08:36:31Z</time>
      </trkpt>
      <trkpt lat="44.06285" lon="5.41113">
        <ele>970.5881348</ele>
        <time>2015-11-01T08:36:43Z</time>
      </trkpt>
      <trkpt lat="44.06284" lon="5.41115">
        <ele>971.0688477</ele>
        <time>2015-11-01T08:36:44Z</time>
      </trkpt>
      <trkpt lat="44.06271" lon="5.41137">
        <ele>975.3947754</ele>
        <time>2015-11-01T08:37:00Z</time>
      </trkpt>
      <trkpt lat="44.06255" lon="5.41153">
        <ele>974.4335938</ele>
        <time>2015-11-01T08:37:17Z</time>
      </trkpt>
      <trkpt lat="44.06241" lon="5.41168">
        <ele>977.7980957</ele>
        <time>2015-11-01T08:37:31Z</time>
      </trkpt>
      <trkpt lat="44.0622" lon="5.41178">
        <ele>979.2399902</ele>
        <time>2015-11-01T08:37:47Z</time>
      </trkpt>
      <trkpt lat="44.06202" lon="5.41181">
        <ele>980.6821289</ele>
        <time>2015-11-01T08:38:01Z</time>
      </trkpt>
      <trkpt lat="44.06181" lon="5.41184">
        <ele>983.565918</ele>
        <time>2015-11-01T08:38:18Z</time>
      </trkpt>
      <trkpt lat="44.06164" lon="5.41182">
        <ele>988.8535156</ele>
        <time>2015-11-01T08:38:31Z</time>
      </trkpt>
      <trkpt lat="44.06145" lon="5.41183">
        <ele>991.2565918</ele>
        <time>2015-11-01T08:38:47Z</time>
      </trkpt>
      <trkpt lat="44.06129" lon="5.41183">
        <ele>990.7758789</ele>
        <time>2015-11-01T08:39:02Z</time>
      </trkpt>
      <trkpt lat="44.06128" lon="5.41182">
        <ele>990.7758789</ele>
        <time>2015-11-01T08:39:03Z</time>
      </trkpt>
      <trkpt lat="44.06105" lon="5.41187">
        <ele>993.6599121</ele>
        <time>2015-11-01T08:39:21Z</time>
      </trkpt>
      <trkpt lat="44.06086" lon="5.41185">
        <ele>994.6210938</ele>
        <time>2015-11-01T08:39:36Z</time>
      </trkpt>
      <trkpt lat="44.06081" lon="5.41185">
        <ele>994.140625</ele>
        <time>2015-11-01T08:39:40Z</time>
      </trkpt>
      <trkpt lat="44.06062" lon="5.4118">
        <ele>994.140625</ele>
        <time>2015-11-01T08:39:53Z</time>
      </trkpt>
      <trkpt lat="44.06056" lon="5.41183">
        <ele>993.6599121</ele>
        <time>2015-11-01T08:39:57Z</time>
      </trkpt>
      <trkpt lat="44.0604" lon="5.41185">
        <ele>995.5825195</ele>
        <time>2015-11-01T08:40:07Z</time>
      </trkpt>
      <trkpt lat="44.06036" lon="5.41181">
        <ele>996.0632324</ele>
        <time>2015-11-01T08:40:20Z</time>
      </trkpt>
      <trkpt lat="44.06037" lon="5.41182">
        <ele>997.0244141</ele>
        <time>2015-11-01T08:40:46Z</time>
      </trkpt>
      <trkpt lat="44.06036" lon="5.41182">
        <ele>997.505127</ele>
        <time>2015-11-01T08:42:43Z</time>
      </trkpt>
      <trkpt lat="44.06026" lon="5.41184">
        <ele>997.0244141</ele>
        <time>2015-11-01T08:42:50Z</time>
      </trkpt>
      <trkpt lat="44.06012" lon="5.4119">
        <ele>997.0244141</ele>
        <time>2015-11-01T08:42:57Z</time>
      </trkpt>
      <trkpt lat="44.05988" lon="5.41195">
        <ele>999.9084473</ele>
        <time>2015-11-01T08:43:08Z</time>
      </trkpt>
      <trkpt lat="44.05955" lon="5.41211">
        <ele>1003.7536621</ele>
        <time>2015-11-01T08:43:25Z</time>
      </trkpt>
      <trkpt lat="44.05929" lon="5.41228">
        <ele>1005.6765137</ele>
        <time>2015-11-01T08:43:40Z</time>
      </trkpt>
      <trkpt lat="44.05903" lon="5.41239">
        <ele>1007.5991211</ele>
        <time>2015-11-01T08:43:53Z</time>
      </trkpt>
      <trkpt lat="44.05871" lon="5.41235">
        <ele>1011.9250488</ele>
        <time>2015-11-01T08:44:09Z</time>
      </trkpt>
      <trkpt lat="44.05846" lon="5.41228">
        <ele>1009.0410156</ele>
        <time>2015-11-01T08:44:21Z</time>
      </trkpt>
      <trkpt lat="44.05812" lon="5.41228">
        <ele>1009.5217285</ele>
        <time>2015-11-01T08:44:37Z</time>
      </trkpt>
      <trkpt lat="44.05776" lon="5.41223">
        <ele>1014.328125</ele>
        <time>2015-11-01T08:44:54Z</time>
      </trkpt>
      <trkpt lat="44.05739" lon="5.41221">
        <ele>1017.692627</ele>
        <time>2015-11-01T08:45:10Z</time>
      </trkpt>
      <trkpt lat="44.05713" lon="5.41212">
        <ele>1015.2895508</ele>
        <time>2015-11-01T08:45:22Z</time>
      </trkpt>
      <trkpt lat="44.05677" lon="5.412">
        <ele>1016.2507324</ele>
        <time>2015-11-01T08:45:39Z</time>
      </trkpt>
      <trkpt lat="44.05634" lon="5.41195">
        <ele>1020.5769043</ele>
        <time>2015-11-01T08:45:57Z</time>
      </trkpt>
      <trkpt lat="44.0559" lon="5.41182">
        <ele>1020.5769043</ele>
        <time>2015-11-01T08:46:14Z</time>
      </trkpt>
      <trkpt lat="44.0557" lon="5.41181">
        <ele>1020.5769043</ele>
        <time>2015-11-01T08:46:23Z</time>
      </trkpt>
      <trkpt lat="44.05541" lon="5.41183">
        <ele>1018.6540527</ele>
        <time>2015-11-01T08:46:31Z</time>
      </trkpt>
      <trkpt lat="44.05496" lon="5.41191">
        <ele>1018.1733398</ele>
        <time>2015-11-01T08:46:40Z</time>
      </trkpt>
      <trkpt lat="44.05461" lon="5.41186">
        <ele>1017.2121582</ele>
        <time>2015-11-01T08:46:47Z</time>
      </trkpt>
      <trkpt lat="44.05436" lon="5.41179">
        <ele>1015.7702637</ele>
        <time>2015-11-01T08:46:52Z</time>
      </trkpt>
      <trkpt lat="44.05399" lon="5.41159">
        <ele>1014.328125</ele>
        <time>2015-11-01T08:47:01Z</time>
      </trkpt>
      <trkpt lat="44.05357" lon="5.41121">
        <ele>1015.2895508</ele>
        <time>2015-11-01T08:47:14Z</time>
      </trkpt>
      <trkpt lat="44.05327" lon="5.41099">
        <ele>1017.692627</ele>
        <time>2015-11-01T08:47:23Z</time>
      </trkpt>
      <trkpt lat="44.05278" lon="5.41073">
        <ele>1020.0961914</ele>
        <time>2015-11-01T08:47:36Z</time>
      </trkpt>
      <trkpt lat="44.05226" lon="5.4106">
        <ele>1022.0187988</ele>
        <time>2015-11-01T08:47:52Z</time>
      </trkpt>
      <trkpt lat="44.052" lon="5.41057">
        <ele>1022.0187988</ele>
        <time>2015-11-01T08:48:02Z</time>
      </trkpt>
      <trkpt lat="44.05155" lon="5.41054">
        <ele>1022.0187988</ele>
        <time>2015-11-01T08:48:18Z</time>
      </trkpt>
      <trkpt lat="44.051" lon="5.41051">
        <ele>1023.9414063</ele>
        <time>2015-11-01T08:48:36Z</time>
      </trkpt>
      <trkpt lat="44.05061" lon="5.41054">
        <ele>1023.9414063</ele>
        <time>2015-11-01T08:48:47Z</time>
      </trkpt>
      <trkpt lat="44.05046" lon="5.4106">
        <ele>1023.9414063</ele>
        <time>2015-11-01T08:48:51Z</time>
      </trkpt>
      <trkpt lat="44.05008" lon="5.41068">
        <ele>1023.4609375</ele>
        <time>2015-11-01T08:49:00Z</time>
      </trkpt>
      <trkpt lat="44.04991" lon="5.41073">
        <ele>1022.9802246</ele>
        <time>2015-11-01T08:49:04Z</time>
      </trkpt>
      <trkpt lat="44.0497" lon="5.41081">
        <ele>1022.0187988</ele>
        <time>2015-11-01T08:49:09Z</time>
      </trkpt>
      <trkpt lat="44.04957" lon="5.41082">
        <ele>1022.4995117</ele>
        <time>2015-11-01T08:49:12Z</time>
      </trkpt>
      <trkpt lat="44.04941" lon="5.41091">
        <ele>1022.0187988</ele>
        <time>2015-11-01T08:49:16Z</time>
      </trkpt>
      <trkpt lat="44.04895" lon="5.41105">
        <ele>1021.5380859</ele>
        <time>2015-11-01T08:49:28Z</time>
      </trkpt>
      <trkpt lat="44.04884" lon="5.41108">
        <ele>1021.5380859</ele>
        <time>2015-11-01T08:49:32Z</time>
      </trkpt>
      <trkpt lat="44.04873" lon="5.41099">
        <ele>1021.0576172</ele>
        <time>2015-11-01T08:49:37Z</time>
      </trkpt>
      <trkpt lat="44.04861" lon="5.41053">
        <ele>1021.5380859</ele>
        <time>2015-11-01T08:49:48Z</time>
      </trkpt>
      <trkpt lat="44.04857" lon="5.41043">
        <ele>1021.0576172</ele>
        <time>2015-11-01T08:49:50Z</time>
      </trkpt>
      <trkpt lat="44.04827" lon="5.41006">
        <ele>1019.6154785</ele>
        <time>2015-11-01T08:50:00Z</time>
      </trkpt>
      <trkpt lat="44.04825" lon="5.41004">
        <ele>1019.6154785</ele>
        <time>2015-11-01T08:50:01Z</time>
      </trkpt>
      <trkpt lat="44.04801" lon="5.40956">
        <ele>1020.0961914</ele>
        <time>2015-11-01T08:50:15Z</time>
      </trkpt>
      <trkpt lat="44.0477" lon="5.40898">
        <ele>1022.0187988</ele>
        <time>2015-11-01T08:50:31Z</time>
      </trkpt>
      <trkpt lat="44.04747" lon="5.40866">
        <ele>1023.4609375</ele>
        <time>2015-11-01T08:50:42Z</time>
      </trkpt>
      <trkpt lat="44.04723" lon="5.4082">
        <ele>1024.4221191</ele>
        <time>2015-11-01T08:50:54Z</time>
      </trkpt>
      <trkpt lat="44.04697" lon="5.40788">
        <ele>1023.4609375</ele>
        <time>2015-11-01T08:51:04Z</time>
      </trkpt>
      <trkpt lat="44.04678" lon="5.40752">
        <ele>1022.0187988</ele>
        <time>2015-11-01T08:51:12Z</time>
      </trkpt>
      <trkpt lat="44.04661" lon="5.40732">
        <ele>1020.5769043</ele>
        <time>2015-11-01T08:51:17Z</time>
      </trkpt>
      <trkpt lat="44.04655" lon="5.40722">
        <ele>1020.5769043</ele>
        <time>2015-11-01T08:51:19Z</time>
      </trkpt>
      <trkpt lat="44.04623" lon="5.40646">
        <ele>1019.1347656</ele>
        <time>2015-11-01T08:51:32Z</time>
      </trkpt>
      <trkpt lat="44.0459" lon="5.40578">
        <ele>1018.6540527</ele>
        <time>2015-11-01T08:51:45Z</time>
      </trkpt>
      <trkpt lat="44.04562" lon="5.40519">
        <ele>1019.6154785</ele>
        <time>2015-11-01T08:52:00Z</time>
      </trkpt>
      <trkpt lat="44.04563" lon="5.40507">
        <ele>1020.5769043</ele>
        <time>2015-11-01T08:52:05Z</time>
      </trkpt>
      <trkpt lat="44.04587" lon="5.40502">
        <ele>1021.0576172</ele>
        <time>2015-11-01T08:52:14Z</time>
      </trkpt>
      <trkpt lat="44.04636" lon="5.40516">
        <ele>1021.5380859</ele>
        <time>2015-11-01T08:52:29Z</time>
      </trkpt>
      <trkpt lat="44.04676" lon="5.40507">
        <ele>1019.6154785</ele>
        <time>2015-11-01T08:52:40Z</time>
      </trkpt>
      <trkpt lat="44.047" lon="5.40512">
        <ele>1016.2507324</ele>
        <time>2015-11-01T08:52:48Z</time>
      </trkpt>
      <trkpt lat="44.04703" lon="5.40515">
        <ele>1015.2895508</ele>
        <time>2015-11-01T08:52:49Z</time>
      </trkpt>
      <trkpt lat="44.04732" lon="5.40525">
        <ele>1009.5217285</ele>
        <time>2015-11-01T08:52:57Z</time>
      </trkpt>
      <trkpt lat="44.04744" lon="5.40535">
        <ele>1006.6376953</ele>
        <time>2015-11-01T08:53:00Z</time>
      </trkpt>
      <trkpt lat="44.04763" lon="5.40531">
        <ele>1003.7536621</ele>
        <time>2015-11-01T08:53:04Z</time>
      </trkpt>
      <trkpt lat="44.04783" lon="5.40517">
        <ele>1001.3503418</ele>
        <time>2015-11-01T08:53:08Z</time>
      </trkpt>
      <trkpt lat="44.04804" lon="5.40517">
        <ele>999.9084473</ele>
        <time>2015-11-01T08:53:12Z</time>
      </trkpt>
      <trkpt lat="44.04848" lon="5.40504">
        <ele>998.4663086</ele>
        <time>2015-11-01T08:53:20Z</time>
      </trkpt>
      <trkpt lat="44.04853" lon="5.40483">
        <ele>998.9470215</ele>
        <time>2015-11-01T08:53:25Z</time>
      </trkpt>
      <trkpt lat="44.04854" lon="5.40463">
        <ele>997.0244141</ele>
        <time>2015-11-01T08:53:28Z</time>
      </trkpt>
      <trkpt lat="44.04868" lon="5.40449">
        <ele>997.9858398</ele>
        <time>2015-11-01T08:53:33Z</time>
      </trkpt>
      <trkpt lat="44.04887" lon="5.40442">
        <ele>997.9858398</ele>
        <time>2015-11-01T08:53:37Z</time>
      </trkpt>
      <trkpt lat="44.04907" lon="5.40425">
        <ele>997.505127</ele>
        <time>2015-11-01T08:53:41Z</time>
      </trkpt>
      <trkpt lat="44.04925" lon="5.4042">
        <ele>997.9858398</ele>
        <time>2015-11-01T08:53:44Z</time>
      </trkpt>
      <trkpt lat="44.04945" lon="5.40407">
        <ele>990.7758789</ele>
        <time>2015-11-01T08:53:49Z</time>
      </trkpt>
      <trkpt lat="44.0495" lon="5.40417">
        <ele>987.4111328</ele>
        <time>2015-11-01T08:53:54Z</time>
      </trkpt>
      <trkpt lat="44.04973" lon="5.40416">
        <ele>981.6433105</ele>
        <time>2015-11-01T08:54:00Z</time>
      </trkpt>
      <trkpt lat="44.05026" lon="5.404">
        <ele>974.9143066</ele>
        <time>2015-11-01T08:54:11Z</time>
      </trkpt>
      <trkpt lat="44.05031" lon="5.40397">
        <ele>973.4724121</ele>
        <time>2015-11-01T08:54:12Z</time>
      </trkpt>
      <trkpt lat="44.0506" lon="5.40366">
        <ele>962.4169922</ele>
        <time>2015-11-01T08:54:18Z</time>
      </trkpt>
      <trkpt lat="44.0507" lon="5.40343">
        <ele>958.0913086</ele>
        <time>2015-11-01T08:54:21Z</time>
      </trkpt>
      <trkpt lat="44.0508" lon="5.40326">
        <ele>951.8425293</ele>
        <time>2015-11-01T08:54:24Z</time>
      </trkpt>
      <trkpt lat="44.05089" lon="5.403">
        <ele>945.5939941</ele>
        <time>2015-11-01T08:54:28Z</time>
      </trkpt>
      <trkpt lat="44.05091" lon="5.40296">
        <ele>944.1520996</ele>
        <time>2015-11-01T08:54:30Z</time>
      </trkpt>
      <trkpt lat="44.05097" lon="5.40323">
        <ele>938.8647461</ele>
        <time>2015-11-01T08:54:37Z</time>
      </trkpt>
      <trkpt lat="44.05098" lon="5.40327">
        <ele>938.8647461</ele>
        <time>2015-11-01T08:54:38Z</time>
      </trkpt>
      <trkpt lat="44.05109" lon="5.40312">
        <ele>932.135498</ele>
        <time>2015-11-01T08:54:44Z</time>
      </trkpt>
      <trkpt lat="44.05114" lon="5.40278">
        <ele>928.2902832</ele>
        <time>2015-11-01T08:54:49Z</time>
      </trkpt>
      <trkpt lat="44.05119" lon="5.40253">
        <ele>921.560791</ele>
        <time>2015-11-01T08:54:58Z</time>
      </trkpt>
      <trkpt lat="44.05118" lon="5.40252">
        <ele>922.0415039</ele>
        <time>2015-11-01T08:55:27Z</time>
      </trkpt>
      <trkpt lat="44.05129" lon="5.40228">
        <ele>918.1962891</ele>
        <time>2015-11-01T08:55:33Z</time>
      </trkpt>
      <trkpt lat="44.05139" lon="5.40184">
        <ele>911.4672852</ele>
        <time>2015-11-01T08:55:40Z</time>
      </trkpt>
      <trkpt lat="44.05128" lon="5.4015">
        <ele>910.5058594</ele>
        <time>2015-11-01T08:55:47Z</time>
      </trkpt>
      <trkpt lat="44.05116" lon="5.40126">
        <ele>909.5446777</ele>
        <time>2015-11-01T08:55:51Z</time>
      </trkpt>
      <trkpt lat="44.0511" lon="5.4011">
        <ele>907.6218262</ele>
        <time>2015-11-01T08:55:54Z</time>
      </trkpt>
      <trkpt lat="44.05099" lon="5.40084">
        <ele>906.6604004</ele>
        <time>2015-11-01T08:56:00Z</time>
      </trkpt>
      <trkpt lat="44.05098" lon="5.40078">
        <ele>905.6992188</ele>
        <time>2015-11-01T08:56:01Z</time>
      </trkpt>
      <trkpt lat="44.05089" lon="5.40056">
        <ele>901.8540039</ele>
        <time>2015-11-01T08:56:06Z</time>
      </trkpt>
      <trkpt lat="44.05089" lon="5.40046">
        <ele>899.9313965</ele>
        <time>2015-11-01T08:56:09Z</time>
      </trkpt>
      <trkpt lat="44.05082" lon="5.4003">
        <ele>898.4892578</ele>
        <time>2015-11-01T08:56:13Z</time>
      </trkpt>
      <trkpt lat="44.05072" lon="5.40016">
        <ele>897.5280762</ele>
        <time>2015-11-01T08:56:16Z</time>
      </trkpt>
      <trkpt lat="44.05058" lon="5.40004">
        <ele>897.5280762</ele>
        <time>2015-11-01T08:56:24Z</time>
      </trkpt>
      <trkpt lat="44.05039" lon="5.39989">
        <ele>897.5280762</ele>
        <time>2015-11-01T08:56:32Z</time>
      </trkpt>
      <trkpt lat="44.05036" lon="5.39987">
        <ele>897.5280762</ele>
        <time>2015-11-01T08:56:33Z</time>
      </trkpt>
      <trkpt lat="44.05015" lon="5.39961">
        <ele>889.8374023</ele>
        <time>2015-11-01T08:56:42Z</time>
      </trkpt>
      <trkpt lat="44.05" lon="5.39947">
        <ele>885.9921875</ele>
        <time>2015-11-01T08:56:47Z</time>
      </trkpt>
      <trkpt lat="44.04977" lon="5.39919">
        <ele>876.3791504</ele>
        <time>2015-11-01T08:56:55Z</time>
      </trkpt>
      <trkpt lat="44.04949" lon="5.39894">
        <ele>867.246582</ele>
        <time>2015-11-01T08:57:04Z</time>
      </trkpt>
      <trkpt lat="44.04931" lon="5.39884">
        <ele>862.4399414</ele>
        <time>2015-11-01T08:57:11Z</time>
      </trkpt>
      <trkpt lat="44.04909" lon="5.39876">
        <ele>860.0366211</ele>
        <time>2015-11-01T08:57:18Z</time>
      </trkpt>
      <trkpt lat="44.04903" lon="5.3987">
        <ele>858.5944824</ele>
        <time>2015-11-01T08:57:20Z</time>
      </trkpt>
      <trkpt lat="44.04895" lon="5.39863">
        <ele>856.671875</ele>
        <time>2015-11-01T08:57:22Z</time>
      </trkpt>
      <trkpt lat="44.04881" lon="5.39851">
        <ele>851.8654785</ele>
        <time>2015-11-01T08:57:26Z</time>
      </trkpt>
      <trkpt lat="44.04857" lon="5.3983">
        <ele>843.2133789</ele>
        <time>2015-11-01T08:57:35Z</time>
      </trkpt>
      <trkpt lat="44.04848" lon="5.39827">
        <ele>839.3681641</ele>
        <time>2015-11-01T08:57:44Z</time>
      </trkpt>
      <trkpt lat="44.0482" lon="5.39809">
        <ele>835.0424805</ele>
        <time>2015-11-01T08:57:54Z</time>
      </trkpt>
      <trkpt lat="44.04798" lon="5.39801">
        <ele>830.7165527</ele>
        <time>2015-11-01T08:58:02Z</time>
      </trkpt>
      <trkpt lat="44.04765" lon="5.39794">
        <ele>826.8710938</ele>
        <time>2015-11-01T08:58:08Z</time>
      </trkpt>
      <trkpt lat="44.04758" lon="5.39791">
        <ele>825.909668</ele>
        <time>2015-11-01T08:58:09Z</time>
      </trkpt>
      <trkpt lat="44.04731" lon="5.3978">
        <ele>823.5065918</ele>
        <time>2015-11-01T08:58:13Z</time>
      </trkpt>
      <trkpt lat="44.04713" lon="5.39769">
        <ele>821.5837402</ele>
        <time>2015-11-01T08:58:16Z</time>
      </trkpt>
      <trkpt lat="44.04694" lon="5.39741">
        <ele>814.8547363</ele>
        <time>2015-11-01T08:58:21Z</time>
      </trkpt>
      <trkpt lat="44.04674" lon="5.39687">
        <ele>807.1640625</ele>
        <time>2015-11-01T08:58:29Z</time>
      </trkpt>
      <trkpt lat="44.04676" lon="5.39682">
        <ele>806.6833496</ele>
        <time>2015-11-01T08:58:32Z</time>
      </trkpt>
      <trkpt lat="44.04683" lon="5.39687">
        <ele>806.2026367</ele>
        <time>2015-11-01T08:58:42Z</time>
      </trkpt>
      <trkpt lat="44.04684" lon="5.39687">
        <ele>805.722168</ele>
        <time>2015-11-01T08:59:21Z</time>
      </trkpt>
      <trkpt lat="44.047" lon="5.3968">
        <ele>805.2414551</ele>
        <time>2015-11-01T08:59:27Z</time>
      </trkpt>
      <trkpt lat="44.04716" lon="5.39672">
        <ele>804.7607422</ele>
        <time>2015-11-01T08:59:31Z</time>
      </trkpt>
      <trkpt lat="44.04729" lon="5.39655">
        <ele>804.7607422</ele>
        <time>2015-11-01T08:59:35Z</time>
      </trkpt>
      <trkpt lat="44.04744" lon="5.39609">
        <ele>804.2802734</ele>
        <time>2015-11-01T08:59:42Z</time>
      </trkpt>
      <trkpt lat="44.04745" lon="5.39594">
        <ele>803.7995605</ele>
        <time>2015-11-01T08:59:44Z</time>
      </trkpt>
      <trkpt lat="44.04744" lon="5.39579">
        <ele>803.3188477</ele>
        <time>2015-11-01T08:59:46Z</time>
      </trkpt>
      <trkpt lat="44.0473" lon="5.39568">
        <ele>801.8769531</ele>
        <time>2015-11-01T08:59:50Z</time>
      </trkpt>
      <trkpt lat="44.04703" lon="5.39576">
        <ele>799.9543457</ele>
        <time>2015-11-01T08:59:55Z</time>
      </trkpt>
      <trkpt lat="44.04679" lon="5.39573">
        <ele>799.9543457</ele>
        <time>2015-11-01T09:00:00Z</time>
      </trkpt>
      <trkpt lat="44.04664" lon="5.39578">
        <ele>800.4350586</ele>
        <time>2015-11-01T09:00:04Z</time>
      </trkpt>
      <trkpt lat="44.0466" lon="5.39583">
        <ele>800.9155273</ele>
        <time>2015-11-01T09:00:06Z</time>
      </trkpt>
      <trkpt lat="44.04656" lon="5.39582">
        <ele>801.3962402</ele>
        <time>2015-11-01T09:00:09Z</time>
      </trkpt>
      <trkpt lat="44.04656" lon="5.39578">
        <ele>801.3962402</ele>
        <time>2015-11-01T09:00:11Z</time>
      </trkpt>
      <trkpt lat="44.04653" lon="5.39573">
        <ele>801.3962402</ele>
        <time>2015-11-01T09:00:18Z</time>
      </trkpt>
      <trkpt lat="44.04638" lon="5.39574">
        <ele>803.7995605</ele>
        <time>2015-11-01T09:00:36Z</time>
      </trkpt>
      <trkpt lat="44.04629" lon="5.39568">
        <ele>805.722168</ele>
        <time>2015-11-01T09:00:54Z</time>
      </trkpt>
      <trkpt lat="44.0462" lon="5.39555">
        <ele>808.605957</ele>
        <time>2015-11-01T09:01:11Z</time>
      </trkpt>
      <trkpt lat="44.04613" lon="5.39553">
        <ele>808.605957</ele>
        <time>2015-11-01T09:01:23Z</time>
      </trkpt>
      <trkpt lat="44.04601" lon="5.39552">
        <ele>809.0866699</ele>
        <time>2015-11-01T09:01:34Z</time>
      </trkpt>
      <trkpt lat="44.04583" lon="5.39559">
        <ele>811.9707031</ele>
        <time>2015-11-01T09:01:48Z</time>
      </trkpt>
      <trkpt lat="44.04571" lon="5.39563">
        <ele>812.451416</ele>
        <time>2015-11-01T09:02:03Z</time>
      </trkpt>
      <trkpt lat="44.04551" lon="5.39572">
        <ele>814.3740234</ele>
        <time>2015-11-01T09:02:15Z</time>
      </trkpt>
      <trkpt lat="44.04527" lon="5.39591">
        <ele>816.2966309</ele>
        <time>2015-11-01T09:02:32Z</time>
      </trkpt>
      <trkpt lat="44.045" lon="5.39608">
        <ele>818.6999512</ele>
        <time>2015-11-01T09:02:49Z</time>
      </trkpt>
      <trkpt lat="44.04477" lon="5.39614">
        <ele>821.5837402</ele>
        <time>2015-11-01T09:03:04Z</time>
      </trkpt>
      <trkpt lat="44.04446" lon="5.39618">
        <ele>823.9870605</ele>
        <time>2015-11-01T09:03:21Z</time>
      </trkpt>
      <trkpt lat="44.04425" lon="5.39621">
        <ele>825.4289551</ele>
        <time>2015-11-01T09:03:33Z</time>
      </trkpt>
      <trkpt lat="44.04388" lon="5.39618">
        <ele>825.909668</ele>
        <time>2015-11-01T09:03:51Z</time>
      </trkpt>
      <trkpt lat="44.0436" lon="5.39616">
        <ele>827.8322754</ele>
        <time>2015-11-01T09:04:04Z</time>
      </trkpt>
      <trkpt lat="44.04336" lon="5.39604">
        <ele>828.3132324</ele>
        <time>2015-11-01T09:04:15Z</time>
      </trkpt>
      <trkpt lat="44.04307" lon="5.39594">
        <ele>827.8322754</ele>
        <time>2015-11-01T09:04:30Z</time>
      </trkpt>
      <trkpt lat="44.04271" lon="5.39582">
        <ele>828.3132324</ele>
        <time>2015-11-01T09:04:43Z</time>
      </trkpt>
      <trkpt lat="44.04241" lon="5.39565">
        <ele>827.8322754</ele>
        <time>2015-11-01T09:04:52Z</time>
      </trkpt>
      <trkpt lat="44.0423" lon="5.39557">
        <ele>827.8322754</ele>
        <time>2015-11-01T09:04:55Z</time>
      </trkpt>
      <trkpt lat="44.0421" lon="5.39547">
        <ele>827.8322754</ele>
        <time>2015-11-01T09:05:00Z</time>
      </trkpt>
      <trkpt lat="44.04197" lon="5.39543">
        <ele>827.8322754</ele>
        <time>2015-11-01T09:05:03Z</time>
      </trkpt>
      <trkpt lat="44.04139" lon="5.39511">
        <ele>826.8710938</ele>
        <time>2015-11-01T09:05:17Z</time>
      </trkpt>
      <trkpt lat="44.04123" lon="5.39503">
        <ele>826.3903809</ele>
        <time>2015-11-01T09:05:22Z</time>
      </trkpt>
      <trkpt lat="44.04123" lon="5.39499">
        <ele>826.8710938</ele>
        <time>2015-11-01T09:05:29Z</time>
      </trkpt>
      <trkpt lat="44.04125" lon="5.39502">
        <ele>828.3132324</ele>
        <time>2015-11-01T09:05:39Z</time>
      </trkpt>
      <trkpt lat="44.04125" lon="5.39502">
        <ele>828.7939453</ele>
        <time>2015-11-01T09:05:58Z</time>
      </trkpt>
      <trkpt lat="44.04127" lon="5.39501">
        <ele>828.3132324</ele>
        <time>2015-11-01T09:16:46Z</time>
      </trkpt>
      <trkpt lat="44.04126" lon="5.39501">
        <ele>828.3132324</ele>
        <time>2015-11-01T09:17:18Z</time>
      </trkpt>
      <trkpt lat="44.0412" lon="5.39503">
        <ele>828.3132324</ele>
        <time>2015-11-01T09:17:32Z</time>
      </trkpt>
      <trkpt lat="44.04121" lon="5.39502">
        <ele>828.7939453</ele>
        <time>2015-11-01T09:18:28Z</time>
      </trkpt>
      <trkpt lat="44.0412" lon="5.39497">
        <ele>828.3132324</ele>
        <time>2015-11-01T09:18:39Z</time>
      </trkpt>
      <trkpt lat="44.04122" lon="5.39496">
        <ele>828.7939453</ele>
        <time>2015-11-01T09:18:50Z</time>
      </trkpt>
      <trkpt lat="44.04122" lon="5.39495">
        <ele>828.7939453</ele>
        <time>2015-11-01T09:19:14Z</time>
      </trkpt>
      <trkpt lat="44.04122" lon="5.39493">
        <ele>829.755127</ele>
        <time>2015-11-01T09:19:40Z</time>
      </trkpt>
      <trkpt lat="44.04124" lon="5.39452">
        <ele>832.1584473</ele>
        <time>2015-11-01T09:19:53Z</time>
      </trkpt>
      <trkpt lat="44.04127" lon="5.39401">
        <ele>830.7165527</ele>
        <time>2015-11-01T09:20:03Z</time>
      </trkpt>
      <trkpt lat="44.04124" lon="5.39329">
        <ele>829.2744141</ele>
        <time>2015-11-01T09:20:15Z</time>
      </trkpt>
      <trkpt lat="44.04124" lon="5.39314">
        <ele>828.7939453</ele>
        <time>2015-11-01T09:20:21Z</time>
      </trkpt>
      <trkpt lat="44.04124" lon="5.39315">
        <ele>828.7939453</ele>
        <time>2015-11-01T09:20:28Z</time>
      </trkpt>
      <trkpt lat="44.04125" lon="5.39278">
        <ele>827.8322754</ele>
        <time>2015-11-01T09:20:35Z</time>
      </trkpt>
      <trkpt lat="44.04128" lon="5.39249">
        <ele>827.8322754</ele>
        <time>2015-11-01T09:20:40Z</time>
      </trkpt>
      <trkpt lat="44.0414" lon="5.39184">
        <ele>826.3903809</ele>
        <time>2015-11-01T09:20:53Z</time>
      </trkpt>
      <trkpt lat="44.04162" lon="5.39074">
        <ele>822.545166</ele>
        <time>2015-11-01T09:21:11Z</time>
      </trkpt>
      <trkpt lat="44.04164" lon="5.39069">
        <ele>822.545166</ele>
        <time>2015-11-01T09:21:12Z</time>
      </trkpt>
      <trkpt lat="44.04167" lon="5.39028">
        <ele>821.5837402</ele>
        <time>2015-11-01T09:21:22Z</time>
      </trkpt>
      <trkpt lat="44.04166" lon="5.39007">
        <ele>820.6225586</ele>
        <time>2015-11-01T09:21:30Z</time>
      </trkpt>
      <trkpt lat="44.04171" lon="5.38953">
        <ele>820.1418457</ele>
        <time>2015-11-01T09:21:42Z</time>
      </trkpt>
      <trkpt lat="44.0417" lon="5.38951">
        <ele>820.6225586</ele>
        <time>2015-11-01T09:21:44Z</time>
      </trkpt>
      <trkpt lat="44.04166" lon="5.38945">
        <ele>821.1032715</ele>
        <time>2015-11-01T09:21:49Z</time>
      </trkpt>
      <trkpt lat="44.04171" lon="5.38917">
        <ele>822.545166</ele>
        <time>2015-11-01T09:21:59Z</time>
      </trkpt>
      <trkpt lat="44.04174" lon="5.3888">
        <ele>825.909668</ele>
        <time>2015-11-01T09:22:11Z</time>
      </trkpt>
      <trkpt lat="44.04182" lon="5.38828">
        <ele>830.2358398</ele>
        <time>2015-11-01T09:22:28Z</time>
      </trkpt>
      <trkpt lat="44.04188" lon="5.38817">
        <ele>831.1972656</ele>
        <time>2015-11-01T09:22:33Z</time>
      </trkpt>
      <trkpt lat="44.04208" lon="5.38788">
        <ele>832.1584473</ele>
        <time>2015-11-01T09:22:45Z</time>
      </trkpt>
      <trkpt lat="44.04225" lon="5.38765">
        <ele>832.1584473</ele>
        <time>2015-11-01T09:22:54Z</time>
      </trkpt>
      <trkpt lat="44.04238" lon="5.38734">
        <ele>831.6777344</ele>
        <time>2015-11-01T09:23:02Z</time>
      </trkpt>
      <trkpt lat="44.04247" lon="5.3869">
        <ele>828.7939453</ele>
        <time>2015-11-01T09:23:13Z</time>
      </trkpt>
      <trkpt lat="44.04246" lon="5.38681">
        <ele>827.8322754</ele>
        <time>2015-11-01T09:23:15Z</time>
      </trkpt>
      <trkpt lat="44.04253" lon="5.3867">
        <ele>826.8710938</ele>
        <time>2015-11-01T09:23:19Z</time>
      </trkpt>
      <trkpt lat="44.0426" lon="5.38665">
        <ele>826.8710938</ele>
        <time>2015-11-01T09:23:21Z</time>
      </trkpt>
      <trkpt lat="44.04274" lon="5.3865">
        <ele>826.3903809</ele>
        <time>2015-11-01T09:23:25Z</time>
      </trkpt>
      <trkpt lat="44.0429" lon="5.38635">
        <ele>826.8710938</ele>
        <time>2015-11-01T09:23:30Z</time>
      </trkpt>
      <trkpt lat="44.04309" lon="5.38575">
        <ele>828.3132324</ele>
        <time>2015-11-01T09:23:42Z</time>
      </trkpt>
      <trkpt lat="44.04321" lon="5.38541">
        <ele>829.2744141</ele>
        <time>2015-11-01T09:23:49Z</time>
      </trkpt>
      <trkpt lat="44.04326" lon="5.38525">
        <ele>829.755127</ele>
        <time>2015-11-01T09:23:52Z</time>
      </trkpt>
      <trkpt lat="44.04366" lon="5.38453">
        <ele>831.6777344</ele>
        <time>2015-11-01T09:24:09Z</time>
      </trkpt>
      <trkpt lat="44.04403" lon="5.3842">
        <ele>832.6391602</ele>
        <time>2015-11-01T09:24:21Z</time>
      </trkpt>
      <trkpt lat="44.04421" lon="5.38393">
        <ele>832.1584473</ele>
        <time>2015-11-01T09:24:29Z</time>
      </trkpt>
      <trkpt lat="44.04459" lon="5.38362">
        <ele>832.1584473</ele>
        <time>2015-11-01T09:24:40Z</time>
      </trkpt>
      <trkpt lat="44.0449" lon="5.38337">
        <ele>830.7165527</ele>
        <time>2015-11-01T09:24:49Z</time>
      </trkpt>
      <trkpt lat="44.04515" lon="5.38314">
        <ele>828.3132324</ele>
        <time>2015-11-01T09:24:56Z</time>
      </trkpt>
      <trkpt lat="44.04567" lon="5.38265">
        <ele>828.7939453</ele>
        <time>2015-11-01T09:25:09Z</time>
      </trkpt>
      <trkpt lat="44.04616" lon="5.38229">
        <ele>829.755127</ele>
        <time>2015-11-01T09:25:24Z</time>
      </trkpt>
      <trkpt lat="44.04655" lon="5.38207">
        <ele>830.2358398</ele>
        <time>2015-11-01T09:25:35Z</time>
      </trkpt>
      <trkpt lat="44.0471" lon="5.38168">
        <ele>828.7939453</ele>
        <time>2015-11-01T09:25:50Z</time>
      </trkpt>
      <trkpt lat="44.04728" lon="5.38175">
        <ele>828.7939453</ele>
        <time>2015-11-01T09:25:55Z</time>
      </trkpt>
      <trkpt lat="44.04768" lon="5.38154">
        <ele>828.3132324</ele>
        <time>2015-11-01T09:26:06Z</time>
      </trkpt>
      <trkpt lat="44.04772" lon="5.38153">
        <ele>828.3132324</ele>
        <time>2015-11-01T09:26:07Z</time>
      </trkpt>
      <trkpt lat="44.0479" lon="5.38137">
        <ele>827.8322754</ele>
        <time>2015-11-01T09:26:12Z</time>
      </trkpt>
      <trkpt lat="44.04802" lon="5.38121">
        <ele>827.8322754</ele>
        <time>2015-11-01T09:26:16Z</time>
      </trkpt>
      <trkpt lat="44.04812" lon="5.38104">
        <ele>826.8710938</ele>
        <time>2015-11-01T09:26:20Z</time>
      </trkpt>
      <trkpt lat="44.04817" lon="5.38096">
        <ele>826.8710938</ele>
        <time>2015-11-01T09:26:22Z</time>
      </trkpt>
      <trkpt lat="44.04836" lon="5.38068">
        <ele>826.3903809</ele>
        <time>2015-11-01T09:26:29Z</time>
      </trkpt>
      <trkpt lat="44.04833" lon="5.38052">
        <ele>826.8710938</ele>
        <time>2015-11-01T09:26:33Z</time>
      </trkpt>
      <trkpt lat="44.04842" lon="5.38015">
        <ele>826.3903809</ele>
        <time>2015-11-01T09:26:42Z</time>
      </trkpt>
      <trkpt lat="44.0486" lon="5.37985">
        <ele>826.3903809</ele>
        <time>2015-11-01T09:26:51Z</time>
      </trkpt>
      <trkpt lat="44.04885" lon="5.3795">
        <ele>826.3903809</ele>
        <time>2015-11-01T09:27:01Z</time>
      </trkpt>
      <trkpt lat="44.04887" lon="5.37945">
        <ele>826.3903809</ele>
        <time>2015-11-01T09:27:02Z</time>
      </trkpt>
      <trkpt lat="44.04895" lon="5.37932">
        <ele>825.909668</ele>
        <time>2015-11-01T09:27:06Z</time>
      </trkpt>
      <trkpt lat="44.04926" lon="5.37926">
        <ele>823.5065918</ele>
        <time>2015-11-01T09:27:17Z</time>
      </trkpt>
      <trkpt lat="44.04938" lon="5.37921">
        <ele>822.545166</ele>
        <time>2015-11-01T09:27:21Z</time>
      </trkpt>
      <trkpt lat="44.04983" lon="5.37878">
        <ele>820.6225586</ele>
        <time>2015-11-01T09:27:32Z</time>
      </trkpt>
      <trkpt lat="44.04986" lon="5.37874">
        <ele>820.1418457</ele>
        <time>2015-11-01T09:27:33Z</time>
      </trkpt>
      <trkpt lat="44.05007" lon="5.37846">
        <ele>819.661377</ele>
        <time>2015-11-01T09:27:39Z</time>
      </trkpt>
      <trkpt lat="44.0501" lon="5.37826">
        <ele>819.1806641</ele>
        <time>2015-11-01T09:27:43Z</time>
      </trkpt>
      <trkpt lat="44.05009" lon="5.3781">
        <ele>818.6999512</ele>
        <time>2015-11-01T09:27:46Z</time>
      </trkpt>
      <trkpt lat="44.05007" lon="5.37763">
        <ele>815.8161621</ele>
        <time>2015-11-01T09:27:54Z</time>
      </trkpt>
      <trkpt lat="44.04993" lon="5.37738">
        <ele>812.9321289</ele>
        <time>2015-11-01T09:27:59Z</time>
      </trkpt>
      <trkpt lat="44.04974" lon="5.3771">
        <ele>809.5673828</ele>
        <time>2015-11-01T09:28:05Z</time>
      </trkpt>
      <trkpt lat="44.0496" lon="5.37686">
        <ele>806.6833496</ele>
        <time>2015-11-01T09:28:09Z</time>
      </trkpt>
      <trkpt lat="44.04943" lon="5.37671">
        <ele>805.2414551</ele>
        <time>2015-11-01T09:28:13Z</time>
      </trkpt>
      <trkpt lat="44.04931" lon="5.37664">
        <ele>804.2802734</ele>
        <time>2015-11-01T09:28:16Z</time>
      </trkpt>
      <trkpt lat="44.04919" lon="5.37659">
        <ele>802.3574219</ele>
        <time>2015-11-01T09:28:19Z</time>
      </trkpt>
      <trkpt lat="44.04908" lon="5.3765">
        <ele>801.8769531</ele>
        <time>2015-11-01T09:28:22Z</time>
      </trkpt>
      <trkpt lat="44.04897" lon="5.37646">
        <ele>800.4350586</ele>
        <time>2015-11-01T09:28:25Z</time>
      </trkpt>
      <trkpt lat="44.04893" lon="5.37638">
        <ele>800.4350586</ele>
        <time>2015-11-01T09:28:33Z</time>
      </trkpt>
      <trkpt lat="44.04893" lon="5.37638">
        <ele>800.4350586</ele>
        <time>2015-11-01T09:28:34Z</time>
      </trkpt>
      <trkpt lat="44.04894" lon="5.37633">
        <ele>800.4350586</ele>
        <time>2015-11-01T09:28:37Z</time>
      </trkpt>
      <trkpt lat="44.04897" lon="5.3763">
        <ele>801.8769531</ele>
        <time>2015-11-01T09:28:48Z</time>
      </trkpt>
      <trkpt lat="44.04904" lon="5.37626">
        <ele>801.3962402</ele>
        <time>2015-11-01T09:29:16Z</time>
      </trkpt>
      <trkpt lat="44.04935" lon="5.37627">
        <ele>802.8381348</ele>
        <time>2015-11-01T09:29:27Z</time>
      </trkpt>
      <trkpt lat="44.04961" lon="5.37617">
        <ele>803.3188477</ele>
        <time>2015-11-01T09:29:36Z</time>
      </trkpt>
      <trkpt lat="44.04978" lon="5.37607">
        <ele>805.2414551</ele>
        <time>2015-11-01T09:29:42Z</time>
      </trkpt>
      <trkpt lat="44.04989" lon="5.37594">
        <ele>804.7607422</ele>
        <time>2015-11-01T09:29:46Z</time>
      </trkpt>
      <trkpt lat="44.05031" lon="5.37553">
        <ele>804.7607422</ele>
        <time>2015-11-01T09:29:59Z</time>
      </trkpt>
      <trkpt lat="44.05038" lon="5.37548">
        <ele>804.2802734</ele>
        <time>2015-11-01T09:30:01Z</time>
      </trkpt>
      <trkpt lat="44.05075" lon="5.37536">
        <ele>803.3188477</ele>
        <time>2015-11-01T09:30:10Z</time>
      </trkpt>
      <trkpt lat="44.05087" lon="5.37539">
        <ele>802.3574219</ele>
        <time>2015-11-01T09:30:13Z</time>
      </trkpt>
      <trkpt lat="44.05117" lon="5.37551">
        <ele>800.9155273</ele>
        <time>2015-11-01T09:30:22Z</time>
      </trkpt>
      <trkpt lat="44.05134" lon="5.37554">
        <ele>799.4736328</ele>
        <time>2015-11-01T09:30:42Z</time>
      </trkpt>
      <trkpt lat="44.05149" lon="5.37559">
        <ele>798.0317383</ele>
        <time>2015-11-01T09:30:46Z</time>
      </trkpt>
      <trkpt lat="44.05159" lon="5.37561">
        <ele>797.0703125</ele>
        <time>2015-11-01T09:30:48Z</time>
      </trkpt>
      <trkpt lat="44.05175" lon="5.37552">
        <ele>794.666748</ele>
        <time>2015-11-01T09:30:52Z</time>
      </trkpt>
      <trkpt lat="44.0518" lon="5.3754">
        <ele>793.7055664</ele>
        <time>2015-11-01T09:30:54Z</time>
      </trkpt>
      <trkpt lat="44.05198" lon="5.37519">
        <ele>791.3022461</ele>
        <time>2015-11-01T09:30:59Z</time>
      </trkpt>
      <trkpt lat="44.05222" lon="5.37514">
        <ele>789.3796387</ele>
        <time>2015-11-01T09:31:04Z</time>
      </trkpt>
      <trkpt lat="44.05241" lon="5.3752">
        <ele>789.8603516</ele>
        <time>2015-11-01T09:31:08Z</time>
      </trkpt>
      <trkpt lat="44.05275" lon="5.37498">
        <ele>787.9377441</ele>
        <time>2015-11-01T09:31:15Z</time>
      </trkpt>
      <trkpt lat="44.05318" lon="5.37477">
        <ele>784.5732422</ele>
        <time>2015-11-01T09:31:23Z</time>
      </trkpt>
      <trkpt lat="44.05307" lon="5.37465">
        <ele>783.1311035</ele>
        <time>2015-11-01T09:31:29Z</time>
      </trkpt>
      <trkpt lat="44.05286" lon="5.37463">
        <ele>782.1699219</ele>
        <time>2015-11-01T09:31:36Z</time>
      </trkpt>
      <trkpt lat="44.0528" lon="5.37425">
        <ele>783.1311035</ele>
        <time>2015-11-01T09:31:43Z</time>
      </trkpt>
      <trkpt lat="44.0528" lon="5.37419">
        <ele>783.1311035</ele>
        <time>2015-11-01T09:31:44Z</time>
      </trkpt>
      <trkpt lat="44.05283" lon="5.37394">
        <ele>782.6506348</ele>
        <time>2015-11-01T09:31:48Z</time>
      </trkpt>
      <trkpt lat="44.05285" lon="5.37383">
        <ele>781.689209</ele>
        <time>2015-11-01T09:31:50Z</time>
      </trkpt>
      <trkpt lat="44.05286" lon="5.37364">
        <ele>781.2087402</ele>
        <time>2015-11-01T09:31:53Z</time>
      </trkpt>
      <trkpt lat="44.05279" lon="5.37323">
        <ele>781.2087402</ele>
        <time>2015-11-01T09:32:00Z</time>
      </trkpt>
      <trkpt lat="44.05279" lon="5.37311">
        <ele>780.2473145</ele>
        <time>2015-11-01T09:32:02Z</time>
      </trkpt>
      <trkpt lat="44.0526" lon="5.37277">
        <ele>778.8051758</ele>
        <time>2015-11-01T09:32:09Z</time>
      </trkpt>
      <trkpt lat="44.05227" lon="5.37246">
        <ele>779.7663574</ele>
        <time>2015-11-01T09:32:19Z</time>
      </trkpt>
      <trkpt lat="44.05194" lon="5.37221">
        <ele>779.2856445</ele>
        <time>2015-11-01T09:32:30Z</time>
      </trkpt>
      <trkpt lat="44.05154" lon="5.37212">
        <ele>779.2856445</ele>
        <time>2015-11-01T09:32:40Z</time>
      </trkpt>
      <trkpt lat="44.05119" lon="5.37218">
        <ele>780.2473145</ele>
        <time>2015-11-01T09:32:51Z</time>
      </trkpt>
      <trkpt lat="44.05098" lon="5.37216">
        <ele>778.8051758</ele>
        <time>2015-11-01T09:32:57Z</time>
      </trkpt>
      <trkpt lat="44.05081" lon="5.37176">
        <ele>776.8825684</ele>
        <time>2015-11-01T09:33:04Z</time>
      </trkpt>
      <trkpt lat="44.05079" lon="5.37156">
        <ele>776.8825684</ele>
        <time>2015-11-01T09:33:07Z</time>
      </trkpt>
      <trkpt lat="44.05055" lon="5.37114">
        <ele>776.4018555</ele>
        <time>2015-11-01T09:33:17Z</time>
      </trkpt>
      <trkpt lat="44.05038" lon="5.37086">
        <ele>777.84375</ele>
        <time>2015-11-01T09:33:26Z</time>
      </trkpt>
      <trkpt lat="44.05012" lon="5.37073">
        <ele>780.2473145</ele>
        <time>2015-11-01T09:33:38Z</time>
      </trkpt>
      <trkpt lat="44.04989" lon="5.37063">
        <ele>782.1699219</ele>
        <time>2015-11-01T09:33:49Z</time>
      </trkpt>
      <trkpt lat="44.04971" lon="5.37057">
        <ele>782.6506348</ele>
        <time>2015-11-01T09:33:58Z</time>
      </trkpt>
      <trkpt lat="44.04965" lon="5.37059">
        <ele>782.6506348</ele>
        <time>2015-11-01T09:34:07Z</time>
      </trkpt>
      <trkpt lat="44.04958" lon="5.37071">
        <ele>782.1699219</ele>
        <time>2015-11-01T09:34:20Z</time>
      </trkpt>
      <trkpt lat="44.04956" lon="5.37077">
        <ele>781.2087402</ele>
        <time>2015-11-01T09:34:23Z</time>
      </trkpt>
      <trkpt lat="44.04959" lon="5.37095">
        <ele>779.2856445</ele>
        <time>2015-11-01T09:34:31Z</time>
      </trkpt>
      <trkpt lat="44.04961" lon="5.37098">
        <ele>779.2856445</ele>
        <time>2015-11-01T09:34:41Z</time>
      </trkpt>
      <trkpt lat="44.04961" lon="5.37099">
        <ele>780.2473145</ele>
        <time>2015-11-01T09:34:58Z</time>
      </trkpt>
      <trkpt lat="44.04959" lon="5.37099">
        <ele>779.2856445</ele>
        <time>2015-11-01T09:35:59Z</time>
      </trkpt>
      <trkpt lat="44.0495" lon="5.37103">
        <ele>775.9211426</ele>
        <time>2015-11-01T09:36:09Z</time>
      </trkpt>
      <trkpt lat="44.04934" lon="5.37111">
        <ele>769.1921387</ele>
        <time>2015-11-01T09:36:18Z</time>
      </trkpt>
      <trkpt lat="44.0493" lon="5.37113">
        <ele>767.75</ele>
        <time>2015-11-01T09:36:20Z</time>
      </trkpt>
      <trkpt lat="44.04924" lon="5.3711">
        <ele>765.8276367</ele>
        <time>2015-11-01T09:36:25Z</time>
      </trkpt>
      <trkpt lat="44.04915" lon="5.37113">
        <ele>764.8662109</ele>
        <time>2015-11-01T09:36:34Z</time>
      </trkpt>
      <trkpt lat="44.04897" lon="5.37123">
        <ele>758.6174316</ele>
        <time>2015-11-01T09:36:45Z</time>
      </trkpt>
      <trkpt lat="44.04893" lon="5.37126">
        <ele>758.1369629</ele>
        <time>2015-11-01T09:36:47Z</time>
      </trkpt>
      <trkpt lat="44.0488" lon="5.37145">
        <ele>755.7336426</ele>
        <time>2015-11-01T09:36:54Z</time>
      </trkpt>
      <trkpt lat="44.0486" lon="5.37189">
        <ele>755.7336426</ele>
        <time>2015-11-01T09:37:04Z</time>
      </trkpt>
      <trkpt lat="44.04846" lon="5.3722">
        <ele>756.6948242</ele>
        <time>2015-11-01T09:37:14Z</time>
      </trkpt>
      <trkpt lat="44.04817" lon="5.37243">
        <ele>758.6174316</ele>
        <time>2015-11-01T09:37:24Z</time>
      </trkpt>
      <trkpt lat="44.04814" lon="5.37244">
        <ele>758.6174316</ele>
        <time>2015-11-01T09:37:25Z</time>
      </trkpt>
      <trkpt lat="44.04809" lon="5.37256">
        <ele>760.5400391</ele>
        <time>2015-11-01T09:37:30Z</time>
      </trkpt>
      <trkpt lat="44.04788" lon="5.37272">
        <ele>761.020752</ele>
        <time>2015-11-01T09:37:40Z</time>
      </trkpt>
      <trkpt lat="44.04776" lon="5.37287">
        <ele>760.5400391</ele>
        <time>2015-11-01T09:37:45Z</time>
      </trkpt>
      <trkpt lat="44.04762" lon="5.37286">
        <ele>755.7336426</ele>
        <time>2015-11-01T09:37:55Z</time>
      </trkpt>
      <trkpt lat="44.04755" lon="5.37287">
        <ele>753.8110352</ele>
        <time>2015-11-01T09:38:01Z</time>
      </trkpt>
      <trkpt lat="44.04742" lon="5.37303">
        <ele>751.8884277</ele>
        <time>2015-11-01T09:38:09Z</time>
      </trkpt>
      <trkpt lat="44.04739" lon="5.373">
        <ele>751.4077148</ele>
        <time>2015-11-01T09:38:11Z</time>
      </trkpt>
      <trkpt lat="44.04737" lon="5.37276">
        <ele>747.5622559</ele>
        <time>2015-11-01T09:38:16Z</time>
      </trkpt>
      <trkpt lat="44.04735" lon="5.37258">
        <ele>744.6782227</ele>
        <time>2015-11-01T09:38:19Z</time>
      </trkpt>
      <trkpt lat="44.04736" lon="5.37239">
        <ele>742.7558594</ele>
        <time>2015-11-01T09:38:22Z</time>
      </trkpt>
      <trkpt lat="44.04734" lon="5.37215">
        <ele>739.8718262</ele>
        <time>2015-11-01T09:38:26Z</time>
      </trkpt>
      <trkpt lat="44.04723" lon="5.37202">
        <ele>738.9106445</ele>
        <time>2015-11-01T09:38:30Z</time>
      </trkpt>
      <trkpt lat="44.04689" lon="5.37196">
        <ele>740.8330078</ele>
        <time>2015-11-01T09:38:39Z</time>
      </trkpt>
      <trkpt lat="44.04661" lon="5.37213">
        <ele>742.2751465</ele>
        <time>2015-11-01T09:38:47Z</time>
      </trkpt>
      <trkpt lat="44.04626" lon="5.3722">
        <ele>743.717041</ele>
        <time>2015-11-01T09:38:58Z</time>
      </trkpt>
      <trkpt lat="44.04604" lon="5.37221">
        <ele>745.6396484</ele>
        <time>2015-11-01T09:39:08Z</time>
      </trkpt>
      <trkpt lat="44.04586" lon="5.37245">
        <ele>747.081543</ele>
        <time>2015-11-01T09:39:20Z</time>
      </trkpt>
      <trkpt lat="44.04581" lon="5.37268">
        <ele>748.0432129</ele>
        <time>2015-11-01T09:39:28Z</time>
      </trkpt>
      <trkpt lat="44.04582" lon="5.3728">
        <ele>746.6010742</ele>
        <time>2015-11-01T09:39:31Z</time>
      </trkpt>
      <trkpt lat="44.04577" lon="5.37288">
        <ele>745.1589355</ele>
        <time>2015-11-01T09:39:35Z</time>
      </trkpt>
      <trkpt lat="44.04572" lon="5.3729">
        <ele>745.1589355</ele>
        <time>2015-11-01T09:39:37Z</time>
      </trkpt>
      <trkpt lat="44.04553" lon="5.37308">
        <ele>745.6396484</ele>
        <time>2015-11-01T09:39:46Z</time>
      </trkpt>
      <trkpt lat="44.04544" lon="5.37323">
        <ele>748.0432129</ele>
        <time>2015-11-01T09:39:56Z</time>
      </trkpt>
      <trkpt lat="44.0454" lon="5.37314">
        <ele>749.0043945</ele>
        <time>2015-11-01T09:40:02Z</time>
      </trkpt>
      <trkpt lat="44.04546" lon="5.37279">
        <ele>751.4077148</ele>
        <time>2015-11-01T09:40:21Z</time>
      </trkpt>
      <trkpt lat="44.04543" lon="5.37272">
        <ele>751.8884277</ele>
        <time>2015-11-01T09:40:26Z</time>
      </trkpt>
      <trkpt lat="44.04533" lon="5.37267">
        <ele>753.8110352</ele>
        <time>2015-11-01T09:40:34Z</time>
      </trkpt>
      <trkpt lat="44.04527" lon="5.37274">
        <ele>753.8110352</ele>
        <time>2015-11-01T09:40:40Z</time>
      </trkpt>
      <trkpt lat="44.0452" lon="5.37308">
        <ele>755.7336426</ele>
        <time>2015-11-01T09:41:00Z</time>
      </trkpt>
      <trkpt lat="44.04508" lon="5.37333">
        <ele>757.1755371</ele>
        <time>2015-11-01T09:41:17Z</time>
      </trkpt>
      <trkpt lat="44.04493" lon="5.3736">
        <ele>760.0593262</ele>
        <time>2015-11-01T09:41:37Z</time>
      </trkpt>
      <trkpt lat="44.04488" lon="5.3737">
        <ele>760.5400391</ele>
        <time>2015-11-01T09:41:49Z</time>
      </trkpt>
      <trkpt lat="44.04479" lon="5.37378">
        <ele>763.4240723</ele>
        <time>2015-11-01T09:42:06Z</time>
      </trkpt>
      <trkpt lat="44.04473" lon="5.37372">
        <ele>764.385498</ele>
        <time>2015-11-01T09:42:22Z</time>
      </trkpt>
      <trkpt lat="44.04458" lon="5.37361">
        <ele>765.3469238</ele>
        <time>2015-11-01T09:42:35Z</time>
      </trkpt>
      <trkpt lat="44.04442" lon="5.37355">
        <ele>767.2695313</ele>
        <time>2015-11-01T09:42:49Z</time>
      </trkpt>
      <trkpt lat="44.04438" lon="5.37338">
        <ele>771.1147461</ele>
        <time>2015-11-01T09:43:01Z</time>
      </trkpt>
      <trkpt lat="44.04438" lon="5.37326">
        <ele>772.0759277</ele>
        <time>2015-11-01T09:43:14Z</time>
      </trkpt>
      <trkpt lat="44.04425" lon="5.37323">
        <ele>775.4404297</ele>
        <time>2015-11-01T09:43:34Z</time>
      </trkpt>
      <trkpt lat="44.04421" lon="5.37324">
        <ele>775.9211426</ele>
        <time>2015-11-01T09:43:41Z</time>
      </trkpt>
      <trkpt lat="44.04411" lon="5.37323">
        <ele>777.84375</ele>
        <time>2015-11-01T09:43:55Z</time>
      </trkpt>
      <trkpt lat="44.04406" lon="5.37324">
        <ele>779.2856445</ele>
        <time>2015-11-01T09:44:11Z</time>
      </trkpt>
      <trkpt lat="44.044" lon="5.37324">
        <ele>780.2473145</ele>
        <time>2015-11-01T09:44:27Z</time>
      </trkpt>
      <trkpt lat="44.04384" lon="5.37329">
        <ele>783.1311035</ele>
        <time>2015-11-01T09:44:40Z</time>
      </trkpt>
      <trkpt lat="44.04379" lon="5.3733">
        <ele>784.0925293</ele>
        <time>2015-11-01T09:44:44Z</time>
      </trkpt>
      <trkpt lat="44.04372" lon="5.3733">
        <ele>786.0151367</ele>
        <time>2015-11-01T09:44:55Z</time>
      </trkpt>
      <trkpt lat="44.04362" lon="5.37331">
        <ele>786.9763184</ele>
        <time>2015-11-01T09:45:08Z</time>
      </trkpt>
      <trkpt lat="44.04362" lon="5.37331">
        <ele>787.4570313</ele>
        <time>2015-11-01T09:45:09Z</time>
      </trkpt>
      <trkpt lat="44.04349" lon="5.37332">
        <ele>789.3796387</ele>
        <time>2015-11-01T09:45:22Z</time>
      </trkpt>
      <trkpt lat="44.04339" lon="5.37329">
        <ele>791.3022461</ele>
        <time>2015-11-01T09:45:33Z</time>
      </trkpt>
      <trkpt lat="44.04325" lon="5.3732">
        <ele>792.2636719</ele>
        <time>2015-11-01T09:45:48Z</time>
      </trkpt>
      <trkpt lat="44.04312" lon="5.37309">
        <ele>794.1862793</ele>
        <time>2015-11-01T09:46:00Z</time>
      </trkpt>
      <trkpt lat="44.04307" lon="5.37305">
        <ele>794.666748</ele>
        <time>2015-11-01T09:46:05Z</time>
      </trkpt>
      <trkpt lat="44.04295" lon="5.37298">
        <ele>795.1474609</ele>
        <time>2015-11-01T09:46:14Z</time>
      </trkpt>
      <trkpt lat="44.04279" lon="5.37283">
        <ele>795.6281738</ele>
        <time>2015-11-01T09:46:26Z</time>
      </trkpt>
      <trkpt lat="44.04261" lon="5.3726">
        <ele>796.5898438</ele>
        <time>2015-11-01T09:46:40Z</time>
      </trkpt>
      <trkpt lat="44.04247" lon="5.37239">
        <ele>798.0317383</ele>
        <time>2015-11-01T09:46:52Z</time>
      </trkpt>
      <trkpt lat="44.04238" lon="5.37228">
        <ele>799.9543457</ele>
        <time>2015-11-01T09:47:00Z</time>
      </trkpt>
      <trkpt lat="44.04222" lon="5.37209">
        <ele>800.4350586</ele>
        <time>2015-11-01T09:47:13Z</time>
      </trkpt>
      <trkpt lat="44.04204" lon="5.37189">
        <ele>803.7995605</ele>
        <time>2015-11-01T09:47:29Z</time>
      </trkpt>
      <trkpt lat="44.0419" lon="5.37173">
        <ele>805.722168</ele>
        <time>2015-11-01T09:47:42Z</time>
      </trkpt>
      <trkpt lat="44.04175" lon="5.37148">
        <ele>805.2414551</ele>
        <time>2015-11-01T09:47:58Z</time>
      </trkpt>
      <trkpt lat="44.04165" lon="5.37126">
        <ele>806.2026367</ele>
        <time>2015-11-01T09:48:11Z</time>
      </trkpt>
      <trkpt lat="44.04151" lon="5.37109">
        <ele>807.6447754</ele>
        <time>2015-11-01T09:48:23Z</time>
      </trkpt>
      <trkpt lat="44.04143" lon="5.37098">
        <ele>808.1254883</ele>
        <time>2015-11-01T09:48:29Z</time>
      </trkpt>
      <trkpt lat="44.04147" lon="5.3709">
        <ele>808.605957</ele>
        <time>2015-11-01T09:48:34Z</time>
      </trkpt>
      <trkpt lat="44.04154" lon="5.37088">
        <ele>809.0866699</ele>
        <time>2015-11-01T09:48:37Z</time>
      </trkpt>
      <trkpt lat="44.04164" lon="5.3708">
        <ele>808.605957</ele>
        <time>2015-11-01T09:48:42Z</time>
      </trkpt>
      <trkpt lat="44.04168" lon="5.37074">
        <ele>808.605957</ele>
        <time>2015-11-01T09:48:45Z</time>
      </trkpt>
      <trkpt lat="44.04181" lon="5.37058">
        <ele>809.5673828</ele>
        <time>2015-11-01T09:48:53Z</time>
      </trkpt>
      <trkpt lat="44.04187" lon="5.37017">
        <ele>810.5285645</ele>
        <time>2015-11-01T09:49:06Z</time>
      </trkpt>
      <trkpt lat="44.04193" lon="5.37015">
        <ele>810.5285645</ele>
        <time>2015-11-01T09:49:09Z</time>
      </trkpt>
      <trkpt lat="44.042" lon="5.37008">
        <ele>810.5285645</ele>
        <time>2015-11-01T09:49:13Z</time>
      </trkpt>
      <trkpt lat="44.04224" lon="5.37003">
        <ele>811.0092773</ele>
        <time>2015-11-01T09:49:23Z</time>
      </trkpt>
      <trkpt lat="44.04241" lon="5.36998">
        <ele>811.4899902</ele>
        <time>2015-11-01T09:49:29Z</time>
      </trkpt>
      <trkpt lat="44.04247" lon="5.3699">
        <ele>811.9707031</ele>
        <time>2015-11-01T09:49:33Z</time>
      </trkpt>
      <trkpt lat="44.04263" lon="5.36964">
        <ele>813.4128418</ele>
        <time>2015-11-01T09:49:44Z</time>
      </trkpt>
      <trkpt lat="44.04264" lon="5.36962">
        <ele>812.9321289</ele>
        <time>2015-11-01T09:49:45Z</time>
      </trkpt>
      <trkpt lat="44.0427" lon="5.36962">
        <ele>811.4899902</ele>
        <time>2015-11-01T09:49:48Z</time>
      </trkpt>
      <trkpt lat="44.04276" lon="5.3695">
        <ele>811.0092773</ele>
        <time>2015-11-01T09:49:54Z</time>
      </trkpt>
      <trkpt lat="44.04301" lon="5.3692">
        <ele>808.1254883</ele>
        <time>2015-11-01T09:50:04Z</time>
      </trkpt>
      <trkpt lat="44.04306" lon="5.36913">
        <ele>807.1640625</ele>
        <time>2015-11-01T09:50:06Z</time>
      </trkpt>
      <trkpt lat="44.04306" lon="5.36898">
        <ele>807.1640625</ele>
        <time>2015-11-01T09:50:10Z</time>
      </trkpt>
      <trkpt lat="44.04292" lon="5.3687">
        <ele>807.6447754</ele>
        <time>2015-11-01T09:50:19Z</time>
      </trkpt>
      <trkpt lat="44.04291" lon="5.36865">
        <ele>806.6833496</ele>
        <time>2015-11-01T09:50:20Z</time>
      </trkpt>
      <trkpt lat="44.04289" lon="5.36846">
        <ele>804.2802734</ele>
        <time>2015-11-01T09:50:23Z</time>
      </trkpt>
      <trkpt lat="44.04285" lon="5.36832">
        <ele>803.3188477</ele>
        <time>2015-11-01T09:50:25Z</time>
      </trkpt>
      <trkpt lat="44.04285" lon="5.36815">
        <ele>801.3962402</ele>
        <time>2015-11-01T09:50:29Z</time>
      </trkpt>
      <trkpt lat="44.04291" lon="5.36797">
        <ele>798.9929199</ele>
        <time>2015-11-01T09:50:33Z</time>
      </trkpt>
      <trkpt lat="44.04294" lon="5.36782">
        <ele>798.512207</ele>
        <time>2015-11-01T09:50:35Z</time>
      </trkpt>
      <trkpt lat="44.0429" lon="5.36747">
        <ele>798.512207</ele>
        <time>2015-11-01T09:50:42Z</time>
      </trkpt>
      <trkpt lat="44.04286" lon="5.3673">
        <ele>798.9929199</ele>
        <time>2015-11-01T09:50:46Z</time>
      </trkpt>
      <trkpt lat="44.0429" lon="5.36719">
        <ele>798.9929199</ele>
        <time>2015-11-01T09:50:50Z</time>
      </trkpt>
      <trkpt lat="44.0429" lon="5.36705">
        <ele>799.4736328</ele>
        <time>2015-11-01T09:50:55Z</time>
      </trkpt>
      <trkpt lat="44.04289" lon="5.36677">
        <ele>799.9543457</ele>
        <time>2015-11-01T09:51:06Z</time>
      </trkpt>
      <trkpt lat="44.04284" lon="5.36671">
        <ele>800.4350586</ele>
        <time>2015-11-01T09:51:15Z</time>
      </trkpt>
      <trkpt lat="44.04284" lon="5.36669">
        <ele>800.9155273</ele>
        <time>2015-11-01T09:51:21Z</time>
      </trkpt>
      <trkpt lat="44.04283" lon="5.36666">
        <ele>801.3962402</ele>
        <time>2015-11-01T09:51:23Z</time>
      </trkpt>
      <trkpt lat="44.04279" lon="5.36665">
        <ele>801.8769531</ele>
        <time>2015-11-01T09:51:26Z</time>
      </trkpt>
      <trkpt lat="44.04276" lon="5.36664">
        <ele>802.3574219</ele>
        <time>2015-11-01T09:51:29Z</time>
      </trkpt>
      <trkpt lat="44.0427" lon="5.36664">
        <ele>803.3188477</ele>
        <time>2015-11-01T09:51:33Z</time>
      </trkpt>
      <trkpt lat="44.04266" lon="5.36662">
        <ele>803.7995605</ele>
        <time>2015-11-01T09:51:37Z</time>
      </trkpt>
      <trkpt lat="44.04264" lon="5.36659">
        <ele>804.7607422</ele>
        <time>2015-11-01T09:51:46Z</time>
      </trkpt>
      <trkpt lat="44.04258" lon="5.36648">
        <ele>807.6447754</ele>
        <time>2015-11-01T09:51:58Z</time>
      </trkpt>
      <trkpt lat="44.04255" lon="5.36643">
        <ele>808.605957</ele>
        <time>2015-11-01T09:52:09Z</time>
      </trkpt>
      <trkpt lat="44.04252" lon="5.36641">
        <ele>809.0866699</ele>
        <time>2015-11-01T09:52:25Z</time>
      </trkpt>
      <trkpt lat="44.04252" lon="5.36641">
        <ele>809.0866699</ele>
        <time>2015-11-01T09:52:32Z</time>
      </trkpt>
      <trkpt lat="44.04256" lon="5.36632">
        <ele>809.0866699</ele>
        <time>2015-11-01T09:52:37Z</time>
      </trkpt>
      <trkpt lat="44.04263" lon="5.36625">
        <ele>808.1254883</ele>
        <time>2015-11-01T09:52:41Z</time>
      </trkpt>
      <trkpt lat="44.04264" lon="5.36615">
        <ele>807.6447754</ele>
        <time>2015-11-01T09:52:45Z</time>
      </trkpt>
      <trkpt lat="44.04266" lon="5.36607">
        <ele>807.1640625</ele>
        <time>2015-11-01T09:52:48Z</time>
      </trkpt>
      <trkpt lat="44.04264" lon="5.36596">
        <ele>808.1254883</ele>
        <time>2015-11-01T09:52:52Z</time>
      </trkpt>
      <trkpt lat="44.0426" lon="5.3657">
        <ele>808.605957</ele>
        <time>2015-11-01T09:53:01Z</time>
      </trkpt>
      <trkpt lat="44.04253" lon="5.36533">
        <ele>807.6447754</ele>
        <time>2015-11-01T09:53:10Z</time>
      </trkpt>
      <trkpt lat="44.04259" lon="5.36492">
        <ele>803.3188477</ele>
        <time>2015-11-01T09:53:19Z</time>
      </trkpt>
      <trkpt lat="44.04263" lon="5.36481">
        <ele>803.3188477</ele>
        <time>2015-11-01T09:53:22Z</time>
      </trkpt>
      <trkpt lat="44.04274" lon="5.36459">
        <ele>804.7607422</ele>
        <time>2015-11-01T09:53:30Z</time>
      </trkpt>
      <trkpt lat="44.04275" lon="5.36452">
        <ele>805.722168</ele>
        <time>2015-11-01T09:53:34Z</time>
      </trkpt>
      <trkpt lat="44.0427" lon="5.36437">
        <ele>806.6833496</ele>
        <time>2015-11-01T09:53:40Z</time>
      </trkpt>
      <trkpt lat="44.04272" lon="5.36422">
        <ele>809.0866699</ele>
        <time>2015-11-01T09:53:47Z</time>
      </trkpt>
      <trkpt lat="44.04273" lon="5.36405">
        <ele>809.5673828</ele>
        <time>2015-11-01T09:53:55Z</time>
      </trkpt>
      <trkpt lat="44.04281" lon="5.36392">
        <ele>809.0866699</ele>
        <time>2015-11-01T09:54:03Z</time>
      </trkpt>
      <trkpt lat="44.0429" lon="5.36369">
        <ele>810.0478516</ele>
        <time>2015-11-01T09:54:14Z</time>
      </trkpt>
      <trkpt lat="44.04296" lon="5.3636">
        <ele>810.5285645</ele>
        <time>2015-11-01T09:54:18Z</time>
      </trkpt>
      <trkpt lat="44.04297" lon="5.36348">
        <ele>810.0478516</ele>
        <time>2015-11-01T09:54:23Z</time>
      </trkpt>
      <trkpt lat="44.0429" lon="5.3634">
        <ele>810.0478516</ele>
        <time>2015-11-01T09:54:28Z</time>
      </trkpt>
      <trkpt lat="44.04283" lon="5.36334">
        <ele>810.0478516</ele>
        <time>2015-11-01T09:54:32Z</time>
      </trkpt>
      <trkpt lat="44.04284" lon="5.36325">
        <ele>810.5285645</ele>
        <time>2015-11-01T09:54:38Z</time>
      </trkpt>
      <trkpt lat="44.04286" lon="5.36313">
        <ele>810.0478516</ele>
        <time>2015-11-01T09:54:42Z</time>
      </trkpt>
      <trkpt lat="44.04283" lon="5.36308">
        <ele>809.5673828</ele>
        <time>2015-11-01T09:54:45Z</time>
      </trkpt>
      <trkpt lat="44.04285" lon="5.3629">
        <ele>808.1254883</ele>
        <time>2015-11-01T09:54:50Z</time>
      </trkpt>
      <trkpt lat="44.04275" lon="5.36267">
        <ele>806.6833496</ele>
        <time>2015-11-01T09:54:56Z</time>
      </trkpt>
      <trkpt lat="44.04267" lon="5.36265">
        <ele>806.6833496</ele>
        <time>2015-11-01T09:55:01Z</time>
      </trkpt>
      <trkpt lat="44.04261" lon="5.36251">
        <ele>805.2414551</ele>
        <time>2015-11-01T09:55:05Z</time>
      </trkpt>
      <trkpt lat="44.04238" lon="5.36232">
        <ele>803.7995605</ele>
        <time>2015-11-01T09:55:13Z</time>
      </trkpt>
      <trkpt lat="44.04218" lon="5.36223">
        <ele>802.3574219</ele>
        <time>2015-11-01T09:55:18Z</time>
      </trkpt>
      <trkpt lat="44.04201" lon="5.36217">
        <ele>801.8769531</ele>
        <time>2015-11-01T09:55:22Z</time>
      </trkpt>
      <trkpt lat="44.04198" lon="5.36191">
        <ele>798.0317383</ele>
        <time>2015-11-01T09:55:28Z</time>
      </trkpt>
      <trkpt lat="44.04207" lon="5.36174">
        <ele>793.7055664</ele>
        <time>2015-11-01T09:55:32Z</time>
      </trkpt>
      <trkpt lat="44.04232" lon="5.3615">
        <ele>788.8991699</ele>
        <time>2015-11-01T09:55:39Z</time>
      </trkpt>
      <trkpt lat="44.04264" lon="5.36136">
        <ele>786.0151367</ele>
        <time>2015-11-01T09:55:44Z</time>
      </trkpt>
      <trkpt lat="44.04289" lon="5.36133">
        <ele>786.0151367</ele>
        <time>2015-11-01T09:55:48Z</time>
      </trkpt>
      <trkpt lat="44.04321" lon="5.36115">
        <ele>782.6506348</ele>
        <time>2015-11-01T09:55:55Z</time>
      </trkpt>
      <trkpt lat="44.04353" lon="5.36105">
        <ele>779.7663574</ele>
        <time>2015-11-01T09:56:01Z</time>
      </trkpt>
      <trkpt lat="44.04359" lon="5.36069">
        <ele>774.9599609</ele>
        <time>2015-11-01T09:56:08Z</time>
      </trkpt>
      <trkpt lat="44.0436" lon="5.36053">
        <ele>772.0759277</ele>
        <time>2015-11-01T09:56:11Z</time>
      </trkpt>
      <trkpt lat="44.04355" lon="5.36041">
        <ele>770.1533203</ele>
        <time>2015-11-01T09:56:14Z</time>
      </trkpt>
      <trkpt lat="44.0434" lon="5.36025">
        <ele>766.7888184</ele>
        <time>2015-11-01T09:56:19Z</time>
      </trkpt>
      <trkpt lat="44.04333" lon="5.35987">
        <ele>763.4240723</ele>
        <time>2015-11-01T09:56:25Z</time>
      </trkpt>
      <trkpt lat="44.04336" lon="5.35976">
        <ele>761.9821777</ele>
        <time>2015-11-01T09:56:27Z</time>
      </trkpt>
      <trkpt lat="44.04329" lon="5.35962">
        <ele>759.5788574</ele>
        <time>2015-11-01T09:56:31Z</time>
      </trkpt>
      <trkpt lat="44.04319" lon="5.35939">
        <ele>755.7336426</ele>
        <time>2015-11-01T09:56:40Z</time>
      </trkpt>
      <trkpt lat="44.04319" lon="5.35939">
        <ele>755.7336426</ele>
        <time>2015-11-01T09:56:45Z</time>
      </trkpt>
      <trkpt lat="44.04312" lon="5.35938">
        <ele>754.7722168</ele>
        <time>2015-11-01T09:56:49Z</time>
      </trkpt>
      <trkpt lat="44.04272" lon="5.35956">
        <ele>753.8110352</ele>
        <time>2015-11-01T09:57:00Z</time>
      </trkpt>
      <trkpt lat="44.04246" lon="5.35975">
        <ele>752.8496094</ele>
        <time>2015-11-01T09:57:07Z</time>
      </trkpt>
      <trkpt lat="44.04221" lon="5.35981">
        <ele>753.3303223</ele>
        <time>2015-11-01T09:57:13Z</time>
      </trkpt>
      <trkpt lat="44.04178" lon="5.35964">
        <ele>755.2529297</ele>
        <time>2015-11-01T09:57:26Z</time>
      </trkpt>
      <trkpt lat="44.04145" lon="5.3595">
        <ele>757.1755371</ele>
        <time>2015-11-01T09:57:38Z</time>
      </trkpt>
      <trkpt lat="44.04122" lon="5.35946">
        <ele>755.7336426</ele>
        <time>2015-11-01T09:57:47Z</time>
      </trkpt>
      <trkpt lat="44.0409" lon="5.35934">
        <ele>759.5788574</ele>
        <time>2015-11-01T09:57:58Z</time>
      </trkpt>
      <trkpt lat="44.04054" lon="5.35938">
        <ele>758.6174316</ele>
        <time>2015-11-01T09:58:09Z</time>
      </trkpt>
      <trkpt lat="44.04007" lon="5.35939">
        <ele>757.1755371</ele>
        <time>2015-11-01T09:58:22Z</time>
      </trkpt>
      <trkpt lat="44.03974" lon="5.3594">
        <ele>755.2529297</ele>
        <time>2015-11-01T09:58:32Z</time>
      </trkpt>
      <trkpt lat="44.03965" lon="5.35937">
        <ele>754.7722168</ele>
        <time>2015-11-01T09:58:34Z</time>
      </trkpt>
      <trkpt lat="44.03934" lon="5.3593">
        <ele>754.7722168</ele>
        <time>2015-11-01T09:58:43Z</time>
      </trkpt>
      <trkpt lat="44.03922" lon="5.35924">
        <ele>754.7722168</ele>
        <time>2015-11-01T09:58:49Z</time>
      </trkpt>
      <trkpt lat="44.03924" lon="5.35924">
        <ele>754.7722168</ele>
        <time>2015-11-01T09:58:53Z</time>
      </trkpt>
      <trkpt lat="44.03928" lon="5.35925">
        <ele>754.291748</ele>
        <time>2015-11-01T09:58:58Z</time>
      </trkpt>
      <trkpt lat="44.03936" lon="5.35928">
        <ele>754.291748</ele>
        <time>2015-11-01T09:59:03Z</time>
      </trkpt>
      <trkpt lat="44.03935" lon="5.35935">
        <ele>755.7336426</ele>
        <time>2015-11-01T09:59:11Z</time>
      </trkpt>
      <trkpt lat="44.03934" lon="5.35934">
        <ele>755.2529297</ele>
        <time>2015-11-01T09:59:12Z</time>
      </trkpt>
      <trkpt lat="44.03913" lon="5.35934">
        <ele>756.2141113</ele>
        <time>2015-11-01T09:59:21Z</time>
      </trkpt>
      <trkpt lat="44.03891" lon="5.35931">
        <ele>756.6948242</ele>
        <time>2015-11-01T09:59:28Z</time>
      </trkpt>
      <trkpt lat="44.0386" lon="5.3593">
        <ele>756.6948242</ele>
        <time>2015-11-01T09:59:37Z</time>
      </trkpt>
      <trkpt lat="44.03835" lon="5.3593">
        <ele>756.6948242</ele>
        <time>2015-11-01T09:59:43Z</time>
      </trkpt>
      <trkpt lat="44.03792" lon="5.35929">
        <ele>754.291748</ele>
        <time>2015-11-01T09:59:52Z</time>
      </trkpt>
      <trkpt lat="44.03743" lon="5.35931">
        <ele>752.8496094</ele>
        <time>2015-11-01T10:00:02Z</time>
      </trkpt>
      <trkpt lat="44.03729" lon="5.3593">
        <ele>752.3688965</ele>
        <time>2015-11-01T10:00:05Z</time>
      </trkpt>
      <trkpt lat="44.03697" lon="5.35929">
        <ele>752.3688965</ele>
        <time>2015-11-01T10:00:13Z</time>
      </trkpt>
      <trkpt lat="44.03661" lon="5.35922">
        <ele>752.8496094</ele>
        <time>2015-11-01T10:00:22Z</time>
      </trkpt>
      <trkpt lat="44.03634" lon="5.35919">
        <ele>753.8110352</ele>
        <time>2015-11-01T10:00:31Z</time>
      </trkpt>
      <trkpt lat="44.03606" lon="5.35908">
        <ele>756.2141113</ele>
        <time>2015-11-01T10:00:43Z</time>
      </trkpt>
      <trkpt lat="44.03585" lon="5.35891">
        <ele>758.6174316</ele>
        <time>2015-11-01T10:00:56Z</time>
      </trkpt>
      <trkpt lat="44.03561" lon="5.35867">
        <ele>759.5788574</ele>
        <time>2015-11-01T10:01:11Z</time>
      </trkpt>
      <trkpt lat="44.03537" lon="5.35839">
        <ele>761.020752</ele>
        <time>2015-11-01T10:01:22Z</time>
      </trkpt>
      <trkpt lat="44.03513" lon="5.35818">
        <ele>762.9433594</ele>
        <time>2015-11-01T10:01:33Z</time>
      </trkpt>
      <trkpt lat="44.03501" lon="5.35795">
        <ele>764.8662109</ele>
        <time>2015-11-01T10:01:44Z</time>
      </trkpt>
      <trkpt lat="44.03488" lon="5.3578">
        <ele>765.8276367</ele>
        <time>2015-11-01T10:01:55Z</time>
      </trkpt>
      <trkpt lat="44.03473" lon="5.35758">
        <ele>768.2307129</ele>
        <time>2015-11-01T10:02:09Z</time>
      </trkpt>
      <trkpt lat="44.03458" lon="5.35743">
        <ele>768.7114258</ele>
        <time>2015-11-01T10:02:20Z</time>
      </trkpt>
      <trkpt lat="44.03443" lon="5.35723">
        <ele>769.1921387</ele>
        <time>2015-11-01T10:02:32Z</time>
      </trkpt>
      <trkpt lat="44.03441" lon="5.3572">
        <ele>770.6340332</ele>
        <time>2015-11-01T10:02:42Z</time>
      </trkpt>
      <trkpt lat="44.03435" lon="5.35713">
        <ele>770.6340332</ele>
        <time>2015-11-01T10:02:57Z</time>
      </trkpt>
      <trkpt lat="44.03425" lon="5.35701">
        <ele>771.5952148</ele>
        <time>2015-11-01T10:03:04Z</time>
      </trkpt>
      <trkpt lat="44.03423" lon="5.35698">
        <ele>772.5566406</ele>
        <time>2015-11-01T10:03:06Z</time>
      </trkpt>
      <trkpt lat="44.03411" lon="5.35683">
        <ele>775.4404297</ele>
        <time>2015-11-01T10:03:16Z</time>
      </trkpt>
      <trkpt lat="44.03409" lon="5.35678">
        <ele>774.9599609</ele>
        <time>2015-11-01T10:03:19Z</time>
      </trkpt>
      <trkpt lat="44.03395" lon="5.35664">
        <ele>776.4018555</ele>
        <time>2015-11-01T10:03:32Z</time>
      </trkpt>
      <trkpt lat="44.03391" lon="5.35659">
        <ele>776.8825684</ele>
        <time>2015-11-01T10:03:36Z</time>
      </trkpt>
      <trkpt lat="44.0339" lon="5.35656">
        <ele>775.9211426</ele>
        <time>2015-11-01T10:03:38Z</time>
      </trkpt>
      <trkpt lat="44.03378" lon="5.35642">
        <ele>777.84375</ele>
        <time>2015-11-01T10:03:51Z</time>
      </trkpt>
      <trkpt lat="44.03376" lon="5.35638">
        <ele>778.8051758</ele>
        <time>2015-11-01T10:03:54Z</time>
      </trkpt>
      <trkpt lat="44.03364" lon="5.3562">
        <ele>778.3244629</ele>
        <time>2015-11-01T10:04:06Z</time>
      </trkpt>
      <trkpt lat="44.03361" lon="5.35618">
        <ele>777.84375</ele>
        <time>2015-11-01T10:04:08Z</time>
      </trkpt>
      <trkpt lat="44.0336" lon="5.35616">
        <ele>777.84375</ele>
        <time>2015-11-01T10:04:10Z</time>
      </trkpt>
      <trkpt lat="44.03347" lon="5.35602">
        <ele>779.7663574</ele>
        <time>2015-11-01T10:04:22Z</time>
      </trkpt>
      <trkpt lat="44.03325" lon="5.35588">
        <ele>781.2087402</ele>
        <time>2015-11-01T10:04:36Z</time>
      </trkpt>
      <trkpt lat="44.03296" lon="5.35565">
        <ele>780.2473145</ele>
        <time>2015-11-01T10:04:50Z</time>
      </trkpt>
      <trkpt lat="44.03289" lon="5.3556">
        <ele>782.6506348</ele>
        <time>2015-11-01T10:05:00Z</time>
      </trkpt>
      <trkpt lat="44.0328" lon="5.35551">
        <ele>783.6118164</ele>
        <time>2015-11-01T10:05:29Z</time>
      </trkpt>
      <trkpt lat="44.03277" lon="5.35543">
        <ele>784.0925293</ele>
        <time>2015-11-01T10:05:33Z</time>
      </trkpt>
      <trkpt lat="44.03259" lon="5.3552">
        <ele>786.0151367</ele>
        <time>2015-11-01T10:05:48Z</time>
      </trkpt>
      <trkpt lat="44.0324" lon="5.35498">
        <ele>787.4570313</ele>
        <time>2015-11-01T10:06:04Z</time>
      </trkpt>
      <trkpt lat="44.03234" lon="5.35491">
        <ele>787.9377441</ele>
        <time>2015-11-01T10:06:14Z</time>
      </trkpt>
      <trkpt lat="44.03231" lon="5.3549">
        <ele>787.9377441</ele>
        <time>2015-11-01T10:06:21Z</time>
      </trkpt>
      <trkpt lat="44.03224" lon="5.35481">
        <ele>788.8991699</ele>
        <time>2015-11-01T10:06:33Z</time>
      </trkpt>
      <trkpt lat="44.03224" lon="5.35473">
        <ele>790.3410645</ele>
        <time>2015-11-01T10:06:45Z</time>
      </trkpt>
      <trkpt lat="44.03224" lon="5.35473">
        <ele>790.3410645</ele>
        <time>2015-11-01T10:06:48Z</time>
      </trkpt>
      <trkpt lat="44.03234" lon="5.3545">
        <ele>791.782959</ele>
        <time>2015-11-01T10:06:58Z</time>
      </trkpt>
      <trkpt lat="44.03239" lon="5.35406">
        <ele>792.7443848</ele>
        <time>2015-11-01T10:07:14Z</time>
      </trkpt>
      <trkpt lat="44.03229" lon="5.35355">
        <ele>795.1474609</ele>
        <time>2015-11-01T10:07:33Z</time>
      </trkpt>
      <trkpt lat="44.03211" lon="5.35322">
        <ele>796.1091309</ele>
        <time>2015-11-01T10:07:49Z</time>
      </trkpt>
      <trkpt lat="44.03208" lon="5.35317">
        <ele>796.1091309</ele>
        <time>2015-11-01T10:07:52Z</time>
      </trkpt>
      <trkpt lat="44.03207" lon="5.35308">
        <ele>795.1474609</ele>
        <time>2015-11-01T10:08:03Z</time>
      </trkpt>
      <trkpt lat="44.03206" lon="5.35309">
        <ele>795.1474609</ele>
        <time>2015-11-01T10:08:15Z</time>
      </trkpt>
      <trkpt lat="44.03204" lon="5.35313">
        <ele>795.1474609</ele>
        <time>2015-11-01T10:08:18Z</time>
      </trkpt>
      <trkpt lat="44.03184" lon="5.35308">
        <ele>797.5510254</ele>
        <time>2015-11-01T10:08:29Z</time>
      </trkpt>
      <trkpt lat="44.0316" lon="5.35304">
        <ele>798.9929199</ele>
        <time>2015-11-01T10:08:41Z</time>
      </trkpt>
      <trkpt lat="44.03116" lon="5.35314">
        <ele>801.3962402</ele>
        <time>2015-11-01T10:09:01Z</time>
      </trkpt>
      <trkpt lat="44.03098" lon="5.35321">
        <ele>802.3574219</ele>
        <time>2015-11-01T10:09:13Z</time>
      </trkpt>
      <trkpt lat="44.03096" lon="5.35321">
        <ele>802.3574219</ele>
        <time>2015-11-01T10:09:51Z</time>
      </trkpt>
      <trkpt lat="44.03088" lon="5.35286">
        <ele>802.3574219</ele>
        <time>2015-11-01T10:10:00Z</time>
      </trkpt>
      <trkpt lat="44.03085" lon="5.35226">
        <ele>804.7607422</ele>
        <time>2015-11-01T10:10:14Z</time>
      </trkpt>
      <trkpt lat="44.03093" lon="5.35189">
        <ele>804.7607422</ele>
        <time>2015-11-01T10:10:22Z</time>
      </trkpt>
      <trkpt lat="44.03087" lon="5.35145">
        <ele>803.7995605</ele>
        <time>2015-11-01T10:10:31Z</time>
      </trkpt>
      <trkpt lat="44.03087" lon="5.35094">
        <ele>804.2802734</ele>
        <time>2015-11-01T10:10:41Z</time>
      </trkpt>
      <trkpt lat="44.03087" lon="5.35068">
        <ele>805.2414551</ele>
        <time>2015-11-01T10:10:47Z</time>
      </trkpt>
      <trkpt lat="44.03069" lon="5.35017">
        <ele>807.1640625</ele>
        <time>2015-11-01T10:11:03Z</time>
      </trkpt>
      <trkpt lat="44.03054" lon="5.34983">
        <ele>809.0866699</ele>
        <time>2015-11-01T10:11:15Z</time>
      </trkpt>
      <trkpt lat="44.03053" lon="5.34979">
        <ele>809.5673828</ele>
        <time>2015-11-01T10:11:19Z</time>
      </trkpt>
      <trkpt lat="44.03054" lon="5.34961">
        <ele>810.5285645</ele>
        <time>2015-11-01T10:11:32Z</time>
      </trkpt>
      <trkpt lat="44.03047" lon="5.3495">
        <ele>811.4899902</ele>
        <time>2015-11-01T10:11:48Z</time>
      </trkpt>
      <trkpt lat="44.03047" lon="5.3495">
        <ele>811.4899902</ele>
        <time>2015-11-01T10:11:54Z</time>
      </trkpt>
      <trkpt lat="44.03045" lon="5.34921">
        <ele>813.4128418</ele>
        <time>2015-11-01T10:12:05Z</time>
      </trkpt>
      <trkpt lat="44.03037" lon="5.34898">
        <ele>814.3740234</ele>
        <time>2015-11-01T10:12:17Z</time>
      </trkpt>
      <trkpt lat="44.03029" lon="5.34873">
        <ele>815.3354492</ele>
        <time>2015-11-01T10:12:31Z</time>
      </trkpt>
      <trkpt lat="44.03025" lon="5.34863">
        <ele>815.8161621</ele>
        <time>2015-11-01T10:12:37Z</time>
      </trkpt>
      <trkpt lat="44.03024" lon="5.34859">
        <ele>816.2966309</ele>
        <time>2015-11-01T10:12:40Z</time>
      </trkpt>
      <trkpt lat="44.03009" lon="5.34831">
        <ele>817.7385254</ele>
        <time>2015-11-01T10:12:57Z</time>
      </trkpt>
      <trkpt lat="44.03" lon="5.34814">
        <ele>818.2192383</ele>
        <time>2015-11-01T10:13:10Z</time>
      </trkpt>
      <trkpt lat="44.02992" lon="5.34796">
        <ele>820.6225586</ele>
        <time>2015-11-01T10:13:20Z</time>
      </trkpt>
      <trkpt lat="44.02977" lon="5.34769">
        <ele>821.1032715</ele>
        <time>2015-11-01T10:13:37Z</time>
      </trkpt>
      <trkpt lat="44.02963" lon="5.3474">
        <ele>823.9870605</ele>
        <time>2015-11-01T10:13:56Z</time>
      </trkpt>
      <trkpt lat="44.02952" lon="5.34715">
        <ele>824.9484863</ele>
        <time>2015-11-01T10:14:10Z</time>
      </trkpt>
      <trkpt lat="44.02947" lon="5.34707">
        <ele>825.909668</ele>
        <time>2015-11-01T10:14:15Z</time>
      </trkpt>
      <trkpt lat="44.02931" lon="5.34688">
        <ele>827.8322754</ele>
        <time>2015-11-01T10:14:29Z</time>
      </trkpt>
      <trkpt lat="44.02919" lon="5.34679">
        <ele>829.2744141</ele>
        <time>2015-11-01T10:14:39Z</time>
      </trkpt>
      <trkpt lat="44.02917" lon="5.34674">
        <ele>829.2744141</ele>
        <time>2015-11-01T10:14:53Z</time>
      </trkpt>
      <trkpt lat="44.02917" lon="5.34675">
        <ele>829.755127</ele>
        <time>2015-11-01T10:15:11Z</time>
      </trkpt>
      <trkpt lat="44.02897" lon="5.34664">
        <ele>832.1584473</ele>
        <time>2015-11-01T10:15:24Z</time>
      </trkpt>
      <trkpt lat="44.02882" lon="5.3465">
        <ele>833.1196289</ele>
        <time>2015-11-01T10:15:34Z</time>
      </trkpt>
      <trkpt lat="44.02868" lon="5.34636">
        <ele>835.0424805</ele>
        <time>2015-11-01T10:15:47Z</time>
      </trkpt>
      <trkpt lat="44.02852" lon="5.3462">
        <ele>837.9262695</ele>
        <time>2015-11-01T10:16:01Z</time>
      </trkpt>
      <trkpt lat="44.02836" lon="5.34599">
        <ele>839.848877</ele>
        <time>2015-11-01T10:16:15Z</time>
      </trkpt>
      <trkpt lat="44.02816" lon="5.34576">
        <ele>841.7714844</ele>
        <time>2015-11-01T10:16:28Z</time>
      </trkpt>
      <trkpt lat="44.02813" lon="5.34573">
        <ele>842.7329102</ele>
        <time>2015-11-01T10:16:30Z</time>
      </trkpt>
      <trkpt lat="44.0279" lon="5.34543">
        <ele>842.2521973</ele>
        <time>2015-11-01T10:16:42Z</time>
      </trkpt>
      <trkpt lat="44.02766" lon="5.34523">
        <ele>844.1750488</ele>
        <time>2015-11-01T10:16:51Z</time>
      </trkpt>
      <trkpt lat="44.02762" lon="5.34514">
        <ele>844.6555176</ele>
        <time>2015-11-01T10:16:53Z</time>
      </trkpt>
      <trkpt lat="44.02748" lon="5.34498">
        <ele>843.2133789</ele>
        <time>2015-11-01T10:16:57Z</time>
      </trkpt>
      <trkpt lat="44.0273" lon="5.34456">
        <ele>845.6169434</ele>
        <time>2015-11-01T10:17:06Z</time>
      </trkpt>
      <trkpt lat="44.02726" lon="5.34447">
        <ele>846.5783691</ele>
        <time>2015-11-01T10:17:10Z</time>
      </trkpt>
      <trkpt lat="44.02728" lon="5.34437">
        <ele>847.5395508</ele>
        <time>2015-11-01T10:17:14Z</time>
      </trkpt>
      <trkpt lat="44.02746" lon="5.34414">
        <ele>847.5395508</ele>
        <time>2015-11-01T10:17:26Z</time>
      </trkpt>
      <trkpt lat="44.02766" lon="5.34398">
        <ele>848.9814453</ele>
        <time>2015-11-01T10:17:38Z</time>
      </trkpt>
      <trkpt lat="44.0277" lon="5.34393">
        <ele>849.4621582</ele>
        <time>2015-11-01T10:17:41Z</time>
      </trkpt>
      <trkpt lat="44.02772" lon="5.34386">
        <ele>849.9428711</ele>
        <time>2015-11-01T10:17:44Z</time>
      </trkpt>
      <trkpt lat="44.02785" lon="5.34376">
        <ele>848.9814453</ele>
        <time>2015-11-01T10:17:54Z</time>
      </trkpt>
      <trkpt lat="44.02794" lon="5.34358">
        <ele>849.9428711</ele>
        <time>2015-11-01T10:18:09Z</time>
      </trkpt>
      <trkpt lat="44.02798" lon="5.34351">
        <ele>849.9428711</ele>
        <time>2015-11-01T10:18:40Z</time>
      </trkpt>
      <trkpt lat="44.02799" lon="5.34348">
        <ele>849.9428711</ele>
        <time>2015-11-01T10:18:42Z</time>
      </trkpt>
      <trkpt lat="44.02804" lon="5.34342">
        <ele>849.9428711</ele>
        <time>2015-11-01T10:18:51Z</time>
      </trkpt>
      <trkpt lat="44.02809" lon="5.34335">
        <ele>850.423584</ele>
        <time>2015-11-01T10:19:01Z</time>
      </trkpt>
      <trkpt lat="44.02815" lon="5.34325">
        <ele>851.3847656</ele>
        <time>2015-11-01T10:19:16Z</time>
      </trkpt>
      <trkpt lat="44.02824" lon="5.34313">
        <ele>852.8266602</ele>
        <time>2015-11-01T10:19:31Z</time>
      </trkpt>
      <trkpt lat="44.0283" lon="5.34307">
        <ele>853.307373</ele>
        <time>2015-11-01T10:19:43Z</time>
      </trkpt>
      <trkpt lat="44.02837" lon="5.34298">
        <ele>854.2687988</ele>
        <time>2015-11-01T10:19:58Z</time>
      </trkpt>
      <trkpt lat="44.02848" lon="5.34286">
        <ele>856.1911621</ele>
        <time>2015-11-01T10:20:09Z</time>
      </trkpt>
      <trkpt lat="44.0286" lon="5.34271">
        <ele>857.1525879</ele>
        <time>2015-11-01T10:20:20Z</time>
      </trkpt>
      <trkpt lat="44.02874" lon="5.34259">
        <ele>858.5944824</ele>
        <time>2015-11-01T10:20:33Z</time>
      </trkpt>
      <trkpt lat="44.02882" lon="5.34249">
        <ele>859.5559082</ele>
        <time>2015-11-01T10:20:45Z</time>
      </trkpt>
      <trkpt lat="44.02894" lon="5.34232">
        <ele>861.9594727</ele>
        <time>2015-11-01T10:20:59Z</time>
      </trkpt>
      <trkpt lat="44.02906" lon="5.34216">
        <ele>864.3625488</ele>
        <time>2015-11-01T10:21:11Z</time>
      </trkpt>
      <trkpt lat="44.02917" lon="5.34199">
        <ele>865.8046875</ele>
        <time>2015-11-01T10:21:24Z</time>
      </trkpt>
      <trkpt lat="44.0293" lon="5.34179">
        <ele>869.1691895</ele>
        <time>2015-11-01T10:21:37Z</time>
      </trkpt>
      <trkpt lat="44.02948" lon="5.34157">
        <ele>871.0917969</ele>
        <time>2015-11-01T10:21:52Z</time>
      </trkpt>
      <trkpt lat="44.02968" lon="5.34127">
        <ele>872.0529785</ele>
        <time>2015-11-01T10:22:09Z</time>
      </trkpt>
      <trkpt lat="44.0298" lon="5.34092">
        <ele>870.1303711</ele>
        <time>2015-11-01T10:22:22Z</time>
      </trkpt>
      <trkpt lat="44.02999" lon="5.3405">
        <ele>867.7270508</ele>
        <time>2015-11-01T10:22:34Z</time>
      </trkpt>
      <trkpt lat="44.03015" lon="5.3402">
        <ele>866.7658691</ele>
        <time>2015-11-01T10:22:41Z</time>
      </trkpt>
      <trkpt lat="44.03023" lon="5.34007">
        <ele>867.246582</ele>
        <time>2015-11-01T10:22:44Z</time>
      </trkpt>
      <trkpt lat="44.03029" lon="5.33983">
        <ele>866.7658691</ele>
        <time>2015-11-01T10:22:48Z</time>
      </trkpt>
      <trkpt lat="44.0305" lon="5.3394">
        <ele>869.1691895</ele>
        <time>2015-11-01T10:22:59Z</time>
      </trkpt>
      <trkpt lat="44.03075" lon="5.33896">
        <ele>871.5722656</ele>
        <time>2015-11-01T10:23:12Z</time>
      </trkpt>
      <trkpt lat="44.0309" lon="5.33865">
        <ele>873.9755859</ele>
        <time>2015-11-01T10:23:22Z</time>
      </trkpt>
      <trkpt lat="44.03103" lon="5.3383">
        <ele>874.4562988</ele>
        <time>2015-11-01T10:23:36Z</time>
      </trkpt>
      <trkpt lat="44.03107" lon="5.33816">
        <ele>876.8598633</ele>
        <time>2015-11-01T10:23:42Z</time>
      </trkpt>
      <trkpt lat="44.03108" lon="5.33811">
        <ele>877.3405762</ele>
        <time>2015-11-01T10:23:44Z</time>
      </trkpt>
      <trkpt lat="44.03108" lon="5.33803">
        <ele>878.3017578</ele>
        <time>2015-11-01T10:23:47Z</time>
      </trkpt>
      <trkpt lat="44.03111" lon="5.3378">
        <ele>881.185791</ele>
        <time>2015-11-01T10:23:58Z</time>
      </trkpt>
      <trkpt lat="44.03113" lon="5.33768">
        <ele>883.5888672</ele>
        <time>2015-11-01T10:24:03Z</time>
      </trkpt>
      <trkpt lat="44.03115" lon="5.33758">
        <ele>884.550293</ele>
        <time>2015-11-01T10:24:08Z</time>
      </trkpt>
      <trkpt lat="44.03112" lon="5.3375">
        <ele>884.550293</ele>
        <time>2015-11-01T10:24:10Z</time>
      </trkpt>
      <trkpt lat="44.03116" lon="5.33715">
        <ele>888.3955078</ele>
        <time>2015-11-01T10:24:22Z</time>
      </trkpt>
      <trkpt lat="44.03116" lon="5.33681">
        <ele>888.3955078</ele>
        <time>2015-11-01T10:24:30Z</time>
      </trkpt>
      <trkpt lat="44.03111" lon="5.33648">
        <ele>891.2792969</ele>
        <time>2015-11-01T10:24:40Z</time>
      </trkpt>
      <trkpt lat="44.03093" lon="5.33618">
        <ele>893.6828613</ele>
        <time>2015-11-01T10:24:50Z</time>
      </trkpt>
      <trkpt lat="44.03093" lon="5.33613">
        <ele>893.6828613</ele>
        <time>2015-11-01T10:24:52Z</time>
      </trkpt>
      <trkpt lat="44.03087" lon="5.33596">
        <ele>894.644043</ele>
        <time>2015-11-01T10:24:57Z</time>
      </trkpt>
      <trkpt lat="44.03084" lon="5.33591">
        <ele>895.1247559</ele>
        <time>2015-11-01T10:24:59Z</time>
      </trkpt>
      <trkpt lat="44.03081" lon="5.33583">
        <ele>896.0861816</ele>
        <time>2015-11-01T10:25:02Z</time>
      </trkpt>
      <trkpt lat="44.03064" lon="5.33569">
        <ele>896.5668945</ele>
        <time>2015-11-01T10:25:10Z</time>
      </trkpt>
      <trkpt lat="44.03059" lon="5.33564">
        <ele>896.5668945</ele>
        <time>2015-11-01T10:25:13Z</time>
      </trkpt>
      <trkpt lat="44.03035" lon="5.33552">
        <ele>895.6054688</ele>
        <time>2015-11-01T10:25:23Z</time>
      </trkpt>
      <trkpt lat="44.03" lon="5.33539">
        <ele>891.2792969</ele>
        <time>2015-11-01T10:25:36Z</time>
      </trkpt>
      <trkpt lat="44.02992" lon="5.33533">
        <ele>889.8374023</ele>
        <time>2015-11-01T10:25:39Z</time>
      </trkpt>
      <trkpt lat="44.02957" lon="5.33516">
        <ele>887.434082</ele>
        <time>2015-11-01T10:25:52Z</time>
      </trkpt>
      <trkpt lat="44.0292" lon="5.33497">
        <ele>883.1081543</ele>
        <time>2015-11-01T10:26:03Z</time>
      </trkpt>
      <trkpt lat="44.02886" lon="5.33471">
        <ele>878.7824707</ele>
        <time>2015-11-01T10:26:13Z</time>
      </trkpt>
      <trkpt lat="44.02876" lon="5.33463">
        <ele>879.2629395</ele>
        <time>2015-11-01T10:26:16Z</time>
      </trkpt>
      <trkpt lat="44.02861" lon="5.33443">
        <ele>877.8210449</ele>
        <time>2015-11-01T10:26:21Z</time>
      </trkpt>
      <trkpt lat="44.02833" lon="5.33401">
        <ele>876.8598633</ele>
        <time>2015-11-01T10:26:32Z</time>
      </trkpt>
      <trkpt lat="44.02807" lon="5.33371">
        <ele>878.3017578</ele>
        <time>2015-11-01T10:26:44Z</time>
      </trkpt>
      <trkpt lat="44.02798" lon="5.33367">
        <ele>878.3017578</ele>
        <time>2015-11-01T10:26:48Z</time>
      </trkpt>
      <trkpt lat="44.02772" lon="5.33354">
        <ele>879.2629395</ele>
        <time>2015-11-01T10:27:00Z</time>
      </trkpt>
      <trkpt lat="44.02747" lon="5.33337">
        <ele>875.8981934</ele>
        <time>2015-11-01T10:27:08Z</time>
      </trkpt>
      <trkpt lat="44.02737" lon="5.33324">
        <ele>873.9755859</ele>
        <time>2015-11-01T10:27:13Z</time>
      </trkpt>
      <trkpt lat="44.02727" lon="5.33318">
        <ele>873.4951172</ele>
        <time>2015-11-01T10:27:16Z</time>
      </trkpt>
      <trkpt lat="44.02717" lon="5.33306">
        <ele>872.0529785</ele>
        <time>2015-11-01T10:27:22Z</time>
      </trkpt>
      <trkpt lat="44.02713" lon="5.33305">
        <ele>873.4951172</ele>
        <time>2015-11-01T10:27:25Z</time>
      </trkpt>
      <trkpt lat="44.02707" lon="5.333">
        <ele>873.4951172</ele>
        <time>2015-11-01T10:27:30Z</time>
      </trkpt>
      <trkpt lat="44.02701" lon="5.33287">
        <ele>875.4174805</ele>
        <time>2015-11-01T10:27:40Z</time>
      </trkpt>
      <trkpt lat="44.02699" lon="5.3328">
        <ele>875.4174805</ele>
        <time>2015-11-01T10:27:44Z</time>
      </trkpt>
      <trkpt lat="44.02696" lon="5.3327">
        <ele>880.7050781</ele>
        <time>2015-11-01T10:27:55Z</time>
      </trkpt>
      <trkpt lat="44.02695" lon="5.33268">
        <ele>881.6662598</ele>
        <time>2015-11-01T10:27:57Z</time>
      </trkpt>
      <trkpt lat="44.02689" lon="5.33251">
        <ele>884.550293</ele>
        <time>2015-11-01T10:28:12Z</time>
      </trkpt>
      <trkpt lat="44.02688" lon="5.33251">
        <ele>884.550293</ele>
        <time>2015-11-01T10:28:33Z</time>
      </trkpt>
      <trkpt lat="44.0269" lon="5.3324">
        <ele>882.6276855</ele>
        <time>2015-11-01T10:28:38Z</time>
      </trkpt>
      <trkpt lat="44.02687" lon="5.33232">
        <ele>882.6276855</ele>
        <time>2015-11-01T10:28:43Z</time>
      </trkpt>
      <trkpt lat="44.02685" lon="5.33225">
        <ele>883.1081543</ele>
        <time>2015-11-01T10:28:47Z</time>
      </trkpt>
      <trkpt lat="44.02684" lon="5.33219">
        <ele>884.0695801</ele>
        <time>2015-11-01T10:28:55Z</time>
      </trkpt>
      <trkpt lat="44.02679" lon="5.33213">
        <ele>885.0310059</ele>
        <time>2015-11-01T10:29:02Z</time>
      </trkpt>
      <trkpt lat="44.02676" lon="5.33203">
        <ele>885.0310059</ele>
        <time>2015-11-01T10:29:07Z</time>
      </trkpt>
      <trkpt lat="44.02674" lon="5.33177">
        <ele>882.1469727</ele>
        <time>2015-11-01T10:29:18Z</time>
      </trkpt>
      <trkpt lat="44.02659" lon="5.33163">
        <ele>882.6276855</ele>
        <time>2015-11-01T10:29:30Z</time>
      </trkpt>
      <trkpt lat="44.0264" lon="5.33143">
        <ele>881.6662598</ele>
        <time>2015-11-01T10:29:42Z</time>
      </trkpt>
      <trkpt lat="44.0262" lon="5.33128">
        <ele>880.2243652</ele>
        <time>2015-11-01T10:29:55Z</time>
      </trkpt>
      <trkpt lat="44.02595" lon="5.33125">
        <ele>876.8598633</ele>
        <time>2015-11-01T10:30:06Z</time>
      </trkpt>
      <trkpt lat="44.02586" lon="5.33114">
        <ele>874.9370117</ele>
        <time>2015-11-01T10:30:10Z</time>
      </trkpt>
      <trkpt lat="44.02567" lon="5.33109">
        <ele>872.5336914</ele>
        <time>2015-11-01T10:30:15Z</time>
      </trkpt>
      <trkpt lat="44.02557" lon="5.33109">
        <ele>871.5722656</ele>
        <time>2015-11-01T10:30:17Z</time>
      </trkpt>
      <trkpt lat="44.02535" lon="5.33103">
        <ele>869.1691895</ele>
        <time>2015-11-01T10:30:22Z</time>
      </trkpt>
      <trkpt lat="44.02519" lon="5.3312">
        <ele>867.246582</ele>
        <time>2015-11-01T10:30:27Z</time>
      </trkpt>
      <trkpt lat="44.02504" lon="5.33114">
        <ele>867.246582</ele>
        <time>2015-11-01T10:30:31Z</time>
      </trkpt>
      <trkpt lat="44.02489" lon="5.33082">
        <ele>869.1691895</ele>
        <time>2015-11-01T10:30:42Z</time>
      </trkpt>
      <trkpt lat="44.0249" lon="5.33027">
        <ele>865.8046875</ele>
        <time>2015-11-01T10:30:52Z</time>
      </trkpt>
      <trkpt lat="44.02493" lon="5.33006">
        <ele>865.3239746</ele>
        <time>2015-11-01T10:30:55Z</time>
      </trkpt>
      <trkpt lat="44.02499" lon="5.32989">
        <ele>863.8818359</ele>
        <time>2015-11-01T10:30:58Z</time>
      </trkpt>
      <trkpt lat="44.02503" lon="5.32987">
        <ele>863.8818359</ele>
        <time>2015-11-01T10:31:08Z</time>
      </trkpt>
      <trkpt lat="44.02505" lon="5.32985">
        <ele>862.4399414</ele>
        <time>2015-11-01T10:31:13Z</time>
      </trkpt>
      <trkpt lat="44.02507" lon="5.32984">
        <ele>862.4399414</ele>
        <time>2015-11-01T10:31:31Z</time>
      </trkpt>
      <trkpt lat="44.02505" lon="5.32983">
        <ele>862.4399414</ele>
        <time>2015-11-01T10:31:55Z</time>
      </trkpt>
      <trkpt lat="44.02503" lon="5.32981">
        <ele>862.9206543</ele>
        <time>2015-11-01T10:31:58Z</time>
      </trkpt>
      <trkpt lat="44.02502" lon="5.32975">
        <ele>864.3625488</ele>
        <time>2015-11-01T10:32:04Z</time>
      </trkpt>
      <trkpt lat="44.0251" lon="5.32944">
        <ele>862.9206543</ele>
        <time>2015-11-01T10:32:13Z</time>
      </trkpt>
      <trkpt lat="44.02512" lon="5.32935">
        <ele>863.4013672</ele>
        <time>2015-11-01T10:32:20Z</time>
      </trkpt>
      <trkpt lat="44.02512" lon="5.32936">
        <ele>863.4013672</ele>
        <time>2015-11-01T10:32:31Z</time>
      </trkpt>
      <trkpt lat="44.02508" lon="5.32945">
        <ele>862.4399414</ele>
        <time>2015-11-01T10:32:37Z</time>
      </trkpt>
      <trkpt lat="44.02503" lon="5.32959">
        <ele>861.4787598</ele>
        <time>2015-11-01T10:32:41Z</time>
      </trkpt>
      <trkpt lat="44.02496" lon="5.32987">
        <ele>861.9594727</ele>
        <time>2015-11-01T10:32:49Z</time>
      </trkpt>
      <trkpt lat="44.02507" lon="5.32986">
        <ele>860.9980469</ele>
        <time>2015-11-01T10:32:55Z</time>
      </trkpt>
      <trkpt lat="44.02526" lon="5.32993">
        <ele>858.1140137</ele>
        <time>2015-11-01T10:33:00Z</time>
      </trkpt>
      <trkpt lat="44.02534" lon="5.3299">
        <ele>857.6333008</ele>
        <time>2015-11-01T10:33:02Z</time>
      </trkpt>
      <trkpt lat="44.02554" lon="5.32982">
        <ele>856.671875</ele>
        <time>2015-11-01T10:33:06Z</time>
      </trkpt>
      <trkpt lat="44.02564" lon="5.32977">
        <ele>855.2299805</ele>
        <time>2015-11-01T10:33:08Z</time>
      </trkpt>
      <trkpt lat="44.02582" lon="5.32961">
        <ele>853.7880859</ele>
        <time>2015-11-01T10:33:12Z</time>
      </trkpt>
      <trkpt lat="44.02616" lon="5.32942">
        <ele>850.9040527</ele>
        <time>2015-11-01T10:33:19Z</time>
      </trkpt>
      <trkpt lat="44.02636" lon="5.32925">
        <ele>847.5395508</ele>
        <time>2015-11-01T10:33:23Z</time>
      </trkpt>
      <trkpt lat="44.02646" lon="5.32914">
        <ele>845.1362305</ele>
        <time>2015-11-01T10:33:25Z</time>
      </trkpt>
      <trkpt lat="44.02667" lon="5.32896">
        <ele>842.2521973</ele>
        <time>2015-11-01T10:33:29Z</time>
      </trkpt>
      <trkpt lat="44.0269" lon="5.32882">
        <ele>838.8876953</ele>
        <time>2015-11-01T10:33:33Z</time>
      </trkpt>
      <trkpt lat="44.02714" lon="5.32859">
        <ele>835.0424805</ele>
        <time>2015-11-01T10:33:38Z</time>
      </trkpt>
      <trkpt lat="44.0274" lon="5.3285">
        <ele>831.6777344</ele>
        <time>2015-11-01T10:33:43Z</time>
      </trkpt>
      <trkpt lat="44.02774" lon="5.32847">
        <ele>827.8322754</ele>
        <time>2015-11-01T10:33:49Z</time>
      </trkpt>
      <trkpt lat="44.02799" lon="5.32855">
        <ele>826.3903809</ele>
        <time>2015-11-01T10:33:53Z</time>
      </trkpt>
      <trkpt lat="44.02813" lon="5.32867">
        <ele>826.3903809</ele>
        <time>2015-11-01T10:33:56Z</time>
      </trkpt>
      <trkpt lat="44.02851" lon="5.32884">
        <ele>825.4289551</ele>
        <time>2015-11-01T10:34:06Z</time>
      </trkpt>
      <trkpt lat="44.02877" lon="5.32875">
        <ele>821.1032715</ele>
        <time>2015-11-01T10:34:13Z</time>
      </trkpt>
      <trkpt lat="44.02915" lon="5.32854">
        <ele>814.8547363</ele>
        <time>2015-11-01T10:34:24Z</time>
      </trkpt>
      <trkpt lat="44.02921" lon="5.32851">
        <ele>813.8933105</ele>
        <time>2015-11-01T10:34:26Z</time>
      </trkpt>
      <trkpt lat="44.02946" lon="5.32888">
        <ele>812.9321289</ele>
        <time>2015-11-01T10:34:37Z</time>
      </trkpt>
      <trkpt lat="44.0295" lon="5.32954">
        <ele>811.9707031</ele>
        <time>2015-11-01T10:34:48Z</time>
      </trkpt>
      <trkpt lat="44.0295" lon="5.32961">
        <ele>811.9707031</ele>
        <time>2015-11-01T10:34:49Z</time>
      </trkpt>
      <trkpt lat="44.02952" lon="5.33013">
        <ele>811.0092773</ele>
        <time>2015-11-01T10:34:57Z</time>
      </trkpt>
      <trkpt lat="44.02971" lon="5.33044">
        <ele>811.4899902</ele>
        <time>2015-11-01T10:35:04Z</time>
      </trkpt>
      <trkpt lat="44.02985" lon="5.33046">
        <ele>811.9707031</ele>
        <time>2015-11-01T10:35:07Z</time>
      </trkpt>
      <trkpt lat="44.03022" lon="5.33039">
        <ele>811.9707031</ele>
        <time>2015-11-01T10:35:15Z</time>
      </trkpt>
      <trkpt lat="44.03082" lon="5.33056">
        <ele>811.4899902</ele>
        <time>2015-11-01T10:35:27Z</time>
      </trkpt>
      <trkpt lat="44.03112" lon="5.33066">
        <ele>811.4899902</ele>
        <time>2015-11-01T10:35:33Z</time>
      </trkpt>
      <trkpt lat="44.03133" lon="5.33076">
        <ele>811.4899902</ele>
        <time>2015-11-01T10:35:37Z</time>
      </trkpt>
      <trkpt lat="44.03182" lon="5.33128">
        <ele>810.5285645</ele>
        <time>2015-11-01T10:35:48Z</time>
      </trkpt>
      <trkpt lat="44.03215" lon="5.33175">
        <ele>811.0092773</ele>
        <time>2015-11-01T10:35:57Z</time>
      </trkpt>
      <trkpt lat="44.03222" lon="5.33228">
        <ele>810.5285645</ele>
        <time>2015-11-01T10:36:06Z</time>
      </trkpt>
      <trkpt lat="44.03206" lon="5.3325">
        <ele>810.5285645</ele>
        <time>2015-11-01T10:36:11Z</time>
      </trkpt>
      <trkpt lat="44.03141" lon="5.33288">
        <ele>811.0092773</ele>
        <time>2015-11-01T10:36:26Z</time>
      </trkpt>
      <trkpt lat="44.03132" lon="5.33323">
        <ele>810.5285645</ele>
        <time>2015-11-01T10:36:32Z</time>
      </trkpt>
      <trkpt lat="44.03142" lon="5.33336">
        <ele>810.5285645</ele>
        <time>2015-11-01T10:36:35Z</time>
      </trkpt>
      <trkpt lat="44.03163" lon="5.33355">
        <ele>810.0478516</ele>
        <time>2015-11-01T10:36:40Z</time>
      </trkpt>
      <trkpt lat="44.03205" lon="5.33425">
        <ele>811.0092773</ele>
        <time>2015-11-01T10:36:53Z</time>
      </trkpt>
      <trkpt lat="44.03209" lon="5.33437">
        <ele>811.0092773</ele>
        <time>2015-11-01T10:36:55Z</time>
      </trkpt>
      <trkpt lat="44.03242" lon="5.33509">
        <ele>811.4899902</ele>
        <time>2015-11-01T10:37:08Z</time>
      </trkpt>
      <trkpt lat="44.03295" lon="5.33572">
        <ele>811.9707031</ele>
        <time>2015-11-01T10:37:22Z</time>
      </trkpt>
      <trkpt lat="44.03333" lon="5.33607">
        <ele>811.9707031</ele>
        <time>2015-11-01T10:37:31Z</time>
      </trkpt>
      <trkpt lat="44.03347" lon="5.33634">
        <ele>811.9707031</ele>
        <time>2015-11-01T10:37:36Z</time>
      </trkpt>
      <trkpt lat="44.0336" lon="5.33677">
        <ele>811.9707031</ele>
        <time>2015-11-01T10:37:43Z</time>
      </trkpt>
      <trkpt lat="44.03379" lon="5.33757">
        <ele>811.0092773</ele>
        <time>2015-11-01T10:37:55Z</time>
      </trkpt>
      <trkpt lat="44.03371" lon="5.33805">
        <ele>809.0866699</ele>
        <time>2015-11-01T10:38:02Z</time>
      </trkpt>
      <trkpt lat="44.03364" lon="5.33819">
        <ele>808.605957</ele>
        <time>2015-11-01T10:38:05Z</time>
      </trkpt>
      <trkpt lat="44.03375" lon="5.33813">
        <ele>807.6447754</ele>
        <time>2015-11-01T10:38:11Z</time>
      </trkpt>
      <trkpt lat="44.03399" lon="5.33784">
        <ele>804.2802734</ele>
        <time>2015-11-01T10:38:17Z</time>
      </trkpt>
      <trkpt lat="44.0341" lon="5.33711">
        <ele>798.9929199</ele>
        <time>2015-11-01T10:38:24Z</time>
      </trkpt>
      <trkpt lat="44.03416" lon="5.33618">
        <ele>795.1474609</ele>
        <time>2015-11-01T10:38:32Z</time>
      </trkpt>
      <trkpt lat="44.03431" lon="5.33599">
        <ele>793.2248535</ele>
        <time>2015-11-01T10:38:37Z</time>
      </trkpt>
      <trkpt lat="44.03441" lon="5.33608">
        <ele>792.2636719</ele>
        <time>2015-11-01T10:38:39Z</time>
      </trkpt>
      <trkpt lat="44.03452" lon="5.33614">
        <ele>790.3410645</ele>
        <time>2015-11-01T10:38:41Z</time>
      </trkpt>
      <trkpt lat="44.03495" lon="5.33608">
        <ele>785.0539551</ele>
        <time>2015-11-01T10:38:49Z</time>
      </trkpt>
      <trkpt lat="44.0352" lon="5.33595">
        <ele>784.0925293</ele>
        <time>2015-11-01T10:38:53Z</time>
      </trkpt>
      <trkpt lat="44.03544" lon="5.33577">
        <ele>781.689209</ele>
        <time>2015-11-01T10:38:57Z</time>
      </trkpt>
      <trkpt lat="44.03565" lon="5.33569">
        <ele>779.7663574</ele>
        <time>2015-11-01T10:39:01Z</time>
      </trkpt>
      <trkpt lat="44.03577" lon="5.3357">
        <ele>778.3244629</ele>
        <time>2015-11-01T10:39:03Z</time>
      </trkpt>
      <trkpt lat="44.03608" lon="5.33604">
        <ele>773.9985352</ele>
        <time>2015-11-01T10:39:09Z</time>
      </trkpt>
      <trkpt lat="44.03614" lon="5.33617">
        <ele>772.5566406</ele>
        <time>2015-11-01T10:39:11Z</time>
      </trkpt>
      <trkpt lat="44.03648" lon="5.33636">
        <ele>767.2695313</ele>
        <time>2015-11-01T10:39:17Z</time>
      </trkpt>
      <trkpt lat="44.03669" lon="5.33638">
        <ele>764.385498</ele>
        <time>2015-11-01T10:39:21Z</time>
      </trkpt>
      <trkpt lat="44.03678" lon="5.33634">
        <ele>762.9433594</ele>
        <time>2015-11-01T10:39:23Z</time>
      </trkpt>
      <trkpt lat="44.03736" lon="5.33636">
        <ele>756.2141113</ele>
        <time>2015-11-01T10:39:31Z</time>
      </trkpt>
      <trkpt lat="44.03765" lon="5.3364">
        <ele>752.3688965</ele>
        <time>2015-11-01T10:39:35Z</time>
      </trkpt>
      <trkpt lat="44.03785" lon="5.3365">
        <ele>748.5236816</ele>
        <time>2015-11-01T10:39:38Z</time>
      </trkpt>
      <trkpt lat="44.03849" lon="5.33648">
        <ele>739.3911133</ele>
        <time>2015-11-01T10:39:47Z</time>
      </trkpt>
      <trkpt lat="44.0386" lon="5.33645">
        <ele>737.9492188</ele>
        <time>2015-11-01T10:39:49Z</time>
      </trkpt>
      <trkpt lat="44.03882" lon="5.33653">
        <ele>734.5847168</ele>
        <time>2015-11-01T10:39:53Z</time>
      </trkpt>
      <trkpt lat="44.03893" lon="5.33657">
        <ele>732.6621094</ele>
        <time>2015-11-01T10:39:55Z</time>
      </trkpt>
      <trkpt lat="44.03906" lon="5.33658">
        <ele>730.7392578</ele>
        <time>2015-11-01T10:39:57Z</time>
      </trkpt>
      <trkpt lat="44.03925" lon="5.33666">
        <ele>727.3747559</ele>
        <time>2015-11-01T10:40:01Z</time>
      </trkpt>
      <trkpt lat="44.03934" lon="5.33699">
        <ele>723.0488281</ele>
        <time>2015-11-01T10:40:07Z</time>
      </trkpt>
      <trkpt lat="44.03934" lon="5.33711">
        <ele>722.0874023</ele>
        <time>2015-11-01T10:40:09Z</time>
      </trkpt>
      <trkpt lat="44.03928" lon="5.33755">
        <ele>719.2036133</ele>
        <time>2015-11-01T10:40:16Z</time>
      </trkpt>
      <trkpt lat="44.03927" lon="5.33775">
        <ele>718.2421875</ele>
        <time>2015-11-01T10:40:20Z</time>
      </trkpt>
      <trkpt lat="44.03921" lon="5.33798">
        <ele>715.8388672</ele>
        <time>2015-11-01T10:40:24Z</time>
      </trkpt>
      <trkpt lat="44.03912" lon="5.33817">
        <ele>712.4741211</ele>
        <time>2015-11-01T10:40:28Z</time>
      </trkpt>
      <trkpt lat="44.03897" lon="5.33849">
        <ele>709.1096191</ele>
        <time>2015-11-01T10:40:35Z</time>
      </trkpt>
      <trkpt lat="44.03883" lon="5.33858">
        <ele>706.7062988</ele>
        <time>2015-11-01T10:40:39Z</time>
      </trkpt>
      <trkpt lat="44.03859" lon="5.33861">
        <ele>704.3032227</ele>
        <time>2015-11-01T10:40:44Z</time>
      </trkpt>
      <trkpt lat="44.03844" lon="5.33871">
        <ele>703.3417969</ele>
        <time>2015-11-01T10:40:47Z</time>
      </trkpt>
      <trkpt lat="44.03847" lon="5.33894">
        <ele>701.8999023</ele>
        <time>2015-11-01T10:40:52Z</time>
      </trkpt>
      <trkpt lat="44.03874" lon="5.33914">
        <ele>704.3032227</ele>
        <time>2015-11-01T10:41:01Z</time>
      </trkpt>
      <trkpt lat="44.03887" lon="5.33934">
        <ele>705.2644043</ele>
        <time>2015-11-01T10:41:10Z</time>
      </trkpt>
      <trkpt lat="44.03905" lon="5.33953">
        <ele>706.7062988</ele>
        <time>2015-11-01T10:41:20Z</time>
      </trkpt>
      <trkpt lat="44.03912" lon="5.33961">
        <ele>707.6677246</ele>
        <time>2015-11-01T10:41:29Z</time>
      </trkpt>
      <trkpt lat="44.03919" lon="5.33971">
        <ele>709.590332</ele>
        <time>2015-11-01T10:41:46Z</time>
      </trkpt>
      <trkpt lat="44.03928" lon="5.33978">
        <ele>710.5515137</ele>
        <time>2015-11-01T10:41:57Z</time>
      </trkpt>
      <trkpt lat="44.03934" lon="5.33981">
        <ele>712.4741211</ele>
        <time>2015-11-01T10:42:10Z</time>
      </trkpt>
      <trkpt lat="44.03941" lon="5.33982">
        <ele>712.4741211</ele>
        <time>2015-11-01T10:42:21Z</time>
      </trkpt>
      <trkpt lat="44.03962" lon="5.3399">
        <ele>714.3967285</ele>
        <time>2015-11-01T10:42:33Z</time>
      </trkpt>
      <trkpt lat="44.03974" lon="5.33996">
        <ele>715.3581543</ele>
        <time>2015-11-01T10:42:46Z</time>
      </trkpt>
      <trkpt lat="44.0398" lon="5.33998">
        <ele>717.2810059</ele>
        <time>2015-11-01T10:42:56Z</time>
      </trkpt>
      <trkpt lat="44.0399" lon="5.34003">
        <ele>718.7229004</ele>
        <time>2015-11-01T10:43:06Z</time>
      </trkpt>
      <trkpt lat="44.03993" lon="5.34004">
        <ele>718.2421875</ele>
        <time>2015-11-01T10:43:21Z</time>
      </trkpt>
      <trkpt lat="44.04004" lon="5.34011">
        <ele>719.6843262</ele>
        <time>2015-11-01T10:43:34Z</time>
      </trkpt>
      <trkpt lat="44.04014" lon="5.3402">
        <ele>720.6455078</ele>
        <time>2015-11-01T10:43:41Z</time>
      </trkpt>
      <trkpt lat="44.04016" lon="5.34023">
        <ele>720.6455078</ele>
        <time>2015-11-01T10:43:46Z</time>
      </trkpt>
      <trkpt lat="44.04022" lon="5.34032">
        <ele>721.1262207</ele>
        <time>2015-11-01T10:43:52Z</time>
      </trkpt>
      <trkpt lat="44.04038" lon="5.34058">
        <ele>722.0874023</ele>
        <time>2015-11-01T10:44:06Z</time>
      </trkpt>
      <trkpt lat="44.04055" lon="5.34083">
        <ele>722.5681152</ele>
        <time>2015-11-01T10:44:16Z</time>
      </trkpt>
      <trkpt lat="44.04056" lon="5.34086">
        <ele>722.5681152</ele>
        <time>2015-11-01T10:44:17Z</time>
      </trkpt>
      <trkpt lat="44.04082" lon="5.34126">
        <ele>719.2036133</ele>
        <time>2015-11-01T10:44:29Z</time>
      </trkpt>
      <trkpt lat="44.04093" lon="5.34156">
        <ele>720.6455078</ele>
        <time>2015-11-01T10:44:38Z</time>
      </trkpt>
      <trkpt lat="44.04095" lon="5.34158">
        <ele>720.6455078</ele>
        <time>2015-11-01T10:44:39Z</time>
      </trkpt>
      <trkpt lat="44.04104" lon="5.34186">
        <ele>720.1647949</ele>
        <time>2015-11-01T10:44:48Z</time>
      </trkpt>
      <trkpt lat="44.04124" lon="5.34221">
        <ele>720.1647949</ele>
        <time>2015-11-01T10:44:59Z</time>
      </trkpt>
      <trkpt lat="44.04139" lon="5.34255">
        <ele>718.2421875</ele>
        <time>2015-11-01T10:45:08Z</time>
      </trkpt>
      <trkpt lat="44.04152" lon="5.34288">
        <ele>717.7614746</ele>
        <time>2015-11-01T10:45:17Z</time>
      </trkpt>
      <trkpt lat="44.04164" lon="5.34324">
        <ele>719.2036133</ele>
        <time>2015-11-01T10:45:27Z</time>
      </trkpt>
      <trkpt lat="44.04171" lon="5.34347">
        <ele>720.1647949</ele>
        <time>2015-11-01T10:45:35Z</time>
      </trkpt>
      <trkpt lat="44.04173" lon="5.34353">
        <ele>721.1262207</ele>
        <time>2015-11-01T10:45:44Z</time>
      </trkpt>
      <trkpt lat="44.04175" lon="5.34356">
        <ele>721.6066895</ele>
        <time>2015-11-01T10:45:49Z</time>
      </trkpt>
      <trkpt lat="44.04192" lon="5.34384">
        <ele>721.6066895</ele>
        <time>2015-11-01T10:46:05Z</time>
      </trkpt>
      <trkpt lat="44.04195" lon="5.34386">
        <ele>721.6066895</ele>
        <time>2015-11-01T10:46:08Z</time>
      </trkpt>
      <trkpt lat="44.04199" lon="5.34394">
        <ele>721.6066895</ele>
        <time>2015-11-01T10:46:11Z</time>
      </trkpt>
      <trkpt lat="44.04224" lon="5.34418">
        <ele>722.5681152</ele>
        <time>2015-11-01T10:46:23Z</time>
      </trkpt>
      <trkpt lat="44.04231" lon="5.34427">
        <ele>723.529541</ele>
        <time>2015-11-01T10:46:35Z</time>
      </trkpt>
      <trkpt lat="44.04234" lon="5.3443">
        <ele>724.0100098</ele>
        <time>2015-11-01T10:46:50Z</time>
      </trkpt>
      <trkpt lat="44.04239" lon="5.34437">
        <ele>724.9714355</ele>
        <time>2015-11-01T10:47:02Z</time>
      </trkpt>
      <trkpt lat="44.0424" lon="5.34449">
        <ele>724.9714355</ele>
        <time>2015-11-01T10:47:13Z</time>
      </trkpt>
      <trkpt lat="44.0424" lon="5.34454">
        <ele>724.4907227</ele>
        <time>2015-11-01T10:47:20Z</time>
      </trkpt>
      <trkpt lat="44.04239" lon="5.34465">
        <ele>722.0874023</ele>
        <time>2015-11-01T10:47:30Z</time>
      </trkpt>
      <trkpt lat="44.04239" lon="5.34464">
        <ele>721.6066895</ele>
        <time>2015-11-01T10:47:50Z</time>
      </trkpt>
      <trkpt lat="44.04238" lon="5.34465">
        <ele>721.6066895</ele>
        <time>2015-11-01T10:48:25Z</time>
      </trkpt>
      <trkpt lat="44.04237" lon="5.34471">
        <ele>720.6455078</ele>
        <time>2015-11-01T10:48:29Z</time>
      </trkpt>
      <trkpt lat="44.04242" lon="5.34483">
        <ele>718.7229004</ele>
        <time>2015-11-01T10:48:35Z</time>
      </trkpt>
      <trkpt lat="44.04245" lon="5.34493">
        <ele>717.7614746</ele>
        <time>2015-11-01T10:48:38Z</time>
      </trkpt>
      <trkpt lat="44.04271" lon="5.34514">
        <ele>712.954834</ele>
        <time>2015-11-01T10:48:48Z</time>
      </trkpt>
      <trkpt lat="44.04284" lon="5.34514">
        <ele>711.9936523</ele>
        <time>2015-11-01T10:48:52Z</time>
      </trkpt>
      <trkpt lat="44.04291" lon="5.34529">
        <ele>708.6289063</ele>
        <time>2015-11-01T10:48:57Z</time>
      </trkpt>
      <trkpt lat="44.04295" lon="5.3454">
        <ele>707.1870117</ele>
        <time>2015-11-01T10:49:00Z</time>
      </trkpt>
      <trkpt lat="44.04292" lon="5.34551">
        <ele>703.8225098</ele>
        <time>2015-11-01T10:49:06Z</time>
      </trkpt>
      <trkpt lat="44.04311" lon="5.34559">
        <ele>699.015625</ele>
        <time>2015-11-01T10:49:14Z</time>
      </trkpt>
      <trkpt lat="44.04342" lon="5.34568">
        <ele>694.2092285</ele>
        <time>2015-11-01T10:49:25Z</time>
      </trkpt>
      <trkpt lat="44.04361" lon="5.3457">
        <ele>692.2866211</ele>
        <time>2015-11-01T10:49:31Z</time>
      </trkpt>
      <trkpt lat="44.0437" lon="5.34571">
        <ele>690.3640137</ele>
        <time>2015-11-01T10:49:34Z</time>
      </trkpt>
      <trkpt lat="44.04375" lon="5.34578">
        <ele>688.9221191</ele>
        <time>2015-11-01T10:49:38Z</time>
      </trkpt>
      <trkpt lat="44.04374" lon="5.34583">
        <ele>687.9606934</ele>
        <time>2015-11-01T10:49:40Z</time>
      </trkpt>
      <trkpt lat="44.0439" lon="5.3458">
        <ele>686.9992676</ele>
        <time>2015-11-01T10:49:48Z</time>
      </trkpt>
      <trkpt lat="44.04408" lon="5.34574">
        <ele>685.557373</ele>
        <time>2015-11-01T10:49:55Z</time>
      </trkpt>
      <trkpt lat="44.04416" lon="5.3457">
        <ele>684.5961914</ele>
        <time>2015-11-01T10:50:01Z</time>
      </trkpt>
      <trkpt lat="44.04417" lon="5.3458">
        <ele>682.6733398</ele>
        <time>2015-11-01T10:50:05Z</time>
      </trkpt>
      <trkpt lat="44.04436" lon="5.34582">
        <ele>678.828125</ele>
        <time>2015-11-01T10:50:14Z</time>
      </trkpt>
      <trkpt lat="44.04464" lon="5.34585">
        <ele>674.5021973</ele>
        <time>2015-11-01T10:50:22Z</time>
      </trkpt>
      <trkpt lat="44.04495" lon="5.34594">
        <ele>673.0603027</ele>
        <time>2015-11-01T10:50:32Z</time>
      </trkpt>
      <trkpt lat="44.04507" lon="5.34593">
        <ele>671.6181641</ele>
        <time>2015-11-01T10:50:36Z</time>
      </trkpt>
      <trkpt lat="44.04507" lon="5.34603">
        <ele>668.2536621</ele>
        <time>2015-11-01T10:50:42Z</time>
      </trkpt>
      <trkpt lat="44.04499" lon="5.34607">
        <ele>667.7727051</ele>
        <time>2015-11-01T10:50:45Z</time>
      </trkpt>
      <trkpt lat="44.04501" lon="5.34613">
        <ele>665.3696289</ele>
        <time>2015-11-01T10:50:49Z</time>
      </trkpt>
      <trkpt lat="44.04512" lon="5.34615">
        <ele>664.4082031</ele>
        <time>2015-11-01T10:50:53Z</time>
      </trkpt>
      <trkpt lat="44.04528" lon="5.34627">
        <ele>665.8503418</ele>
        <time>2015-11-01T10:51:01Z</time>
      </trkpt>
      <trkpt lat="44.04553" lon="5.34624">
        <ele>666.8115234</ele>
        <time>2015-11-01T10:51:12Z</time>
      </trkpt>
      <trkpt lat="44.0458" lon="5.34623">
        <ele>670.1762695</ele>
        <time>2015-11-01T10:51:26Z</time>
      </trkpt>
      <trkpt lat="44.04603" lon="5.34627">
        <ele>672.098877</ele>
        <time>2015-11-01T10:51:40Z</time>
      </trkpt>
      <trkpt lat="44.04618" lon="5.34634">
        <ele>674.0214844</ele>
        <time>2015-11-01T10:51:50Z</time>
      </trkpt>
      <trkpt lat="44.04637" lon="5.34639">
        <ele>675.4633789</ele>
        <time>2015-11-01T10:52:04Z</time>
      </trkpt>
      <trkpt lat="44.0464" lon="5.3464">
        <ele>675.4633789</ele>
        <time>2015-11-01T10:52:08Z</time>
      </trkpt>
      <trkpt lat="44.04662" lon="5.34643">
        <ele>677.3862305</ele>
        <time>2015-11-01T10:52:22Z</time>
      </trkpt>
      <trkpt lat="44.04673" lon="5.34647">
        <ele>678.3474121</ele>
        <time>2015-11-01T10:52:32Z</time>
      </trkpt>
      <trkpt lat="44.04686" lon="5.34656">
        <ele>679.7893066</ele>
        <time>2015-11-01T10:52:49Z</time>
      </trkpt>
      <trkpt lat="44.04703" lon="5.34664">
        <ele>680.2700195</ele>
        <time>2015-11-01T10:53:03Z</time>
      </trkpt>
      <trkpt lat="44.0472" lon="5.34671">
        <ele>682.6733398</ele>
        <time>2015-11-01T10:53:12Z</time>
      </trkpt>
      <trkpt lat="44.04733" lon="5.34679">
        <ele>683.6345215</ele>
        <time>2015-11-01T10:53:19Z</time>
      </trkpt>
      <trkpt lat="44.04762" lon="5.34687">
        <ele>681.7119141</ele>
        <time>2015-11-01T10:53:29Z</time>
      </trkpt>
      <trkpt lat="44.04766" lon="5.34687">
        <ele>681.7119141</ele>
        <time>2015-11-01T10:53:30Z</time>
      </trkpt>
      <trkpt lat="44.04789" lon="5.34691">
        <ele>680.7507324</ele>
        <time>2015-11-01T10:53:35Z</time>
      </trkpt>
      <trkpt lat="44.04805" lon="5.34707">
        <ele>679.7893066</ele>
        <time>2015-11-01T10:53:40Z</time>
      </trkpt>
      <trkpt lat="44.0482" lon="5.34728">
        <ele>677.3862305</ele>
        <time>2015-11-01T10:53:45Z</time>
      </trkpt>
      <trkpt lat="44.04832" lon="5.34737">
        <ele>674.9829102</ele>
        <time>2015-11-01T10:53:48Z</time>
      </trkpt>
      <trkpt lat="44.04852" lon="5.34755">
        <ele>672.098877</ele>
        <time>2015-11-01T10:53:52Z</time>
      </trkpt>
      <trkpt lat="44.0487" lon="5.34762">
        <ele>668.2536621</ele>
        <time>2015-11-01T10:53:56Z</time>
      </trkpt>
      <trkpt lat="44.04885" lon="5.34769">
        <ele>666.3308105</ele>
        <time>2015-11-01T10:53:59Z</time>
      </trkpt>
      <trkpt lat="44.04899" lon="5.34778">
        <ele>663.4470215</ele>
        <time>2015-11-01T10:54:02Z</time>
      </trkpt>
      <trkpt lat="44.04918" lon="5.34797">
        <ele>658.6403809</ele>
        <time>2015-11-01T10:54:10Z</time>
      </trkpt>
      <trkpt lat="44.04922" lon="5.34831">
        <ele>653.3532715</ele>
        <time>2015-11-01T10:54:18Z</time>
      </trkpt>
      <trkpt lat="44.04907" lon="5.34856">
        <ele>651.4304199</ele>
        <time>2015-11-01T10:54:25Z</time>
      </trkpt>
      <trkpt lat="44.04899" lon="5.34871">
        <ele>650.4692383</ele>
        <time>2015-11-01T10:54:29Z</time>
      </trkpt>
      <trkpt lat="44.04906" lon="5.34878">
        <ele>647.5852051</ele>
        <time>2015-11-01T10:54:33Z</time>
      </trkpt>
      <trkpt lat="44.04912" lon="5.3488">
        <ele>646.1433105</ele>
        <time>2015-11-01T10:54:35Z</time>
      </trkpt>
      <trkpt lat="44.04943" lon="5.34909">
        <ele>642.7788086</ele>
        <time>2015-11-01T10:54:46Z</time>
      </trkpt>
      <trkpt lat="44.0496" lon="5.34946">
        <ele>639.4140625</ele>
        <time>2015-11-01T10:54:52Z</time>
      </trkpt>
      <trkpt lat="44.04991" lon="5.34955">
        <ele>638.9335938</ele>
        <time>2015-11-01T10:54:58Z</time>
      </trkpt>
      <trkpt lat="44.0504" lon="5.34953">
        <ele>638.9335938</ele>
        <time>2015-11-01T10:55:08Z</time>
      </trkpt>
      <trkpt lat="44.05075" lon="5.34952">
        <ele>637.4914551</ele>
        <time>2015-11-01T10:55:14Z</time>
      </trkpt>
      <trkpt lat="44.05094" lon="5.34948">
        <ele>635.5686035</ele>
        <time>2015-11-01T10:55:17Z</time>
      </trkpt>
      <trkpt lat="44.05108" lon="5.34947">
        <ele>634.6074219</ele>
        <time>2015-11-01T10:55:19Z</time>
      </trkpt>
      <trkpt lat="44.05126" lon="5.34943">
        <ele>633.6459961</ele>
        <time>2015-11-01T10:55:22Z</time>
      </trkpt>
      <trkpt lat="44.05153" lon="5.3494">
        <ele>635.5686035</ele>
        <time>2015-11-01T10:55:28Z</time>
      </trkpt>
      <trkpt lat="44.05171" lon="5.34942">
        <ele>634.6074219</ele>
        <time>2015-11-01T10:55:32Z</time>
      </trkpt>
      <trkpt lat="44.05183" lon="5.34967">
        <ele>632.2041016</ele>
        <time>2015-11-01T10:55:38Z</time>
      </trkpt>
      <trkpt lat="44.05189" lon="5.34991">
        <ele>629.8007813</ele>
        <time>2015-11-01T10:55:43Z</time>
      </trkpt>
      <trkpt lat="44.05218" lon="5.35038">
        <ele>623.5524902</ele>
        <time>2015-11-01T10:55:52Z</time>
      </trkpt>
      <trkpt lat="44.05244" lon="5.35075">
        <ele>620.668457</ele>
        <time>2015-11-01T10:55:58Z</time>
      </trkpt>
      <trkpt lat="44.05262" lon="5.35105">
        <ele>617.3037109</ele>
        <time>2015-11-01T10:56:05Z</time>
      </trkpt>
      <trkpt lat="44.05274" lon="5.35112">
        <ele>614.4196777</ele>
        <time>2015-11-01T10:56:11Z</time>
      </trkpt>
      <trkpt lat="44.0529" lon="5.35103">
        <ele>612.9777832</ele>
        <time>2015-11-01T10:56:16Z</time>
      </trkpt>
      <trkpt lat="44.05316" lon="5.35111">
        <ele>613.4584961</ele>
        <time>2015-11-01T10:56:23Z</time>
      </trkpt>
      <trkpt lat="44.05348" lon="5.35117">
        <ele>613.4584961</ele>
        <time>2015-11-01T10:56:32Z</time>
      </trkpt>
      <trkpt lat="44.05381" lon="5.35135">
        <ele>614.4196777</ele>
        <time>2015-11-01T10:56:43Z</time>
      </trkpt>
      <trkpt lat="44.05406" lon="5.35158">
        <ele>615.3811035</ele>
        <time>2015-11-01T10:56:55Z</time>
      </trkpt>
      <trkpt lat="44.05418" lon="5.35171">
        <ele>614.9003906</ele>
        <time>2015-11-01T10:56:59Z</time>
      </trkpt>
      <trkpt lat="44.05427" lon="5.35176">
        <ele>614.9003906</ele>
        <time>2015-11-01T10:57:02Z</time>
      </trkpt>
      <trkpt lat="44.05436" lon="5.35197">
        <ele>615.3811035</ele>
        <time>2015-11-01T10:57:09Z</time>
      </trkpt>
      <trkpt lat="44.05438" lon="5.35199">
        <ele>615.3811035</ele>
        <time>2015-11-01T10:57:10Z</time>
      </trkpt>
      <trkpt lat="44.05461" lon="5.35223">
        <ele>617.7841797</ele>
        <time>2015-11-01T10:57:22Z</time>
      </trkpt>
      <trkpt lat="44.05491" lon="5.35245">
        <ele>616.3422852</ele>
        <time>2015-11-01T10:57:31Z</time>
      </trkpt>
      <trkpt lat="44.05514" lon="5.35266">
        <ele>616.822998</ele>
        <time>2015-11-01T10:57:39Z</time>
      </trkpt>
      <trkpt lat="44.05532" lon="5.35283">
        <ele>617.3037109</ele>
        <time>2015-11-01T10:57:45Z</time>
      </trkpt>
      <trkpt lat="44.0555" lon="5.3531">
        <ele>617.7841797</ele>
        <time>2015-11-01T10:57:53Z</time>
      </trkpt>
      <trkpt lat="44.0556" lon="5.35354">
        <ele>619.7070313</ele>
        <time>2015-11-01T10:58:03Z</time>
      </trkpt>
      <trkpt lat="44.05561" lon="5.35398">
        <ele>619.7070313</ele>
        <time>2015-11-01T10:58:12Z</time>
      </trkpt>
      <trkpt lat="44.05584" lon="5.35433">
        <ele>618.2648926</ele>
        <time>2015-11-01T10:58:20Z</time>
      </trkpt>
      <trkpt lat="44.05598" lon="5.35455">
        <ele>618.7456055</ele>
        <time>2015-11-01T10:58:27Z</time>
      </trkpt>
      <trkpt lat="44.05619" lon="5.35472">
        <ele>621.6296387</ele>
        <time>2015-11-01T10:58:36Z</time>
      </trkpt>
      <trkpt lat="44.05637" lon="5.35481">
        <ele>624.5136719</ele>
        <time>2015-11-01T10:58:43Z</time>
      </trkpt>
      <trkpt lat="44.05644" lon="5.35488">
        <ele>623.5524902</ele>
        <time>2015-11-01T10:58:46Z</time>
      </trkpt>
      <trkpt lat="44.0565" lon="5.35487">
        <ele>623.5524902</ele>
        <time>2015-11-01T10:58:55Z</time>
      </trkpt>
      <trkpt lat="44.05651" lon="5.35487">
        <ele>623.0717773</ele>
        <time>2015-11-01T10:59:00Z</time>
      </trkpt>
      <trkpt lat="44.05657" lon="5.35474">
        <ele>623.0717773</ele>
        <time>2015-11-01T10:59:05Z</time>
      </trkpt>
      <trkpt lat="44.05674" lon="5.3547">
        <ele>622.1103516</ele>
        <time>2015-11-01T10:59:12Z</time>
      </trkpt>
      <trkpt lat="44.05683" lon="5.35481">
        <ele>619.7070313</ele>
        <time>2015-11-01T10:59:20Z</time>
      </trkpt>
      <trkpt lat="44.05681" lon="5.35482">
        <ele>618.7456055</ele>
        <time>2015-11-01T11:15:19Z</time>
      </trkpt>
      <trkpt lat="44.05683" lon="5.3548">
        <ele>617.3037109</ele>
        <time>2015-11-01T11:15:33Z</time>
      </trkpt>
      <trkpt lat="44.05683" lon="5.35479">
        <ele>617.7841797</ele>
        <time>2015-11-01T11:15:50Z</time>
      </trkpt>
      <trkpt lat="44.05681" lon="5.35479">
        <ele>617.3037109</ele>
        <time>2015-11-01T11:16:05Z</time>
      </trkpt>
      <trkpt lat="44.05683" lon="5.35477">
        <ele>620.668457</ele>
        <time>2015-11-01T11:29:35Z</time>
      </trkpt>
      <trkpt lat="44.05683" lon="5.35477">
        <ele>621.1491699</ele>
        <time>2015-11-01T11:30:10Z</time>
      </trkpt>
      <trkpt lat="44.05683" lon="5.35477">
        <ele>621.1491699</ele>
        <time>2015-11-01T11:30:31Z</time>
      </trkpt>
      <trkpt lat="44.05686" lon="5.35478">
        <ele>621.6296387</ele>
        <time>2015-11-01T11:30:33Z</time>
      </trkpt>
      <trkpt lat="44.05715" lon="5.35504">
        <ele>623.0717773</ele>
        <time>2015-11-01T11:30:45Z</time>
      </trkpt>
      <trkpt lat="44.05757" lon="5.35546">
        <ele>623.5524902</ele>
        <time>2015-11-01T11:31:01Z</time>
      </trkpt>
      <trkpt lat="44.05787" lon="5.35574">
        <ele>624.032959</ele>
        <time>2015-11-01T11:31:16Z</time>
      </trkpt>
      <trkpt lat="44.0581" lon="5.356">
        <ele>625.9555664</ele>
        <time>2015-11-01T11:31:28Z</time>
      </trkpt>
      <trkpt lat="44.05827" lon="5.35616">
        <ele>626.4362793</ele>
        <time>2015-11-01T11:31:37Z</time>
      </trkpt>
      <trkpt lat="44.05866" lon="5.35645">
        <ele>627.3977051</ele>
        <time>2015-11-01T11:31:52Z</time>
      </trkpt>
      <trkpt lat="44.05908" lon="5.35668">
        <ele>625.9555664</ele>
        <time>2015-11-01T11:32:07Z</time>
      </trkpt>
      <trkpt lat="44.05961" lon="5.35686">
        <ele>624.5136719</ele>
        <time>2015-11-01T11:32:23Z</time>
      </trkpt>
      <trkpt lat="44.06008" lon="5.35722">
        <ele>624.5136719</ele>
        <time>2015-11-01T11:32:38Z</time>
      </trkpt>
      <trkpt lat="44.06063" lon="5.35754">
        <ele>624.032959</ele>
        <time>2015-11-01T11:32:54Z</time>
      </trkpt>
      <trkpt lat="44.06109" lon="5.35792">
        <ele>625.9555664</ele>
        <time>2015-11-01T11:33:08Z</time>
      </trkpt>
      <trkpt lat="44.06145" lon="5.358">
        <ele>626.4362793</ele>
        <time>2015-11-01T11:33:19Z</time>
      </trkpt>
      <trkpt lat="44.06203" lon="5.35817">
        <ele>627.8781738</ele>
        <time>2015-11-01T11:33:35Z</time>
      </trkpt>
      <trkpt lat="44.06247" lon="5.35817">
        <ele>629.8007813</ele>
        <time>2015-11-01T11:33:48Z</time>
      </trkpt>
      <trkpt lat="44.06284" lon="5.35799">
        <ele>631.7233887</ele>
        <time>2015-11-01T11:34:02Z</time>
      </trkpt>
      <trkpt lat="44.06319" lon="5.35785">
        <ele>634.6074219</ele>
        <time>2015-11-01T11:34:16Z</time>
      </trkpt>
      <trkpt lat="44.06344" lon="5.35774">
        <ele>635.0881348</ele>
        <time>2015-11-01T11:34:27Z</time>
      </trkpt>
      <trkpt lat="44.06376" lon="5.35772">
        <ele>637.0107422</ele>
        <time>2015-11-01T11:34:41Z</time>
      </trkpt>
      <trkpt lat="44.06415" lon="5.3577">
        <ele>639.8947754</ele>
        <time>2015-11-01T11:34:57Z</time>
      </trkpt>
      <trkpt lat="44.06454" lon="5.35756">
        <ele>641.8173828</ele>
        <time>2015-11-01T11:35:14Z</time>
      </trkpt>
      <trkpt lat="44.06481" lon="5.35756">
        <ele>643.7399902</ele>
        <time>2015-11-01T11:35:27Z</time>
      </trkpt>
      <trkpt lat="44.06502" lon="5.3576">
        <ele>645.6625977</ele>
        <time>2015-11-01T11:35:38Z</time>
      </trkpt>
      <trkpt lat="44.0653" lon="5.35774">
        <ele>647.5852051</ele>
        <time>2015-11-01T11:35:53Z</time>
      </trkpt>
      <trkpt lat="44.06566" lon="5.35807">
        <ele>647.5852051</ele>
        <time>2015-11-01T11:36:04Z</time>
      </trkpt>
      <trkpt lat="44.06621" lon="5.35865">
        <ele>647.5852051</ele>
        <time>2015-11-01T11:36:17Z</time>
      </trkpt>
      <trkpt lat="44.06668" lon="5.35939">
        <ele>645.6625977</ele>
        <time>2015-11-01T11:36:29Z</time>
      </trkpt>
      <trkpt lat="44.06727" lon="5.36022">
        <ele>642.2980957</ele>
        <time>2015-11-01T11:36:41Z</time>
      </trkpt>
      <trkpt lat="44.06737" lon="5.36037">
        <ele>641.8173828</ele>
        <time>2015-11-01T11:36:43Z</time>
      </trkpt>
      <trkpt lat="44.0675" lon="5.36061">
        <ele>640.3754883</ele>
        <time>2015-11-01T11:36:46Z</time>
      </trkpt>
      <trkpt lat="44.06753" lon="5.36108">
        <ele>634.126709</ele>
        <time>2015-11-01T11:36:50Z</time>
      </trkpt>
      <trkpt lat="44.06744" lon="5.36146">
        <ele>632.2041016</ele>
        <time>2015-11-01T11:36:53Z</time>
      </trkpt>
      <trkpt lat="44.0674" lon="5.36198">
        <ele>631.7233887</ele>
        <time>2015-11-01T11:36:59Z</time>
      </trkpt>
      <trkpt lat="44.06746" lon="5.36216">
        <ele>634.126709</ele>
        <time>2015-11-01T11:37:04Z</time>
      </trkpt>
      <trkpt lat="44.06756" lon="5.36218">
        <ele>636.5302734</ele>
        <time>2015-11-01T11:37:08Z</time>
      </trkpt>
      <trkpt lat="44.06754" lon="5.36231">
        <ele>637.972168</ele>
        <time>2015-11-01T11:37:15Z</time>
      </trkpt>
      <trkpt lat="44.06743" lon="5.36246">
        <ele>640.855957</ele>
        <time>2015-11-01T11:37:26Z</time>
      </trkpt>
      <trkpt lat="44.06738" lon="5.36262">
        <ele>642.2980957</ele>
        <time>2015-11-01T11:37:34Z</time>
      </trkpt>
      <trkpt lat="44.0674" lon="5.36273">
        <ele>642.7788086</ele>
        <time>2015-11-01T11:37:39Z</time>
      </trkpt>
      <trkpt lat="44.06736" lon="5.36279">
        <ele>644.2207031</ele>
        <time>2015-11-01T11:37:43Z</time>
      </trkpt>
      <trkpt lat="44.06723" lon="5.363">
        <ele>648.065918</ele>
        <time>2015-11-01T11:37:58Z</time>
      </trkpt>
      <trkpt lat="44.0671" lon="5.3634">
        <ele>652.3918457</ele>
        <time>2015-11-01T11:38:21Z</time>
      </trkpt>
      <trkpt lat="44.06693" lon="5.36355">
        <ele>652.8725586</ele>
        <time>2015-11-01T11:38:36Z</time>
      </trkpt>
      <trkpt lat="44.06691" lon="5.3636">
        <ele>653.3532715</ele>
        <time>2015-11-01T11:38:40Z</time>
      </trkpt>
      <trkpt lat="44.06688" lon="5.36363">
        <ele>653.3532715</ele>
        <time>2015-11-01T11:38:43Z</time>
      </trkpt>
      <trkpt lat="44.06673" lon="5.36384">
        <ele>656.7177734</ele>
        <time>2015-11-01T11:39:03Z</time>
      </trkpt>
      <trkpt lat="44.06658" lon="5.36405">
        <ele>659.6018066</ele>
        <time>2015-11-01T11:39:24Z</time>
      </trkpt>
      <trkpt lat="44.06643" lon="5.36415">
        <ele>662.005127</ele>
        <time>2015-11-01T11:39:39Z</time>
      </trkpt>
      <trkpt lat="44.06616" lon="5.36428">
        <ele>664.4082031</ele>
        <time>2015-11-01T11:39:59Z</time>
      </trkpt>
      <trkpt lat="44.06605" lon="5.36437">
        <ele>665.3696289</ele>
        <time>2015-11-01T11:40:13Z</time>
      </trkpt>
      <trkpt lat="44.06597" lon="5.36443">
        <ele>666.8115234</ele>
        <time>2015-11-01T11:40:32Z</time>
      </trkpt>
      <trkpt lat="44.06587" lon="5.36453">
        <ele>669.2150879</ele>
        <time>2015-11-01T11:40:52Z</time>
      </trkpt>
      <trkpt lat="44.06581" lon="5.36459">
        <ele>670.1762695</ele>
        <time>2015-11-01T11:41:03Z</time>
      </trkpt>
      <trkpt lat="44.0657" lon="5.3647">
        <ele>673.0603027</ele>
        <time>2015-11-01T11:41:20Z</time>
      </trkpt>
      <trkpt lat="44.06567" lon="5.36472">
        <ele>673.5410156</ele>
        <time>2015-11-01T11:41:33Z</time>
      </trkpt>
      <trkpt lat="44.06552" lon="5.36488">
        <ele>674.5021973</ele>
        <time>2015-11-01T11:41:48Z</time>
      </trkpt>
      <trkpt lat="44.06545" lon="5.36491">
        <ele>674.9829102</ele>
        <time>2015-11-01T11:41:54Z</time>
      </trkpt>
      <trkpt lat="44.0653" lon="5.36507">
        <ele>678.3474121</ele>
        <time>2015-11-01T11:42:10Z</time>
      </trkpt>
      <trkpt lat="44.06522" lon="5.36512">
        <ele>679.7893066</ele>
        <time>2015-11-01T11:42:18Z</time>
      </trkpt>
      <trkpt lat="44.0652" lon="5.36514">
        <ele>680.2700195</ele>
        <time>2015-11-01T11:42:30Z</time>
      </trkpt>
      <trkpt lat="44.0651" lon="5.36523">
        <ele>681.2314453</ele>
        <time>2015-11-01T11:42:46Z</time>
      </trkpt>
      <trkpt lat="44.06498" lon="5.36534">
        <ele>684.5961914</ele>
        <time>2015-11-01T11:43:06Z</time>
      </trkpt>
      <trkpt lat="44.06495" lon="5.36542">
        <ele>685.557373</ele>
        <time>2015-11-01T11:43:21Z</time>
      </trkpt>
      <trkpt lat="44.06504" lon="5.36546">
        <ele>687.4799805</ele>
        <time>2015-11-01T11:43:34Z</time>
      </trkpt>
      <trkpt lat="44.06506" lon="5.36548">
        <ele>687.9606934</ele>
        <time>2015-11-01T11:43:45Z</time>
      </trkpt>
      <trkpt lat="44.06513" lon="5.36555">
        <ele>689.4025879</ele>
        <time>2015-11-01T11:43:54Z</time>
      </trkpt>
      <trkpt lat="44.06516" lon="5.36565">
        <ele>691.3251953</ele>
        <time>2015-11-01T11:44:08Z</time>
      </trkpt>
      <trkpt lat="44.06505" lon="5.36572">
        <ele>693.7285156</ele>
        <time>2015-11-01T11:44:23Z</time>
      </trkpt>
      <trkpt lat="44.06492" lon="5.36586">
        <ele>697.0930176</ele>
        <time>2015-11-01T11:44:41Z</time>
      </trkpt>
      <trkpt lat="44.06486" lon="5.36593">
        <ele>697.0930176</ele>
        <time>2015-11-01T11:44:55Z</time>
      </trkpt>
      <trkpt lat="44.06468" lon="5.36614">
        <ele>701.4191895</ele>
        <time>2015-11-01T11:45:09Z</time>
      </trkpt>
      <trkpt lat="44.06464" lon="5.36624">
        <ele>702.861084</ele>
        <time>2015-11-01T11:45:22Z</time>
      </trkpt>
      <trkpt lat="44.06461" lon="5.36631">
        <ele>703.8225098</ele>
        <time>2015-11-01T11:45:36Z</time>
      </trkpt>
      <trkpt lat="44.06457" lon="5.36636">
        <ele>704.7836914</ele>
        <time>2015-11-01T11:45:46Z</time>
      </trkpt>
      <trkpt lat="44.0645" lon="5.36647">
        <ele>705.2644043</ele>
        <time>2015-11-01T11:45:59Z</time>
      </trkpt>
      <trkpt lat="44.06442" lon="5.36657">
        <ele>706.7062988</ele>
        <time>2015-11-01T11:46:10Z</time>
      </trkpt>
      <trkpt lat="44.06436" lon="5.36669">
        <ele>707.6677246</ele>
        <time>2015-11-01T11:46:23Z</time>
      </trkpt>
      <trkpt lat="44.06435" lon="5.36689">
        <ele>709.1096191</ele>
        <time>2015-11-01T11:46:39Z</time>
      </trkpt>
      <trkpt lat="44.06433" lon="5.36699">
        <ele>708.6289063</ele>
        <time>2015-11-01T11:46:48Z</time>
      </trkpt>
      <trkpt lat="44.06423" lon="5.36729">
        <ele>708.6289063</ele>
        <time>2015-11-01T11:47:01Z</time>
      </trkpt>
      <trkpt lat="44.06413" lon="5.36763">
        <ele>709.1096191</ele>
        <time>2015-11-01T11:47:14Z</time>
      </trkpt>
      <trkpt lat="44.06403" lon="5.36786">
        <ele>711.0322266</ele>
        <time>2015-11-01T11:47:25Z</time>
      </trkpt>
      <trkpt lat="44.0639" lon="5.36811">
        <ele>711.9936523</ele>
        <time>2015-11-01T11:47:39Z</time>
      </trkpt>
      <trkpt lat="44.06374" lon="5.36824">
        <ele>714.8774414</ele>
        <time>2015-11-01T11:47:55Z</time>
      </trkpt>
      <trkpt lat="44.06359" lon="5.36846">
        <ele>716.800293</ele>
        <time>2015-11-01T11:48:10Z</time>
      </trkpt>
      <trkpt lat="44.06337" lon="5.36867">
        <ele>717.7614746</ele>
        <time>2015-11-01T11:48:25Z</time>
      </trkpt>
      <trkpt lat="44.06318" lon="5.36889">
        <ele>718.7229004</ele>
        <time>2015-11-01T11:48:40Z</time>
      </trkpt>
      <trkpt lat="44.06315" lon="5.36895">
        <ele>719.2036133</ele>
        <time>2015-11-01T11:48:51Z</time>
      </trkpt>
      <trkpt lat="44.06314" lon="5.36895">
        <ele>719.6843262</ele>
        <time>2015-11-01T11:49:11Z</time>
      </trkpt>
      <trkpt lat="44.06314" lon="5.36896">
        <ele>719.2036133</ele>
        <time>2015-11-01T11:49:22Z</time>
      </trkpt>
      <trkpt lat="44.06298" lon="5.36917">
        <ele>721.1262207</ele>
        <time>2015-11-01T11:49:37Z</time>
      </trkpt>
      <trkpt lat="44.06285" lon="5.36937">
        <ele>722.0874023</ele>
        <time>2015-11-01T11:49:48Z</time>
      </trkpt>
      <trkpt lat="44.06281" lon="5.36945">
        <ele>722.0874023</ele>
        <time>2015-11-01T11:49:53Z</time>
      </trkpt>
      <trkpt lat="44.06262" lon="5.36969">
        <ele>723.529541</ele>
        <time>2015-11-01T11:50:07Z</time>
      </trkpt>
      <trkpt lat="44.06241" lon="5.37">
        <ele>724.4907227</ele>
        <time>2015-11-01T11:50:24Z</time>
      </trkpt>
      <trkpt lat="44.06214" lon="5.37025">
        <ele>726.4133301</ele>
        <time>2015-11-01T11:50:41Z</time>
      </trkpt>
      <trkpt lat="44.06193" lon="5.37031">
        <ele>727.3747559</ele>
        <time>2015-11-01T11:50:52Z</time>
      </trkpt>
      <trkpt lat="44.06193" lon="5.37031">
        <ele>727.3747559</ele>
        <time>2015-11-01T11:50:53Z</time>
      </trkpt>
      <trkpt lat="44.06185" lon="5.37036">
        <ele>727.8552246</ele>
        <time>2015-11-01T11:50:58Z</time>
      </trkpt>
      <trkpt lat="44.06155" lon="5.37062">
        <ele>730.2585449</ele>
        <time>2015-11-01T11:51:18Z</time>
      </trkpt>
      <trkpt lat="44.06127" lon="5.3709">
        <ele>732.6621094</ele>
        <time>2015-11-01T11:51:37Z</time>
      </trkpt>
      <trkpt lat="44.06119" lon="5.37098">
        <ele>733.1425781</ele>
        <time>2015-11-01T11:51:44Z</time>
      </trkpt>
      <trkpt lat="44.06103" lon="5.37123">
        <ele>734.1040039</ele>
        <time>2015-11-01T11:51:58Z</time>
      </trkpt>
      <trkpt lat="44.06088" lon="5.37142">
        <ele>736.987793</ele>
        <time>2015-11-01T11:52:11Z</time>
      </trkpt>
      <trkpt lat="44.06063" lon="5.37162">
        <ele>738.4299316</ele>
        <time>2015-11-01T11:52:28Z</time>
      </trkpt>
      <trkpt lat="44.06042" lon="5.37165">
        <ele>739.8718262</ele>
        <time>2015-11-01T11:52:40Z</time>
      </trkpt>
      <trkpt lat="44.06028" lon="5.37173">
        <ele>740.8330078</ele>
        <time>2015-11-01T11:52:50Z</time>
      </trkpt>
      <trkpt lat="44.06027" lon="5.37177">
        <ele>741.3137207</ele>
        <time>2015-11-01T11:52:52Z</time>
      </trkpt>
      <trkpt lat="44.06014" lon="5.37188">
        <ele>740.3525391</ele>
        <time>2015-11-01T11:53:04Z</time>
      </trkpt>
      <trkpt lat="44.06008" lon="5.37196">
        <ele>741.3137207</ele>
        <time>2015-11-01T11:53:11Z</time>
      </trkpt>
      <trkpt lat="44.06004" lon="5.37199">
        <ele>741.3137207</ele>
        <time>2015-11-01T11:53:14Z</time>
      </trkpt>
      <trkpt lat="44.05983" lon="5.37214">
        <ele>743.717041</ele>
        <time>2015-11-01T11:53:32Z</time>
      </trkpt>
      <trkpt lat="44.05967" lon="5.37224">
        <ele>744.6782227</ele>
        <time>2015-11-01T11:53:45Z</time>
      </trkpt>
      <trkpt lat="44.05953" lon="5.37234">
        <ele>744.6782227</ele>
        <time>2015-11-01T11:53:57Z</time>
      </trkpt>
      <trkpt lat="44.05951" lon="5.37235">
        <ele>745.1589355</ele>
        <time>2015-11-01T11:53:59Z</time>
      </trkpt>
      <trkpt lat="44.05924" lon="5.37245">
        <ele>748.0432129</ele>
        <time>2015-11-01T11:54:20Z</time>
      </trkpt>
      <trkpt lat="44.05899" lon="5.37251">
        <ele>749.9658203</ele>
        <time>2015-11-01T11:54:36Z</time>
      </trkpt>
      <trkpt lat="44.05878" lon="5.37262">
        <ele>751.8884277</ele>
        <time>2015-11-01T11:54:52Z</time>
      </trkpt>
      <trkpt lat="44.05859" lon="5.37272">
        <ele>753.8110352</ele>
        <time>2015-11-01T11:55:06Z</time>
      </trkpt>
      <trkpt lat="44.05831" lon="5.3728">
        <ele>756.6948242</ele>
        <time>2015-11-01T11:55:22Z</time>
      </trkpt>
      <trkpt lat="44.05804" lon="5.37283">
        <ele>757.1755371</ele>
        <time>2015-11-01T11:55:36Z</time>
      </trkpt>
      <trkpt lat="44.05776" lon="5.37303">
        <ele>759.5788574</ele>
        <time>2015-11-01T11:55:48Z</time>
      </trkpt>
      <trkpt lat="44.05744" lon="5.37327">
        <ele>761.9821777</ele>
        <time>2015-11-01T11:56:03Z</time>
      </trkpt>
      <trkpt lat="44.05717" lon="5.37329">
        <ele>761.5014648</ele>
        <time>2015-11-01T11:56:14Z</time>
      </trkpt>
      <trkpt lat="44.05691" lon="5.37318">
        <ele>762.9433594</ele>
        <time>2015-11-01T11:56:27Z</time>
      </trkpt>
      <trkpt lat="44.05661" lon="5.37305">
        <ele>764.385498</ele>
        <time>2015-11-01T11:56:43Z</time>
      </trkpt>
      <trkpt lat="44.05635" lon="5.37322">
        <ele>767.2695313</ele>
        <time>2015-11-01T11:56:57Z</time>
      </trkpt>
      <trkpt lat="44.05606" lon="5.37338">
        <ele>768.7114258</ele>
        <time>2015-11-01T11:57:14Z</time>
      </trkpt>
      <trkpt lat="44.05584" lon="5.37355">
        <ele>769.6728516</ele>
        <time>2015-11-01T11:57:26Z</time>
      </trkpt>
      <trkpt lat="44.05566" lon="5.37344">
        <ele>770.6340332</ele>
        <time>2015-11-01T11:57:37Z</time>
      </trkpt>
      <trkpt lat="44.05554" lon="5.37328">
        <ele>772.5566406</ele>
        <time>2015-11-01T11:57:48Z</time>
      </trkpt>
      <trkpt lat="44.05545" lon="5.37324">
        <ele>773.0373535</ele>
        <time>2015-11-01T11:57:57Z</time>
      </trkpt>
      <trkpt lat="44.05543" lon="5.37326">
        <ele>772.5566406</ele>
        <time>2015-11-01T11:58:11Z</time>
      </trkpt>
      <trkpt lat="44.05544" lon="5.37327">
        <ele>772.5566406</ele>
        <time>2015-11-01T11:58:20Z</time>
      </trkpt>
      <trkpt lat="44.05531" lon="5.37342">
        <ele>774.479248</ele>
        <time>2015-11-01T11:58:33Z</time>
      </trkpt>
      <trkpt lat="44.05519" lon="5.37359">
        <ele>774.9599609</ele>
        <time>2015-11-01T11:58:45Z</time>
      </trkpt>
      <trkpt lat="44.05496" lon="5.37369">
        <ele>776.4018555</ele>
        <time>2015-11-01T11:59:01Z</time>
      </trkpt>
      <trkpt lat="44.05492" lon="5.37375">
        <ele>776.8825684</ele>
        <time>2015-11-01T11:59:05Z</time>
      </trkpt>
      <trkpt lat="44.05481" lon="5.37397">
        <ele>777.3632813</ele>
        <time>2015-11-01T11:59:19Z</time>
      </trkpt>
      <trkpt lat="44.05473" lon="5.37401">
        <ele>778.3244629</ele>
        <time>2015-11-01T11:59:25Z</time>
      </trkpt>
      <trkpt lat="44.05468" lon="5.3741">
        <ele>779.2856445</ele>
        <time>2015-11-01T11:59:31Z</time>
      </trkpt>
      <trkpt lat="44.05461" lon="5.37425">
        <ele>780.2473145</ele>
        <time>2015-11-01T11:59:46Z</time>
      </trkpt>
      <trkpt lat="44.05459" lon="5.3743">
        <ele>781.2087402</ele>
        <time>2015-11-01T12:00:06Z</time>
      </trkpt>
      <trkpt lat="44.0545" lon="5.37459">
        <ele>782.1699219</ele>
        <time>2015-11-01T12:00:22Z</time>
      </trkpt>
      <trkpt lat="44.05442" lon="5.37484">
        <ele>784.0925293</ele>
        <time>2015-11-01T12:00:37Z</time>
      </trkpt>
      <trkpt lat="44.05438" lon="5.3749">
        <ele>784.0925293</ele>
        <time>2015-11-01T12:00:48Z</time>
      </trkpt>
      <trkpt lat="44.05438" lon="5.37492">
        <ele>784.5732422</ele>
        <time>2015-11-01T12:01:02Z</time>
      </trkpt>
      <trkpt lat="44.05434" lon="5.37521">
        <ele>786.4958496</ele>
        <time>2015-11-01T12:01:20Z</time>
      </trkpt>
      <trkpt lat="44.0543" lon="5.37536">
        <ele>786.9763184</ele>
        <time>2015-11-01T12:01:29Z</time>
      </trkpt>
      <trkpt lat="44.05425" lon="5.37558">
        <ele>788.418457</ele>
        <time>2015-11-01T12:01:43Z</time>
      </trkpt>
      <trkpt lat="44.05415" lon="5.3758">
        <ele>789.3796387</ele>
        <time>2015-11-01T12:01:59Z</time>
      </trkpt>
      <trkpt lat="44.05415" lon="5.37612">
        <ele>791.3022461</ele>
        <time>2015-11-01T12:02:16Z</time>
      </trkpt>
      <trkpt lat="44.05413" lon="5.37622">
        <ele>792.2636719</ele>
        <time>2015-11-01T12:02:21Z</time>
      </trkpt>
      <trkpt lat="44.05415" lon="5.3765">
        <ele>792.7443848</ele>
        <time>2015-11-01T12:02:36Z</time>
      </trkpt>
      <trkpt lat="44.05416" lon="5.37652">
        <ele>792.7443848</ele>
        <time>2015-11-01T12:02:54Z</time>
      </trkpt>
      <trkpt lat="44.05416" lon="5.37654">
        <ele>792.2636719</ele>
        <time>2015-11-01T12:03:30Z</time>
      </trkpt>
      <trkpt lat="44.05411" lon="5.37662">
        <ele>792.2636719</ele>
        <time>2015-11-01T12:03:35Z</time>
      </trkpt>
      <trkpt lat="44.05399" lon="5.37682">
        <ele>790.8215332</ele>
        <time>2015-11-01T12:03:46Z</time>
      </trkpt>
      <trkpt lat="44.05386" lon="5.37704">
        <ele>790.3410645</ele>
        <time>2015-11-01T12:03:56Z</time>
      </trkpt>
      <trkpt lat="44.05356" lon="5.37718">
        <ele>790.8215332</ele>
        <time>2015-11-01T12:04:14Z</time>
      </trkpt>
      <trkpt lat="44.05334" lon="5.37742">
        <ele>791.3022461</ele>
        <time>2015-11-01T12:04:32Z</time>
      </trkpt>
      <trkpt lat="44.05318" lon="5.37762">
        <ele>793.2248535</ele>
        <time>2015-11-01T12:04:46Z</time>
      </trkpt>
      <trkpt lat="44.05319" lon="5.37776">
        <ele>794.1862793</ele>
        <time>2015-11-01T12:04:52Z</time>
      </trkpt>
      <trkpt lat="44.05335" lon="5.37803">
        <ele>793.2248535</ele>
        <time>2015-11-01T12:05:04Z</time>
      </trkpt>
      <trkpt lat="44.05352" lon="5.37829">
        <ele>793.2248535</ele>
        <time>2015-11-01T12:05:13Z</time>
      </trkpt>
      <trkpt lat="44.05372" lon="5.37861">
        <ele>791.782959</ele>
        <time>2015-11-01T12:05:23Z</time>
      </trkpt>
      <trkpt lat="44.05385" lon="5.37895">
        <ele>791.782959</ele>
        <time>2015-11-01T12:05:32Z</time>
      </trkpt>
      <trkpt lat="44.05393" lon="5.37934">
        <ele>791.3022461</ele>
        <time>2015-11-01T12:05:41Z</time>
      </trkpt>
      <trkpt lat="44.05399" lon="5.37998">
        <ele>790.3410645</ele>
        <time>2015-11-01T12:05:55Z</time>
      </trkpt>
      <trkpt lat="44.05401" lon="5.38019">
        <ele>788.8991699</ele>
        <time>2015-11-01T12:05:59Z</time>
      </trkpt>
      <trkpt lat="44.05415" lon="5.38069">
        <ele>784.0925293</ele>
        <time>2015-11-01T12:06:08Z</time>
      </trkpt>
      <trkpt lat="44.05415" lon="5.3808">
        <ele>783.1311035</ele>
        <time>2015-11-01T12:06:10Z</time>
      </trkpt>
      <trkpt lat="44.05419" lon="5.38096">
        <ele>780.2473145</ele>
        <time>2015-11-01T12:06:13Z</time>
      </trkpt>
      <trkpt lat="44.05409" lon="5.38135">
        <ele>775.4404297</ele>
        <time>2015-11-01T12:06:21Z</time>
      </trkpt>
      <trkpt lat="44.05411" lon="5.38157">
        <ele>772.0759277</ele>
        <time>2015-11-01T12:06:25Z</time>
      </trkpt>
      <trkpt lat="44.05429" lon="5.38208">
        <ele>764.385498</ele>
        <time>2015-11-01T12:06:37Z</time>
      </trkpt>
      <trkpt lat="44.05437" lon="5.38244">
        <ele>758.1369629</ele>
        <time>2015-11-01T12:06:46Z</time>
      </trkpt>
      <trkpt lat="44.05429" lon="5.38296">
        <ele>749.4851074</ele>
        <time>2015-11-01T12:06:55Z</time>
      </trkpt>
      <trkpt lat="44.05419" lon="5.38316">
        <ele>747.081543</ele>
        <time>2015-11-01T12:06:59Z</time>
      </trkpt>
      <trkpt lat="44.05408" lon="5.38333">
        <ele>745.1589355</ele>
        <time>2015-11-01T12:07:03Z</time>
      </trkpt>
      <trkpt lat="44.05412" lon="5.38345">
        <ele>744.6782227</ele>
        <time>2015-11-01T12:07:07Z</time>
      </trkpt>
      <trkpt lat="44.05442" lon="5.38347">
        <ele>744.1977539</ele>
        <time>2015-11-01T12:07:18Z</time>
      </trkpt>
      <trkpt lat="44.05485" lon="5.38314">
        <ele>744.6782227</ele>
        <time>2015-11-01T12:07:30Z</time>
      </trkpt>
      <trkpt lat="44.05529" lon="5.38276">
        <ele>747.5622559</ele>
        <time>2015-11-01T12:07:44Z</time>
      </trkpt>
      <trkpt lat="44.05571" lon="5.38262">
        <ele>747.5622559</ele>
        <time>2015-11-01T12:07:55Z</time>
      </trkpt>
      <trkpt lat="44.0561" lon="5.38253">
        <ele>746.1203613</ele>
        <time>2015-11-01T12:08:03Z</time>
      </trkpt>
      <trkpt lat="44.05674" lon="5.38257">
        <ele>745.6396484</ele>
        <time>2015-11-01T12:08:16Z</time>
      </trkpt>
      <trkpt lat="44.05697" lon="5.38258">
        <ele>743.717041</ele>
        <time>2015-11-01T12:08:21Z</time>
      </trkpt>
      <trkpt lat="44.05767" lon="5.38278">
        <ele>741.7944336</ele>
        <time>2015-11-01T12:08:34Z</time>
      </trkpt>
      <trkpt lat="44.05837" lon="5.38303">
        <ele>734.5847168</ele>
        <time>2015-11-01T12:08:43Z</time>
      </trkpt>
      <trkpt lat="44.05945" lon="5.38345">
        <ele>723.529541</ele>
        <time>2015-11-01T12:08:54Z</time>
      </trkpt>
      <trkpt lat="44.06003" lon="5.38417">
        <ele>718.7229004</ele>
        <time>2015-11-01T12:09:01Z</time>
      </trkpt>
      <trkpt lat="44.06094" lon="5.38561">
        <ele>707.6677246</ele>
        <time>2015-11-01T12:09:14Z</time>
      </trkpt>
      <trkpt lat="44.06101" lon="5.38572">
        <ele>706.7062988</ele>
        <time>2015-11-01T12:09:15Z</time>
      </trkpt>
      <trkpt lat="44.06109" lon="5.38627">
        <ele>703.3417969</ele>
        <time>2015-11-01T12:09:20Z</time>
      </trkpt>
      <trkpt lat="44.06128" lon="5.38673">
        <ele>701.4191895</ele>
        <time>2015-11-01T12:09:26Z</time>
      </trkpt>
      <trkpt lat="44.06147" lon="5.38713">
        <ele>699.9770508</ele>
        <time>2015-11-01T12:09:31Z</time>
      </trkpt>
      <trkpt lat="44.06165" lon="5.38838">
        <ele>692.767334</ele>
        <time>2015-11-01T12:09:42Z</time>
      </trkpt>
      <trkpt lat="44.0616" lon="5.38931">
        <ele>690.8444824</ele>
        <time>2015-11-01T12:09:50Z</time>
      </trkpt>
      <trkpt lat="44.06159" lon="5.39027">
        <ele>689.8833008</ele>
        <time>2015-11-01T12:10:00Z</time>
      </trkpt>
      <trkpt lat="44.06163" lon="5.39151">
        <ele>688.9221191</ele>
        <time>2015-11-01T12:10:15Z</time>
      </trkpt>
      <trkpt lat="44.06166" lon="5.39271">
        <ele>687.4799805</ele>
        <time>2015-11-01T12:10:32Z</time>
      </trkpt>
      <trkpt lat="44.06169" lon="5.39309">
        <ele>685.557373</ele>
        <time>2015-11-01T12:10:38Z</time>
      </trkpt>
      <trkpt lat="44.06185" lon="5.39326">
        <ele>685.0769043</ele>
        <time>2015-11-01T12:10:42Z</time>
      </trkpt>
      <trkpt lat="44.06192" lon="5.39357">
        <ele>685.0769043</ele>
        <time>2015-11-01T12:10:49Z</time>
      </trkpt>
      <trkpt lat="44.0619" lon="5.3936">
        <ele>685.557373</ele>
        <time>2015-11-01T12:10:50Z</time>
      </trkpt>
      <trkpt lat="44.06156" lon="5.3938">
        <ele>687.4799805</ele>
        <time>2015-11-01T12:11:02Z</time>
      </trkpt>
      <trkpt lat="44.06131" lon="5.394">
        <ele>687.9606934</ele>
        <time>2015-11-01T12:11:13Z</time>
      </trkpt>
      <trkpt lat="44.06115" lon="5.39444">
        <ele>689.4025879</ele>
        <time>2015-11-01T12:11:29Z</time>
      </trkpt>
      <trkpt lat="44.06092" lon="5.3949">
        <ele>690.8444824</ele>
        <time>2015-11-01T12:11:49Z</time>
      </trkpt>
      <trkpt lat="44.06076" lon="5.39512">
        <ele>693.2478027</ele>
        <time>2015-11-01T12:12:04Z</time>
      </trkpt>
      <trkpt lat="44.06058" lon="5.39519">
        <ele>695.651123</ele>
        <time>2015-11-01T12:12:20Z</time>
      </trkpt>
      <trkpt lat="44.06038" lon="5.39513">
        <ele>696.6125488</ele>
        <time>2015-11-01T12:12:35Z</time>
      </trkpt>
      <trkpt lat="44.06025" lon="5.39509">
        <ele>697.5737305</ele>
        <time>2015-11-01T12:12:46Z</time>
      </trkpt>
      <trkpt lat="44.06022" lon="5.39507">
        <ele>698.0544434</ele>
        <time>2015-11-01T12:12:49Z</time>
      </trkpt>
      <trkpt lat="44.06015" lon="5.39507">
        <ele>699.015625</ele>
        <time>2015-11-01T12:12:55Z</time>
      </trkpt>
      <trkpt lat="44.05994" lon="5.39516">
        <ele>699.9770508</ele>
        <time>2015-11-01T12:13:13Z</time>
      </trkpt>
      <trkpt lat="44.05985" lon="5.39524">
        <ele>700.4580078</ele>
        <time>2015-11-01T12:13:21Z</time>
      </trkpt>
      <trkpt lat="44.05975" lon="5.39549">
        <ele>702.861084</ele>
        <time>2015-11-01T12:13:37Z</time>
      </trkpt>
      <trkpt lat="44.05974" lon="5.39552">
        <ele>702.861084</ele>
        <time>2015-11-01T12:13:39Z</time>
      </trkpt>
      <trkpt lat="44.05976" lon="5.39558">
        <ele>703.3417969</ele>
        <time>2015-11-01T12:13:43Z</time>
      </trkpt>
      <trkpt lat="44.05982" lon="5.39575">
        <ele>704.3032227</ele>
        <time>2015-11-01T12:13:54Z</time>
      </trkpt>
      <trkpt lat="44.0599" lon="5.39589">
        <ele>704.3032227</ele>
        <time>2015-11-01T12:14:03Z</time>
      </trkpt>
      <trkpt lat="44.05991" lon="5.39596">
        <ele>704.7836914</ele>
        <time>2015-11-01T12:14:06Z</time>
      </trkpt>
      <trkpt lat="44.05983" lon="5.39599">
        <ele>706.2255859</ele>
        <time>2015-11-01T12:14:12Z</time>
      </trkpt>
      <trkpt lat="44.05971" lon="5.39586">
        <ele>706.7062988</ele>
        <time>2015-11-01T12:14:21Z</time>
      </trkpt>
      <trkpt lat="44.05966" lon="5.39589">
        <ele>707.6677246</ele>
        <time>2015-11-01T12:14:26Z</time>
      </trkpt>
      <trkpt lat="44.05967" lon="5.39598">
        <ele>707.6677246</ele>
        <time>2015-11-01T12:14:31Z</time>
      </trkpt>
      <trkpt lat="44.0598" lon="5.39628">
        <ele>710.0708008</ele>
        <time>2015-11-01T12:14:49Z</time>
      </trkpt>
      <trkpt lat="44.05995" lon="5.39652">
        <ele>711.5129395</ele>
        <time>2015-11-01T12:15:06Z</time>
      </trkpt>
      <trkpt lat="44.06022" lon="5.39684">
        <ele>713.9160156</ele>
        <time>2015-11-01T12:15:31Z</time>
      </trkpt>
      <trkpt lat="44.06036" lon="5.39701">
        <ele>715.3581543</ele>
        <time>2015-11-01T12:15:45Z</time>
      </trkpt>
      <trkpt lat="44.06042" lon="5.39713">
        <ele>716.800293</ele>
        <time>2015-11-01T12:15:54Z</time>
      </trkpt>
      <trkpt lat="44.06044" lon="5.39716">
        <ele>717.2810059</ele>
        <time>2015-11-01T12:15:56Z</time>
      </trkpt>
      <trkpt lat="44.06058" lon="5.39738">
        <ele>716.3195801</ele>
        <time>2015-11-01T12:16:13Z</time>
      </trkpt>
      <trkpt lat="44.06069" lon="5.39755">
        <ele>716.3195801</ele>
        <time>2015-11-01T12:16:25Z</time>
      </trkpt>
      <trkpt lat="44.06081" lon="5.39771">
        <ele>717.7614746</ele>
        <time>2015-11-01T12:16:38Z</time>
      </trkpt>
      <trkpt lat="44.06098" lon="5.39792">
        <ele>721.6066895</ele>
        <time>2015-11-01T12:16:54Z</time>
      </trkpt>
      <trkpt lat="44.06112" lon="5.39815">
        <ele>723.0488281</ele>
        <time>2015-11-01T12:17:09Z</time>
      </trkpt>
      <trkpt lat="44.06125" lon="5.39834">
        <ele>724.4907227</ele>
        <time>2015-11-01T12:17:22Z</time>
      </trkpt>
      <trkpt lat="44.06141" lon="5.39854">
        <ele>727.3747559</ele>
        <time>2015-11-01T12:17:36Z</time>
      </trkpt>
      <trkpt lat="44.06159" lon="5.39877">
        <ele>730.7392578</ele>
        <time>2015-11-01T12:17:53Z</time>
      </trkpt>
      <trkpt lat="44.06174" lon="5.39901">
        <ele>732.1813965</ele>
        <time>2015-11-01T12:18:10Z</time>
      </trkpt>
      <trkpt lat="44.06188" lon="5.39921">
        <ele>734.1040039</ele>
        <time>2015-11-01T12:18:24Z</time>
      </trkpt>
      <trkpt lat="44.06202" lon="5.3995">
        <ele>735.5458984</ele>
        <time>2015-11-01T12:18:41Z</time>
      </trkpt>
      <trkpt lat="44.06214" lon="5.39974">
        <ele>737.9492188</ele>
        <time>2015-11-01T12:18:56Z</time>
      </trkpt>
      <trkpt lat="44.0623" lon="5.39999">
        <ele>738.9106445</ele>
        <time>2015-11-01T12:19:12Z</time>
      </trkpt>
      <trkpt lat="44.06234" lon="5.40005">
        <ele>739.8718262</ele>
        <time>2015-11-01T12:19:16Z</time>
      </trkpt>
      <trkpt lat="44.06237" lon="5.40006">
        <ele>739.3911133</ele>
        <time>2015-11-01T12:19:19Z</time>
      </trkpt>
      <trkpt lat="44.06254" lon="5.4002">
        <ele>736.5073242</ele>
        <time>2015-11-01T12:19:24Z</time>
      </trkpt>
      <trkpt lat="44.06306" lon="5.40045">
        <ele>731.2199707</ele>
        <time>2015-11-01T12:19:33Z</time>
      </trkpt>
      <trkpt lat="44.06319" lon="5.40051">
        <ele>730.2585449</ele>
        <time>2015-11-01T12:19:35Z</time>
      </trkpt>
      <trkpt lat="44.06339" lon="5.40056">
        <ele>727.3747559</ele>
        <time>2015-11-01T12:19:38Z</time>
      </trkpt>
      <trkpt lat="44.06372" lon="5.40072">
        <ele>723.0488281</ele>
        <time>2015-11-01T12:19:44Z</time>
      </trkpt>
      <trkpt lat="44.06412" lon="5.40103">
        <ele>718.7229004</ele>
        <time>2015-11-01T12:19:53Z</time>
      </trkpt>
      <trkpt lat="44.06427" lon="5.40114">
        <ele>718.7229004</ele>
        <time>2015-11-01T12:19:59Z</time>
      </trkpt>
      <trkpt lat="44.06454" lon="5.40128">
        <ele>721.1262207</ele>
        <time>2015-11-01T12:20:13Z</time>
      </trkpt>
      <trkpt lat="44.06478" lon="5.40121">
        <ele>723.529541</ele>
        <time>2015-11-01T12:20:24Z</time>
      </trkpt>
      <trkpt lat="44.06495" lon="5.40108">
        <ele>723.529541</ele>
        <time>2015-11-01T12:20:33Z</time>
      </trkpt>
      <trkpt lat="44.06509" lon="5.40095">
        <ele>724.0100098</ele>
        <time>2015-11-01T12:20:42Z</time>
      </trkpt>
      <trkpt lat="44.06529" lon="5.40077">
        <ele>724.4907227</ele>
        <time>2015-11-01T12:20:54Z</time>
      </trkpt>
      <trkpt lat="44.06548" lon="5.40072">
        <ele>724.9714355</ele>
        <time>2015-11-01T12:21:03Z</time>
      </trkpt>
      <trkpt lat="44.06588" lon="5.40085">
        <ele>724.0100098</ele>
        <time>2015-11-01T12:21:16Z</time>
      </trkpt>
      <trkpt lat="44.0663" lon="5.40104">
        <ele>721.1262207</ele>
        <time>2015-11-01T12:21:28Z</time>
      </trkpt>
      <trkpt lat="44.06675" lon="5.40108">
        <ele>721.6066895</ele>
        <time>2015-11-01T12:21:40Z</time>
      </trkpt>
      <trkpt lat="44.0669" lon="5.40106">
        <ele>721.1262207</ele>
        <time>2015-11-01T12:21:44Z</time>
      </trkpt>
      <trkpt lat="44.067" lon="5.40107">
        <ele>719.6843262</ele>
        <time>2015-11-01T12:21:46Z</time>
      </trkpt>
      <trkpt lat="44.06745" lon="5.40133">
        <ele>716.800293</ele>
        <time>2015-11-01T12:21:54Z</time>
      </trkpt>
      <trkpt lat="44.06769" lon="5.40139">
        <ele>715.8388672</ele>
        <time>2015-11-01T12:21:58Z</time>
      </trkpt>
      <trkpt lat="44.06795" lon="5.40139">
        <ele>715.3581543</ele>
        <time>2015-11-01T12:22:03Z</time>
      </trkpt>
      <trkpt lat="44.06816" lon="5.40138">
        <ele>716.3195801</ele>
        <time>2015-11-01T12:22:08Z</time>
      </trkpt>
      <trkpt lat="44.06849" lon="5.40143">
        <ele>714.8774414</ele>
        <time>2015-11-01T12:22:15Z</time>
      </trkpt>
      <trkpt lat="44.06874" lon="5.40154">
        <ele>713.4355469</ele>
        <time>2015-11-01T12:22:20Z</time>
      </trkpt>
      <trkpt lat="44.06912" lon="5.40177">
        <ele>711.5129395</ele>
        <time>2015-11-01T12:22:27Z</time>
      </trkpt>
      <trkpt lat="44.06918" lon="5.40182">
        <ele>711.5129395</ele>
        <time>2015-11-01T12:22:28Z</time>
      </trkpt>
      <trkpt lat="44.06938" lon="5.40212">
        <ele>711.9936523</ele>
        <time>2015-11-01T12:22:34Z</time>
      </trkpt>
      <trkpt lat="44.06957" lon="5.40223">
        <ele>712.954834</ele>
        <time>2015-11-01T12:22:38Z</time>
      </trkpt>
      <trkpt lat="44.06999" lon="5.40247">
        <ele>714.8774414</ele>
        <time>2015-11-01T12:22:46Z</time>
      </trkpt>
      <trkpt lat="44.07039" lon="5.40263">
        <ele>716.800293</ele>
        <time>2015-11-01T12:22:54Z</time>
      </trkpt>
      <trkpt lat="44.07064" lon="5.40269">
        <ele>716.800293</ele>
        <time>2015-11-01T12:23:04Z</time>
      </trkpt>
      <trkpt lat="44.07099" lon="5.40277">
        <ele>714.3967285</ele>
        <time>2015-11-01T12:23:21Z</time>
      </trkpt>
      <trkpt lat="44.07132" lon="5.40288">
        <ele>716.3195801</ele>
        <time>2015-11-01T12:23:40Z</time>
      </trkpt>
      <trkpt lat="44.07155" lon="5.40294">
        <ele>716.800293</ele>
        <time>2015-11-01T12:23:55Z</time>
      </trkpt>
      <trkpt lat="44.07175" lon="5.40298">
        <ele>718.2421875</ele>
        <time>2015-11-01T12:24:08Z</time>
      </trkpt>
      <trkpt lat="44.07208" lon="5.40303">
        <ele>716.3195801</ele>
        <time>2015-11-01T12:24:23Z</time>
      </trkpt>
      <trkpt lat="44.07253" lon="5.40318">
        <ele>712.954834</ele>
        <time>2015-11-01T12:24:32Z</time>
      </trkpt>
      <trkpt lat="44.073" lon="5.40335">
        <ele>711.5129395</ele>
        <time>2015-11-01T12:24:40Z</time>
      </trkpt>
      <trkpt lat="44.07305" lon="5.40337">
        <ele>711.0322266</ele>
        <time>2015-11-01T12:24:41Z</time>
      </trkpt>
      <trkpt lat="44.07364" lon="5.40348">
        <ele>711.0322266</ele>
        <time>2015-11-01T12:24:54Z</time>
      </trkpt>
      <trkpt lat="44.07381" lon="5.40351">
        <ele>712.954834</ele>
        <time>2015-11-01T12:25:00Z</time>
      </trkpt>
      <trkpt lat="44.07402" lon="5.40343">
        <ele>711.5129395</ele>
        <time>2015-11-01T12:25:08Z</time>
      </trkpt>
      <trkpt lat="44.07457" lon="5.40345">
        <ele>708.6289063</ele>
        <time>2015-11-01T12:25:21Z</time>
      </trkpt>
      <trkpt lat="44.0749" lon="5.40337">
        <ele>705.7451172</ele>
        <time>2015-11-01T12:25:28Z</time>
      </trkpt>
      <trkpt lat="44.07529" lon="5.40319">
        <ele>703.3417969</ele>
        <time>2015-11-01T12:25:35Z</time>
      </trkpt>
      <trkpt lat="44.07591" lon="5.40279">
        <ele>699.015625</ele>
        <time>2015-11-01T12:25:46Z</time>
      </trkpt>
      <trkpt lat="44.07623" lon="5.40257">
        <ele>697.5737305</ele>
        <time>2015-11-01T12:25:53Z</time>
      </trkpt>
      <trkpt lat="44.07668" lon="5.40225">
        <ele>694.6896973</ele>
        <time>2015-11-01T12:26:02Z</time>
      </trkpt>
      <trkpt lat="44.07726" lon="5.40183">
        <ele>694.6896973</ele>
        <time>2015-11-01T12:26:14Z</time>
      </trkpt>
      <trkpt lat="44.07779" lon="5.40146">
        <ele>694.2092285</ele>
        <time>2015-11-01T12:26:28Z</time>
      </trkpt>
      <trkpt lat="44.07812" lon="5.40122">
        <ele>695.1704102</ele>
        <time>2015-11-01T12:26:40Z</time>
      </trkpt>
      <trkpt lat="44.07838" lon="5.40109">
        <ele>696.6125488</ele>
        <time>2015-11-01T12:26:53Z</time>
      </trkpt>
      <trkpt lat="44.07857" lon="5.40106">
        <ele>697.0930176</ele>
        <time>2015-11-01T12:27:06Z</time>
      </trkpt>
      <trkpt lat="44.07887" lon="5.40098">
        <ele>699.015625</ele>
        <time>2015-11-01T12:27:26Z</time>
      </trkpt>
      <trkpt lat="44.07922" lon="5.40092">
        <ele>700.4580078</ele>
        <time>2015-11-01T12:27:46Z</time>
      </trkpt>
      <trkpt lat="44.07956" lon="5.40089">
        <ele>700.4580078</ele>
        <time>2015-11-01T12:28:03Z</time>
      </trkpt>
      <trkpt lat="44.07998" lon="5.40105">
        <ele>700.4580078</ele>
        <time>2015-11-01T12:28:19Z</time>
      </trkpt>
      <trkpt lat="44.08045" lon="5.40124">
        <ele>700.4580078</ele>
        <time>2015-11-01T12:28:36Z</time>
      </trkpt>
      <trkpt lat="44.08094" lon="5.40142">
        <ele>699.4963379</ele>
        <time>2015-11-01T12:28:52Z</time>
      </trkpt>
      <trkpt lat="44.08151" lon="5.40158">
        <ele>700.4580078</ele>
        <time>2015-11-01T12:29:09Z</time>
      </trkpt>
      <trkpt lat="44.08192" lon="5.40164">
        <ele>700.9384766</ele>
        <time>2015-11-01T12:29:22Z</time>
      </trkpt>
      <trkpt lat="44.0825" lon="5.40158">
        <ele>701.4191895</ele>
        <time>2015-11-01T12:29:40Z</time>
      </trkpt>
      <trkpt lat="44.08309" lon="5.40154">
        <ele>702.861084</ele>
        <time>2015-11-01T12:29:58Z</time>
      </trkpt>
      <trkpt lat="44.08342" lon="5.4018">
        <ele>703.8225098</ele>
        <time>2015-11-01T12:30:11Z</time>
      </trkpt>
      <trkpt lat="44.08369" lon="5.402">
        <ele>703.8225098</ele>
        <time>2015-11-01T12:30:21Z</time>
      </trkpt>
      <trkpt lat="44.08404" lon="5.40227">
        <ele>704.3032227</ele>
        <time>2015-11-01T12:30:34Z</time>
      </trkpt>
      <trkpt lat="44.08404" lon="5.40244">
        <ele>704.3032227</ele>
        <time>2015-11-01T12:30:38Z</time>
      </trkpt>
      <trkpt lat="44.0839" lon="5.40274">
        <ele>705.2644043</ele>
        <time>2015-11-01T12:30:45Z</time>
      </trkpt>
      <trkpt lat="44.08401" lon="5.4029">
        <ele>705.7451172</ele>
        <time>2015-11-01T12:30:50Z</time>
      </trkpt>
      <trkpt lat="44.08462" lon="5.40304">
        <ele>704.3032227</ele>
        <time>2015-11-01T12:31:05Z</time>
      </trkpt>
      <trkpt lat="44.08503" lon="5.40315">
        <ele>703.3417969</ele>
        <time>2015-11-01T12:31:14Z</time>
      </trkpt>
      <trkpt lat="44.08563" lon="5.40363">
        <ele>702.861084</ele>
        <time>2015-11-01T12:31:27Z</time>
      </trkpt>
      <trkpt lat="44.08654" lon="5.40473">
        <ele>702.861084</ele>
        <time>2015-11-01T12:31:45Z</time>
      </trkpt>
      <trkpt lat="44.08735" lon="5.40571">
        <ele>701.8999023</ele>
        <time>2015-11-01T12:32:01Z</time>
      </trkpt>
      <trkpt lat="44.08816" lon="5.40667">
        <ele>702.861084</ele>
        <time>2015-11-01T12:32:18Z</time>
      </trkpt>
      <trkpt lat="44.08821" lon="5.40672">
        <ele>703.3417969</ele>
        <time>2015-11-01T12:32:19Z</time>
      </trkpt>
      <trkpt lat="44.08842" lon="5.40689">
        <ele>703.3417969</ele>
        <time>2015-11-01T12:32:23Z</time>
      </trkpt>
      <trkpt lat="44.08864" lon="5.40695">
        <ele>703.8225098</ele>
        <time>2015-11-01T12:32:27Z</time>
      </trkpt>
      <trkpt lat="44.08921" lon="5.40697">
        <ele>705.2644043</ele>
        <time>2015-11-01T12:32:39Z</time>
      </trkpt>
      <trkpt lat="44.08974" lon="5.40699">
        <ele>707.6677246</ele>
        <time>2015-11-01T12:32:54Z</time>
      </trkpt>
      <trkpt lat="44.09004" lon="5.40689">
        <ele>707.6677246</ele>
        <time>2015-11-01T12:33:03Z</time>
      </trkpt>
      <trkpt lat="44.09042" lon="5.40661">
        <ele>708.1484375</ele>
        <time>2015-11-01T12:33:16Z</time>
      </trkpt>
      <trkpt lat="44.09077" lon="5.40655">
        <ele>710.0708008</ele>
        <time>2015-11-01T12:33:31Z</time>
      </trkpt>
      <trkpt lat="44.09104" lon="5.40658">
        <ele>711.5129395</ele>
        <time>2015-11-01T12:33:46Z</time>
      </trkpt>
      <trkpt lat="44.09132" lon="5.40664">
        <ele>713.4355469</ele>
        <time>2015-11-01T12:34:03Z</time>
      </trkpt>
      <trkpt lat="44.0916" lon="5.40666">
        <ele>714.3967285</ele>
        <time>2015-11-01T12:34:19Z</time>
      </trkpt>
      <trkpt lat="44.09185" lon="5.40667">
        <ele>716.3195801</ele>
        <time>2015-11-01T12:34:35Z</time>
      </trkpt>
      <trkpt lat="44.09213" lon="5.40674">
        <ele>718.7229004</ele>
        <time>2015-11-01T12:34:54Z</time>
      </trkpt>
      <trkpt lat="44.09236" lon="5.40679">
        <ele>720.1647949</ele>
        <time>2015-11-01T12:35:10Z</time>
      </trkpt>
      <trkpt lat="44.09253" lon="5.40693">
        <ele>722.5681152</ele>
        <time>2015-11-01T12:35:25Z</time>
      </trkpt>
      <trkpt lat="44.09255" lon="5.40694">
        <ele>723.529541</ele>
        <time>2015-11-01T12:35:28Z</time>
      </trkpt>
      <trkpt lat="44.0926" lon="5.40699">
        <ele>724.9714355</ele>
        <time>2015-11-01T12:35:33Z</time>
      </trkpt>
      <trkpt lat="44.09269" lon="5.4071">
        <ele>726.894043</ele>
        <time>2015-11-01T12:35:42Z</time>
      </trkpt>
      <trkpt lat="44.09264" lon="5.40713">
        <ele>727.8552246</ele>
        <time>2015-11-01T12:35:48Z</time>
      </trkpt>
      <trkpt lat="44.0926" lon="5.40713">
        <ele>728.3359375</ele>
        <time>2015-11-01T12:35:51Z</time>
      </trkpt>
      <trkpt lat="44.09234" lon="5.40704">
        <ele>730.7392578</ele>
        <time>2015-11-01T12:36:10Z</time>
      </trkpt>
      <trkpt lat="44.09203" lon="5.40696">
        <ele>734.1040039</ele>
        <time>2015-11-01T12:36:30Z</time>
      </trkpt>
      <trkpt lat="44.09194" lon="5.40699">
        <ele>735.0654297</ele>
        <time>2015-11-01T12:36:36Z</time>
      </trkpt>
      <trkpt lat="44.09174" lon="5.40709">
        <ele>736.0266113</ele>
        <time>2015-11-01T12:36:51Z</time>
      </trkpt>
      <trkpt lat="44.09157" lon="5.40717">
        <ele>738.4299316</ele>
        <time>2015-11-01T12:37:06Z</time>
      </trkpt>
      <trkpt lat="44.09133" lon="5.40729">
        <ele>741.7944336</ele>
        <time>2015-11-01T12:37:26Z</time>
      </trkpt>
      <trkpt lat="44.09116" lon="5.40731">
        <ele>742.7558594</ele>
        <time>2015-11-01T12:37:41Z</time>
      </trkpt>
      <trkpt lat="44.09112" lon="5.40732">
        <ele>742.7558594</ele>
        <time>2015-11-01T12:37:44Z</time>
      </trkpt>
      <trkpt lat="44.09107" lon="5.40749">
        <ele>744.1977539</ele>
        <time>2015-11-01T12:37:54Z</time>
      </trkpt>
      <trkpt lat="44.09087" lon="5.40773">
        <ele>749.0043945</ele>
        <time>2015-11-01T12:38:12Z</time>
      </trkpt>
      <trkpt lat="44.0908" lon="5.40787">
        <ele>748.5236816</ele>
        <time>2015-11-01T12:38:26Z</time>
      </trkpt>
      <trkpt lat="44.09079" lon="5.40788">
        <ele>748.0432129</ele>
        <time>2015-11-01T12:38:40Z</time>
      </trkpt>
      <trkpt lat="44.09079" lon="5.40791">
        <ele>748.0432129</ele>
        <time>2015-11-01T12:38:42Z</time>
      </trkpt>
      <trkpt lat="44.09078" lon="5.4082">
        <ele>750.927002</ele>
        <time>2015-11-01T12:38:54Z</time>
      </trkpt>
      <trkpt lat="44.09078" lon="5.4083">
        <ele>749.9658203</ele>
        <time>2015-11-01T12:38:58Z</time>
      </trkpt>
      <trkpt lat="44.09076" lon="5.40874">
        <ele>747.5622559</ele>
        <time>2015-11-01T12:39:11Z</time>
      </trkpt>
      <trkpt lat="44.09077" lon="5.40882">
        <ele>747.081543</ele>
        <time>2015-11-01T12:39:15Z</time>
      </trkpt>
      <trkpt lat="44.091" lon="5.40895">
        <ele>744.6782227</ele>
        <time>2015-11-01T12:39:23Z</time>
      </trkpt>
      <trkpt lat="44.09117" lon="5.40946">
        <ele>749.9658203</ele>
        <time>2015-11-01T12:39:40Z</time>
      </trkpt>
      <trkpt lat="44.09126" lon="5.40997">
        <ele>752.3688965</ele>
        <time>2015-11-01T12:39:58Z</time>
      </trkpt>
      <trkpt lat="44.09129" lon="5.41033">
        <ele>755.2529297</ele>
        <time>2015-11-01T12:40:08Z</time>
      </trkpt>
      <trkpt lat="44.09133" lon="5.41066">
        <ele>759.0981445</ele>
        <time>2015-11-01T12:40:22Z</time>
      </trkpt>
      <trkpt lat="44.09136" lon="5.41075">
        <ele>759.5788574</ele>
        <time>2015-11-01T12:40:27Z</time>
      </trkpt>
      <trkpt lat="44.09138" lon="5.41085">
        <ele>760.5400391</ele>
        <time>2015-11-01T12:40:32Z</time>
      </trkpt>
      <trkpt lat="44.0914" lon="5.41118">
        <ele>762.9433594</ele>
        <time>2015-11-01T12:40:49Z</time>
      </trkpt>
      <trkpt lat="44.09143" lon="5.41144">
        <ele>764.385498</ele>
        <time>2015-11-01T12:41:03Z</time>
      </trkpt>
      <trkpt lat="44.09147" lon="5.41173">
        <ele>766.3081055</ele>
        <time>2015-11-01T12:41:17Z</time>
      </trkpt>
      <trkpt lat="44.09137" lon="5.41211">
        <ele>769.1921387</ele>
        <time>2015-11-01T12:41:36Z</time>
      </trkpt>
      <trkpt lat="44.09127" lon="5.41244">
        <ele>772.0759277</ele>
        <time>2015-11-01T12:41:52Z</time>
      </trkpt>
      <trkpt lat="44.09113" lon="5.41286">
        <ele>774.9599609</ele>
        <time>2015-11-01T12:42:12Z</time>
      </trkpt>
      <trkpt lat="44.091" lon="5.41324">
        <ele>777.84375</ele>
        <time>2015-11-01T12:42:30Z</time>
      </trkpt>
      <trkpt lat="44.09097" lon="5.41334">
        <ele>778.3244629</ele>
        <time>2015-11-01T12:42:35Z</time>
      </trkpt>
      <trkpt lat="44.09096" lon="5.41339">
        <ele>778.3244629</ele>
        <time>2015-11-01T12:42:38Z</time>
      </trkpt>
      <trkpt lat="44.09084" lon="5.41376">
        <ele>780.2473145</ele>
        <time>2015-11-01T12:42:58Z</time>
      </trkpt>
      <trkpt lat="44.09076" lon="5.41408">
        <ele>782.1699219</ele>
        <time>2015-11-01T12:43:14Z</time>
      </trkpt>
      <trkpt lat="44.09069" lon="5.41446">
        <ele>784.0925293</ele>
        <time>2015-11-01T12:43:31Z</time>
      </trkpt>
      <trkpt lat="44.09067" lon="5.41471">
        <ele>785.0539551</ele>
        <time>2015-11-01T12:43:41Z</time>
      </trkpt>
      <trkpt lat="44.09064" lon="5.41524">
        <ele>786.4958496</ele>
        <time>2015-11-01T12:44:02Z</time>
      </trkpt>
      <trkpt lat="44.09062" lon="5.41552">
        <ele>787.4570313</ele>
        <time>2015-11-01T12:44:13Z</time>
      </trkpt>
      <trkpt lat="44.09063" lon="5.41604">
        <ele>788.8991699</ele>
        <time>2015-11-01T12:44:31Z</time>
      </trkpt>
      <trkpt lat="44.09063" lon="5.4162">
        <ele>789.3796387</ele>
        <time>2015-11-01T12:44:36Z</time>
      </trkpt>
      <trkpt lat="44.09078" lon="5.41626">
        <ele>788.8991699</ele>
        <time>2015-11-01T12:44:45Z</time>
      </trkpt>
      <trkpt lat="44.09083" lon="5.41633">
        <ele>788.8991699</ele>
        <time>2015-11-01T12:44:52Z</time>
      </trkpt>
      <trkpt lat="44.09084" lon="5.41631">
        <ele>788.418457</ele>
        <time>2015-11-01T12:44:59Z</time>
      </trkpt>
      <trkpt lat="44.09084" lon="5.41631">
        <ele>788.418457</ele>
        <time>2015-11-01T12:45:50Z</time>
      </trkpt>
      <trkpt lat="44.09084" lon="5.41631">
        <ele>788.418457</ele>
        <time>2015-11-01T12:45:51Z</time>
      </trkpt>
    </trkseg>
  </trk>
</gpx>